     2              OBSERVATION DATA    GPS                 RINEX VERSION / TYPE
TRRINEXO V2.4.6 UX                                          PGM / RUN BY / DATE
                                                            COMMENT
Original Marker Name: COLL                                  COMMENT
Campaign Name: STRC 1995                                    COMMENT
4-Character Station Name: COLL                              COMMENT
6-Character Antenna Code: TRMSST                            COMMENT
Vertical Measurement Point: TGP                             COMMENT
Vertical Offset to Rinex Ref. Point: 0.0629                 COMMENT
Radial Measurement Point: NGP                               COMMENT
Radial Offset to Rinex Ref. Point: 0.2334                   COMMENT
Antenna Height from Field Measurement: 1.6610 m             COMMENT
Original XYZ: -2309861.6072 -4842191.8540 3437869.3977      COMMENT
New XYZ position is based on association with SCEC monument COMMENT
E1C8W2I6+0012. Position of that monument is believed to be  COMMENT
valid to within 1 m horizontally; vertical accuracy         COMMENT
should be no worse than 3-times this value.                 COMMENT
                                                            COMMENT
Revised Rinex header created by UCSD GPS archive for        COMMENT
GSAC on 10-Apr-1999 (1999:100) 06:01:17 GMT                 COMMENT
For assistance contact dagnew@ucsd.edu or hjohnson@ucsd.edu COMMENT
                                                            COMMENT
COLLEGE 1967 1979                                           MARKER NAME
COLLEGE                                                     MARKER NUMBER
W. Gallaher UNAVCO                                          OBSERVER / AGENCY
1057 TRIMBLE 4000 SST 4.81                                  REC # / TYPE / VERS
271 TR 4000SST L1/L2 GEO                                    ANT # / TYPE
 -2309840.0000 -4842142.0000  3437815.0000                  APPROX POSITION XYZ
        1.5816        0.0000        0.0000                  ANTENNA: DELTA H/E/N
     1     2     0                                          WAVELENGTH FACT L1/2
     3    C1    L1    L2                                    # / TYPES OF OBSERV
    30                                                      INTERVAL
  1995     2    19    16     0   30.000000                  TIME OF FIRST OBS
  1995     2    19    23    59   30.000000                  TIME OF LAST OBS
     0                                                      # OF SATELLITES
                                                            END OF HEADER
 95  2 19 16  0 30.0000000  0  1 25
  21647913.344          -0.61917
 95  2 19 16  1  0.0000000  0  6 25  1 14 29 15 22
  21652033.398       21650.534 7        -0.26018
  24872895.141       30167.630 5
  21524079.805     -107712.019 7
  23254609.094      -97810.487 6
  22014030.172       27737.592 6
  22775652.383     -120998.836 6
 95  2 19 16  1 30.0000000  0  6 25  1 14 29 15 22
  21656196.406       43527.633 7     17046.809 8
  24878616.469       60238.326 5        -0.44713
  21503617.617     -215241.251 7        -0.26918
  23235981.531     -195679.551 6        -0.26915
  22019368.672       55796.900 6        -0.14516
  22752666.172     -241821.866 6        -0.06616
 95  2 19 16  2  0.0000000  0  6 25  1 14 29 15 22
  21660407.523       65664.045 7     34295.939 8
  24884330.125       90222.018 5     23363.368 2
  21483190.781     -322577.151 7    -83638.633 8
  23217349.508     -293585.775 6    -76290.813 5
  22024771.867       84187.584 6     22122.425 7
  22729706.102     -362456.007 6    -94000.637 6
 95  2 19 16  2 30.0000000  0  6 25  1 14 29 15 22
  21664669.781       88052.267 7     51741.285 8
  24890010.109      120092.748 5     46639.172 2
  21462803.180     -429717.461 7   -167124.590 8
  23198711.797     -391521.867 6   -152604.645 5
  22030234.758      112895.241 6     44491.980 6
  22706778.930     -482925.911 6   -187873.246 6
 95  2 19 16  3  0.0000000  0  6 25  1 14 29 15 22
  21668979.016      110683.168 7     69375.733 8
  24895677.227      149850.798 5     69827.175 2
  21442455.344     -536651.288 7   -250449.649 8
  23180075.359     -489473.260 6   -228930.394 5
  22035752.125      141915.929 6     67105.464 6
  22683890.953     -603242.482 6   -281626.384 5
 95  2 19 16  3 30.0000000  0  6 25  1 14 29 15 22
  21673333.664      133569.921 7     87209.537 8
  24901326.875      179514.379 5
  21422150.680     -643356.199 7   -333596.330 8
  23161443.023     -587401.824 6   -305238.351 5
  22041334.195      171265.517 6
  22661020.406     -723395.008 6   -375251.689 6
 95  2 19 16  4  0.0000000  0  6 25  1 14 29 15 22
  21677732.828      156711.051 7    105241.571 8
  24906948.664      209086.819 5    115985.004 4
  21401887.203     -749834.444 7   -416566.394 8
  23142805.883     -685313.676 6   -381533.275 5
  22046985.141      200942.390 6    113100.031 6
  22638190.141     -843376.265 6   -468743.549 6
 95  2 19 16  4 30.0000000  0  6 25  1 14 29 15 22
  21682176.812      180070.279 7    123443.543 8
  24912555.891      238567.784 5    138957.088 4
  21381666.617     -856098.120 7   -499369.267 8
  23124175.047     -783238.108 6   -457838.008 5
  22052694.094      230929.799 6    136466.811 6
  22615388.875     -963185.257 6   -562101.185 5
 95  2 19 16  5  0.0000000  0  6 25  1 14 29 15 22
  21686665.062      203629.279 7    141801.181 8
  24918143.570      267949.487 5    161851.826 5
  21361478.438     -962179.250 7   -582029.887 8
  23105529.055     -881215.861 6   -534184.291 5
  22058451.023      261202.563 6    160055.924 6
  22592628.016    -1082809.817 6   -655315.099 6
 95  2 19 16  5 30.0000000  0  6 25  1 14 29 15 22
  21691191.180      227418.814 7    160338.467 8
  24923728.297      297256.029 5    184688.010 2
  21341330.477    -1068064.919 7   -664538.205 8
  23086875.289     -979242.958 6   -610569.029 5
  22064274.750      291781.298 6    183883.474 6
  22569910.594    -1202202.768 6   -748348.559 6
 95  2 19 16  6  0.0000000  0  6 25  1 14 29 15 22
  21695759.141      251431.903 7    179049.937 8
  24929288.719      326497.899 4    207473.825 5
  21321218.141    -1173747.409 7   -746888.190 8
  23068214.305    -1077308.572 6   -686983.789 5
  22070151.203      322675.732 6    207957.013 6
  22547237.680    -1321333.774 6   -841177.900 6
 95  2 19 16  6 30.0000000  0  6 25  1 14 29 15 22
  21700367.367      275647.124 7    197918.925 8
  24934841.297      355652.773 3    230191.809 5
  21301145.477    -1279237.328 7   -829088.135 9
  23049548.148    -1175405.115 6   -763422.645 5
  22076088.953      353868.589 6    232263.104 6
  22524615.039    -1440213.901 6   -933811.752 6
 95  2 19 16  7  0.0000000  0  6 25  1 14 29 15 22
  21705021.969      300098.842 7    216972.193 8
  24940377.461      384741.042 4    252857.862 5
  21281111.969    -1384505.070 7   -911114.952 8
  23030878.484    -1273487.615 6   -839850.586 5
  22082082.758      385386.244 6    256822.279 6
  22502044.086    -1558826.819 6  -1026237.393 6
 95  2 19 16  7 30.0000000  0  5 25 14 29 15 22
  21709707.281      324728.072 7    236164.041 8
  21261118.633    -1489574.015 7   -992986.865 9
  23012214.320          -0.76616
  22088139.414                          -0.53416
  22479511.289          -0.43016
 95  2 19 16  8  0.0000000  0  5 25 14 29 15 22
  21714425.039      349523.146 7    255484.877 8
  21241167.797    -1594424.419 7  -1074688.481 9
  22993545.961      -98095.427 6        -0.42215
  22094241.805       32079.862 6        -0.15116
  22457015.898     -118221.032 6        -0.46616
 95  2 19 16  8 30.0000000  0  5 25 14 29 15 22
  21719183.961      374511.988 7    274956.686 8
  21221261.922    -1699024.919 7  -1156195.371 9
  22974881.812     -196181.071 6    -76430.797 5
  22100399.602       64448.734 6     25222.304 6
  22434558.016     -236254.727 6    -91974.783 6
 95  2 19 16  9  0.0000000  0  5 25 14 29 15 22
  21723976.531      399698.822 7    294582.766 9
  21201404.750    -1803374.240 7  -1237506.536 9
  22956213.922     -294277.390 6   -152869.467 5
  22106611.977       97106.391 6     50669.773 6
  22412132.781     -354101.653 6   -183803.563 6
 95  2 19 16  9 30.0000000  0  5 25 14 29 15 22
  21728806.430      425077.863 7    314358.617 9
  21181596.648    -1907482.185 7  -1318629.620 8
  22937541.930     -392409.929 6   -229336.369 5
  22112879.781      130044.043 6     76335.436 6
  22389740.156     -471749.311 6   -275477.071 6
 95  2 19 16 10  0.0000000  0  5 25 14 29 15 22
  21733673.477      450664.323 7    334296.094 8
  21161825.203    -2011366.527 7  -1399578.452 9
  22918857.727     -490592.045 6   -305841.917 5
  22119203.289      163254.632 6    102213.783 6
  22367394.320     -589185.535 6   -366985.817 6
 95  2 19 16 10 30.0000000  0  5 25 14 29 15 22
  21738584.867      476470.292 7    354404.635 8
  21142095.766    -2115037.841 7  -1480361.275 8
  22900167.031     -588826.373 6   -382388.137 5
  22125575.016      196739.053 6    128305.499 6
  22345090.688     -706385.469 6   -458310.428 6
 95  2 19 16 11  0.0000000  0  5 25 14 29 15 22
  21743536.227      502492.876 7    374681.950 8
  21122406.797    -2218502.402 7  -1560983.017 8
  22881462.141     -687107.602 6   -458970.892 5
  22132001.461      230500.850 6    154613.347 6
  22322836.109     -823327.501 6   -549434.093 6
 95  2 19 16 11 30.0000000  0  5 25 14 29 15 22
  21748543.375      528795.563 7    395177.530 8
  21102775.906    -2321683.763 7  -1641384.067 8
  22862764.242     -785360.021 6   -535531.215 5
  22138487.023      264598.403 6    181182.828 6
  22300647.195     -939939.247 6   -640300.364 6
 95  2 19 16 12  0.0000000  0  5 25 14 29 15 22
  21753596.258      555350.090 7    415869.352 8
  21083192.492    -2424594.824 7  -1721574.509 8
  22844071.969     -883592.056 6   -612075.650 5
  22145032.898      299005.360 6    207993.398 6
  22278513.445    -1056247.741 6   -730930.365 6
 95  2 19 16 12 30.0000000  0  5 25 14 29 15 22
  21758681.359      582082.320 7    436699.640 8
  21063649.227    -2527287.087 7  -1801594.460 8
  22825372.328     -981854.242 6   -688643.582 6
  22151629.703      333663.300 6    234999.549 6
  22256429.008    -1172319.178 6   -821375.610 6
 95  2 19 16 13  0.0000000  0  5 25 14 29 15 22
  21763802.289      608991.914 7    457668.132 8
  21044151.336    -2629741.934 7  -1881429.409 8
  22806673.539    -1080127.023 6   -765219.780 6
  22158275.664      368583.746 6    262210.229 6
  22234385.320    -1288155.165 6   -911637.383 6
 95  2 19 16 13 30.0000000  0  5 25 14 29 15 22
  21768956.109      636080.844 7    478776.362 8
  21024707.742    -2731939.060 7  -1961063.531 8
  22787971.047    -1178401.086 6   -841796.967 6
  22164975.680      403770.232 6    289628.240 6
  22212380.648    -1403762.663 6  -1001721.110 6
 95  2 19 16 14  0.0000000  0  5 25 14 29 15 22
  21774145.547      663340.729 7    500017.812 8
  21005305.156    -2833886.160 7  -2040502.840 8
  22769271.625    -1276674.072 6   -918373.281 6
  22171718.258      439217.982 6    317249.802 6
  22190424.836    -1519151.027 6  -1091634.088 6
 95  2 19 16 14 30.0000000  0  5 25 14 29 15 22
  21779362.930      690759.491 7    521383.058 8
  20985950.906    -2935589.202 7  -2119751.966 8
  22750571.352    -1374956.707 6   -994957.163 5
  22178511.500      474912.213 6    345063.451 6
  22168510.664    -1634330.529 6  -1181384.285 6
 95  2 19 16 15  0.0000000  0  5 25 14 29 15 22
  21784617.586      718362.985 7    542892.258 8
  20966652.766    -3037008.201 7  -2198779.754 8
  22731862.609    -1473238.083 6  -1071540.025 5
  22185353.289      510862.914 6    373076.938 6
  22146635.461    -1749263.945 6  -1270942.756 6
 95  2 19 16 15 30.0000000  0  5 25 14 29 15 22
  21789905.578      746156.774 7    564549.731 8
  20947409.461    -3138135.449 7  -2277580.208 8
  22713165.031    -1571521.372 6  -1148124.401 6
  22192241.930      547067.632 6    401288.364 6
  22124820.984    -1863911.901 6  -1360278.774 6
 95  2 19 16 16  0.0000000  0  5 25 14 29 15 22
  21795233.836      774165.768 7    586374.891 8
  20928222.250    -3238957.724 7  -2356143.016 8
  22694464.805    -1669794.447 6  -1224700.818 6
  22199185.086      583546.132 6    429713.131 6
  22103067.328    -1978222.091 6  -1449351.601 6
 95  2 19 16 16 30.0000000  0  5 25 14 29 15 22
  21800603.852      802380.236 7    608360.157 8
  20909094.969    -3339473.017 7  -2434466.640 8
  22675765.305    -1768071.663 6  -1301280.445 6
  22206172.992      620288.796 6    458343.748 6
  22081385.914    -2092189.333 6  -1538157.202 6
 95  2 19 16 17  0.0000000  0  5 25 14 29 15 22
  21806013.766      830803.924 7    630508.459 8
  20890027.297    -3439689.412 7  -2512557.332 9
  22657058.922    -1866354.444 6  -1377864.417 6
  22213219.547      657296.622 6    487180.973 6
  22059762.578    -2205804.544 6  -1626688.496 6
 95  2 19 16 17 30.0000000  0  5 25 14 29 15 22
  21811453.930      859397.269 7    652788.960 8
  20871003.508    -3539657.910 7  -2590454.881 9
  22638347.422    -1964672.751 6  -1454476.063 5
  22220306.484      694543.615 6    516204.546 6
  22038200.633    -2319110.958 6  -1714979.165 6
 95  2 19 16 18  0.0000000  0  5 25 14 29 15 22
  21816928.031      888171.104 7    675210.107 8
  20852027.945    -3639368.809 7  -2668151.690 9
  22619634.250    -2063015.266 6  -1531106.586 6
  22227435.656      732032.533 6    545416.654 6
  22016693.664    -2432144.276 6  -1803057.032 6
 95  2 19 16 18 30.0000000  0  5 25 14 29 15 22
  21822435.766      917113.119 7    697762.295 8
  20833101.977    -3738820.693 7  -2745646.668 9
  22600919.133    -2161375.487 6  -1607750.890 6
  22234615.633      769749.233 6    574806.239 6
  21995226.367    -2544935.623 6  -1890946.369 6
 95  2 19 16 18 59.9990000  0  5 25 14 29 15 22
  21827978.276      946237.649 7    720456.709 7
  20814230.409    -3837995.608 7  -2822925.833 8
  22582198.347    -2259741.055 6  -1684399.366 6
  22241842.237      807706.886 6    604383.582 6
  21973814.565    -2657461.405 6  -1978628.766 6
 95  2 19 16 19 29.9990000  0  5 25 14 29 15 22
  21833561.815      975579.399 7    743320.383 8
  20795417.464    -3936844.749 7  -2899951.146 9
  22563491.940    -2358077.240 6  -1761024.974 6
  22249115.237      845939.292 6    634175.021 6
  21952458.675    -2769692.900 6  -2066081.864 6
 95  2 19 16 19 59.9990000  0  5 25 14 29 15 22
  21839183.972     1005110.853 7    766331.877 8
  20776666.862    -4035380.581 7
  22544776.870    -2456405.614 6
  22256432.526      884409.200 6    664151.547 6
  21931156.409    -2881642.300 6  -2153315.130 6
 95  2 19 16 20 29.9990000  0  5 25 14 29 15 22
  21844832.956     1034793.042 7    789460.834 7
  20757972.987    -4133627.932 7  -3053288.712 9
  22526061.667    -2554758.127 6  -1914282.763 6
  22263796.190      923093.008 6    694294.728 6
  21909905.698    -2993294.872 6  -2240317.123 6
 95  2 19 16 20 59.9990000  0  5 25 14 29 15 22
  21850506.862     1064626.483 7    812707.638 8
  20739333.761    -4231574.934 7  -3129611.053 9
  22507340.534    -2653138.606 6  -1990942.888 6
  22271201.144      961996.511 6    724609.089 6
  21888727.980    -3104623.744 6  -2327066.874 6
 95  2 19 16 21 29.9990000  0  5 25 14 29 15 22
  21856211.972     1094605.000 7    836067.488 8
  20720753.026    -4329220.180 7  -3205698.251 9
  22488615.972    -2751535.203 6  -2067615.543 6
  22278645.964     1001116.071 6    755091.828 6
  21867598.433    -3215628.912 6  -2413564.391 6
 95  2 19 16 21 59.9990000  0  5 25 14 29 15 22
  21861948.878     1124745.140 7    859553.287 8
  20702231.886    -4426556.474 7  -3281544.722 9
  22469889.159    -2849936.669 6  -2144292.010 6
  22286131.776     1040465.599 6    785753.757 6
  21846537.792    -3326279.759 6  -2499785.827 6
 95  2 19 16 22 29.9990000  0  5 25 14 29 15 22
  21867714.175     1155064.701 7    883178.887 7
  20683769.761    -4523568.701 7  -3357138.669 8
  22451166.081    -2948323.285 6  -2220956.896 6
  22293665.308     1080057.955 6    816604.890 6
  21825557.698    -3436561.238 6  -2585719.442 6
 95  2 19 16 22 59.9990000  0  5 25 14 29 15 22
  21873532.659     1185627.893 7    906994.338 8
  20665382.331    -4620205.287 7  -3432439.911 8
  22432461.417    -3046632.520 6  -2297561.475 6
  22301253.354     1119940.133 6    847681.880 6
  21804646.440    -3546437.264 6  -2671337.107 6
 95  2 19 16 23 29.9990000  0  5 25 14 29 15 22
  21879385.972     1216385.509 7    930961.267 8
  20647053.128    -4716531.100 7  -3507498.984 9
  22413753.089    -3144921.541 6  -2374150.318 6
  22308888.370     1160048.377 6    878934.999 6
  21783805.245    -3655976.169 6  -2756692.078 7
 95  2 19 16 23 59.9990000  0  5 25 14 29 15 22
  21885274.737     1247336.777 7    955079.110 8
  20628779.308    -4812538.610 7  -3582310.035 9
  22395056.979    -3243196.985 6  -2450728.574 6
  22316561.683     1200377.782 6    910360.468 6
  21763024.776    -3765173.410 6  -2841780.829 7
 95  2 19 16 24 29.9990000  0  5 25 14 29 15 22
  21891205.933     1278490.272 7    979354.525 8
  20610578.425    -4908201.481 7  -3656852.530 9
  22376358.917    -3341439.759 6  -2527281.383 6
  22324281.323     1240941.318 6    941968.373 6
  21742308.503    -3874021.232 6  -2926597.308 7
 95  2 19 16 24 59.9990000  0  5 25 14 29 15 22
  21897165.956     1309817.958 7   1003765.682 8
  20592434.479    -5003534.071 7  -3731137.669 9
  22357665.136    -3439675.927 6  -2603829.038 6
  22332039.862     1281715.314 6    973740.269 6
  21721664.620    -3982529.401 6  -3011149.113 6
 95  2 19 16 25 29.9990000  0  5 25 14 29 15 22
  21903155.894     1341300.035 7   1028297.121 8
  20574361.237    -5098529.657 7  -3805160.205 9
  22338973.026    -3537909.626 6  -2680374.776 6
  22339841.362     1322692.390 6   1005670.403 6
  21701079.776    -4090695.240 6  -3095434.162 6
 95  2 19 16 25 59.9990000  0  5 25 14 29 15 22
  21909178.511     1372935.123 7   1052947.795 8
  20556347.362    -5193170.391 7  -3878906.236 9
  22320282.651    -3636125.055 6  -2756906.252 6
  22347676.206     1363883.392 6   1037767.253 6
  21680566.636    -4198501.392 6  -3179438.941 7
 95  2 19 16 26 29.9990000  0  5 25 14 29 15 22
  21915225.933     1404721.467 7   1077716.342 7
  20538408.753    -5287462.324 7  -3952380.465 9
  22301595.089    -3734317.867 6  -2833420.133 6
  22355553.026     1405285.830 6   1070028.832 6
  21660116.362    -4305946.211 6  -3263162.161 7
 95  2 19 16 26 59.9990000  0  5 25 14 29 15 22
  21921302.370     1436653.156 7   1102598.141 7
  20520525.308    -5381420.082 7  -4025594.311 8
  22282912.558    -3832503.181 6  -2909928.164 6
  22363472.472     1446890.737 6   1102448.195 6
  21639743.214    -4413035.778 6  -3346608.557 7
 95  2 19 16 27 29.9990000  0  5 25 14 29 15 22
  21927408.737     1468748.247 7   1127607.269 7
  20502714.456    -5475023.519 7  -4098532.058 8
  22264234.550    -3930657.317 6  -2986411.894 6
  22371432.206     1488712.860 6   1135036.809 6
  21619431.737    -4519747.751 6  -3429760.723 7
 95  2 19 16 27 59.9990000  0  5 25 14 29 15 22
  21933549.847     1501027.177 7   1152759.640 7
  20484970.597    -5568265.054 7  -4171187.799 8
  22245560.917    -4028774.372 6  -3062866.736 6
  22379434.019     1530760.379 6   1167801.068 6
  21599206.073    -4626054.225 6  -3512596.925 7
 95  2 19 16 28 29.9990000  0  5 25 14 29 15 22
  21939728.698     1533491.016 7   1178056.102 7
  20467295.394    -5661152.951 7  -4243567.980 9
  22226901.753    -4126861.054 6  -3139297.927 6
  22387474.769     1573021.350 6   1200731.649 6
  21579050.026    -4731951.494 6  -3595114.268 7
 95  2 19 16 28 59.9990000  0  5 25 14 29 15 22
  21945934.542     1566101.475 7   1203466.822 7
  20449682.175    -5753712.204 7  -4315692.072 9
  22208230.886    -4224945.512 6  -3215727.362 6
  22395550.847     1615459.578 6   1233800.355 6
  21558973.612    -4837474.175 6  -3677339.723 7
 95  2 19 16 29 29.9990000  0  5 25 14 29 15 22
  21952178.339     1598894.902 7   1229020.103 7
  20432144.097    -5845885.489 7  -4387515.415 9
  22189576.589    -4322986.013 6  -3292122.556 6
  22403666.479     1658111.462 6   1267035.546 6
  21538970.097    -4942576.022 6  -3759237.247 7
 95  2 19 16 29 59.9990000  0  5 25 14 29 15 22
  21958455.222     1631880.874 7   1254723.422 7
  20414679.347    -5937652.067 7  -4459021.842 9
  22170929.776    -4420981.890 6  -3368482.971 6
  22411828.151     1700989.540 6   1300446.981 6
  21519050.292    -5047256.609 6  -3840806.528 7
 95  2 19 16 30 29.9990000  0  5 25 14 29 15 22
  21964758.144     1665009.749 7   1280538.094 7
  20397289.214    -6029034.859 7  -4530229.220 9
  22152283.378    -4518960.935 6  -3444830.281 6
  22420023.542     1744061.755 6   1334009.709 6
  21499204.940    -5151567.726 7  -3922087.908 7
 95  2 19 16 30 59.9990000  0  5 25 14 29 15 22
  21971091.761     1698288.131 7   1306469.264 7
  20379975.253    -6120018.722 7  -4601125.742 8
  22133645.753    -4616915.349 6  -3521158.397 6
  22428258.284     1787338.829 6   1367732.042 6
  21479420.987    -5255506.542 6  -4003079.182 7
 95  2 19 16 31 29.9990000  0  5 25 14 29 15 22
  21977455.581     1731738.322 7   1332534.303 7
  20362736.761    -6210594.433 7  -4671704.226 9
  22115011.534    -4714843.775 6  -3597466.256 6
  22436534.964     1830827.007 6   1401618.885 6
  21459721.276    -5359055.227 7  -4083766.455 7
 95  2 19 16 31 59.9990000  0  5 25 14 29 15 22
  21983856.698     1765374.380 7   1358744.182 7
  20345582.854    -6300762.013 7  -4741964.679 9
  22096388.620    -4812718.576 6  -3673732.329 6
  22444854.589     1874534.883 6   1435676.913 6
  21440090.292    -5462199.655 7  -4164138.729 7
 95  2 19 16 32 29.9990000  0  5 25 14 29 15 22
  21990294.370     1799207.631 7   1385107.726 7
  20328495.878    -6390540.676 7  -4811922.085 9
  22077772.120    -4910530.261 6  -3749949.230 6
  22453207.737     1918452.498 6   1469898.376 6
  21420544.534    -5564924.314 7  -4244183.914 7
 95  2 19 16 32 59.9990000  0  5 25 14 29 15 22
  21996770.714     1833252.356 7   1411636.044 7
  20311487.222    -6479936.088 7  -4881580.848 9
  22059167.042    -5008278.835 6  -3826116.940 6
  22461603.800     1962571.350 6   1504276.637 5
  21401081.917    -5667206.782 7  -4323884.529 7
 95  2 19 16 33 29.9990000  0  5 25 14 29 15 22
  22003290.550     1867508.117 7   1438328.792 7
  20294554.089    -6568919.570 7  -4950918.645 9
  22040586.214    -5105948.504 6  -3902223.174 6
  22470039.745     2006901.682 6   1538819.699 5
  21381702.175    -5769013.430 7  -4403214.372 7
 95  2 19 16 33 59.9990000  0  5 25 14 29 15 22
  22009844.386     1901942.102 7   1465160.437 7
  20277697.190    -6657495.600 7  -5019938.940 9
  22022015.479    -5203552.270 6  -3978278.054 6
  22478512.347     2051429.120 6   1573516.342 5
  21362422.394    -5870356.296 7  -4482182.826 7
 95  2 19 16 34 29.9990000  0  5 25 14 29 15 22
  22016427.339     1936538.903 7   1492118.942 7
  20260919.714    -6745650.871 7  -5088631.369 9
  22003449.995    -5301108.384 6  -4054295.794 6
  22487024.011     2096148.746 6   1608362.737 5
  21343227.042    -5971230.443 7  -4560786.038 7
 95  2 19 16 34 59.9990000  0  5 25 14 29 15 22
  22023033.425     1971254.288 7   1519169.847 7
  20244231.542    -6833367.539 7  -5156982.026 9
  21984882.823    -5398642.038 6  -4130296.046 6
  22495568.339     2141049.946 6   1643350.613 6
  21324116.542    -6071655.877 7  -4639039.619 7
 95  2 19 16 35 29.9990000  0  5 25 14 29 15 22
  22029665.026     2006097.588 7   1546320.431 7
  20227629.104    -6920615.040 7  -5224967.105 9
  21966337.151    -5496149.318 6  -4206275.720 6
  22504152.636     2186153.284 5   1678495.997 5
  21305090.011    -6171628.525 7  -4716940.380 7
 95  2 19 16 35 59.9990000  0  6 25 18 14 29 15 22
  22036320.073     2041074.486 7   1573575.094 7
  24337846.745          -0.66213
  20211107.378    -7007415.401 7  -5292603.754 9
  21947783.534    -5593630.768 6  -4282235.308 6
  22512767.417     2231449.802 5   1713791.916 5
  21286152.292    -6271172.376 7  -4794506.990 7
 95  2 19 16 36 29.9980000  0  6 25 18 14 29 15 22
  22043006.967     2076208.445 7   1600952.162 7
  24314414.709     -123080.657 2
  20194679.295    -7093752.799 7  -5359879.664 9
  21929238.998    -5691057.884 6  -4358152.525 6
  22521426.514     2276954.698 5   1749250.214 5
  21267297.787    -6370253.399 7  -4871712.966 7
 95  2 19 16 36 59.9980000  0  6 25 18 14 29 15 22
  22049716.154     2111476.586 7   1628433.775 7
  24290990.936     -246180.456 2        -0.36911
  20178328.357    -7179688.305 7  -5426842.403 9
  21910707.318    -5788468.102 7  -4434056.585 6
  22530123.201     2322628.249 5   1784839.914 5
  21248521.092    -6468905.912 7  -4948585.031 7
 95  2 19 16 37 29.9980000  0  6 25 18 14 29 15 22
  22056463.092     2146922.955 7   1656054.274 7
  24267569.975     -369279.710 3    -95921.795 1
  20162056.842    -7265212.278 7  -5493484.474 9
  21892182.857    -5885807.517 6  -4509905.476 6
  22538847.100     2368486.688 5   1820573.710 5
  21229834.693    -6567083.288 7  -5025086.865 7
 95  2 19 16 37 59.9980000  0  6 25 18 14 29 15 22
  22063243.537     2182544.132 7   1683811.001 7
  24244150.795     -492380.203 3
  20145853.482    -7350337.936 7  -5559816.163 9
  21873679.576    -5983056.620 6  -4585683.983 6
  22547602.397     2414520.437 5   1856444.089 5
  21211251.053    -6664764.069 7  -5101201.732 7
 95  2 19 16 38 29.9980000  0  6 25 18 14 29 15 22
  22070059.186     2218357.553 7   1711717.506 7
  24220728.959     -615473.971 4
  20129736.857    -7435037.316 7  -5625815.699 8
  21855187.857    -6080214.917 6  -4661391.758 6
  22556402.959     2460741.893 5   1892460.741 5
  21192768.365    -6761904.585 7  -5176895.627 7
 95  2 19 16 38 59.9980000  0  6 25 18 14 29 15 22
  22076908.771     2254363.827 6   1739774.281 7
  24197299.811     -738575.473 3        -0.31611
  20113704.131    -7519297.636 7  -5691473.101 9
  21836716.178    -6177282.071 6  -4737028.479 6
  22565238.537     2507144.175 5   1928618.287 5
  21174382.311    -6858522.158 7  -5252182.019 7
 95  2 19 16 39 29.9980000  0  6 25 18 14 29 15 22
  22083792.436     2290540.842 6   1767964.101 7
  24173866.068     -861723.271 2    -95959.641 1
  20097749.678    -7603123.217 7  -5756791.742 9
  21818259.357    -6274274.938 6  -4812607.336 6
  22574096.928     2553711.066 5   1964904.078 5
  21156088.232    -6954655.696 7  -5327091.239 7
 95  2 19 16 39 59.9980000  0  6 25 18 14 29 15 22
  22090713.404     2326909.029 7   1796302.898 7
  24150426.646     -984888.886 1   -191932.853 1
  20081883.967    -7686487.907 7  -5821751.261 9
  21799819.303    -6371187.624 6  -4888123.707 7
  22582990.131     2600463.574 5   2001334.549 5
  21137886.982    -7050299.707 7  -5401619.015 7
 95  2 19 16 40 29.9980000  0  5 25 14 29 15 22
  22097667.654     2363453.988 7   1824779.428 7
  20066112.201    -7769385.200 7  -5886346.555 9
  21781389.303    -6468035.147 6  -4963589.308 6
  22591920.943     2647393.392 5   2037903.180 5
  21119778.639    -7145473.764 7  -5475780.589 7
 95  2 19 16 40 59.9980000  0  5 25 14 29 15 22
  22104654.186     2400166.412 7   1853386.455 7
  20050427.912    -7851813.465 7  -5950576.375 9
  21762975.217    -6564792.666 6  -5038984.783 7
  22600889.826     2694506.101 5   2074614.301 5
  21101748.686    -7240193.218 7  -5549587.932 7
 95  2 19 16 41 29.9980000  0  6 25 18 14 29 15 22
  22111670.006     2437033.425 7   1882113.939 6
  24080111.506          -0.18212
  20034830.209    -7933774.329 7  -6014441.999 9
  21744580.803    -6661469.904 6  -5114317.692 7
  22609889.053     2741793.027 5   2111461.168 5
  21083814.061    -7334444.223 7  -5623030.257 7
 95  2 19 16 41 59.9980000  0  6 25 18 14 29 15 22
  22118713.271     2474042.654 7   1910952.252 6
  24056672.342     -123143.472 2
  20019324.959    -8015256.655 7  -6077934.732 8
  21726198.592    -6758075.907 6  -5189595.099 7
  22618918.600     2789246.829 5   2148438.084 5
  21065973.920    -7428201.136 7  -5696087.557 7
 95  2 19 16 42 29.9980000  0  6 25 18 14 29 15 22
  22125779.443     2511175.356 7   1939886.764 7
  24033243.857     -246269.920 3        -0.39112
  20003914.529    -8096245.526 7  -6141042.951 8
  21707827.365    -6854612.589 6  -5264818.493 7
  22627976.896     2836860.786 5   2185539.818 5
  21048227.936    -7521463.519 7  -5768759.527 7
 95  2 19 16 42 59.9980000  0  6 25 18 14 29 15 22
  22132869.311     2548445.590 6   1968928.444 7
  24009823.123     -369381.521 3    -95931.477 3
  19988598.217    -8176729.365 7  -6203757.633 9
  21689472.959    -6951069.559 6  -5339979.757 7
  22637071.795     2884642.058 5   2222771.891 6
  21030572.850    -7614221.626 7  -5841038.547 7
 95  2 19 16 43 29.9980000  0  6 25 18 14 29 15 22
  22139993.154     2585860.049 6   1998082.505 6
  23986398.045     -492490.653 4   -191860.716 3
  19973380.373    -8256707.345 7  -6266078.151 8
  21671129.443    -7047452.987 6  -5415083.733 7
  22646195.342     2932584.548 5   2260129.584 5
  21013022.857    -7706457.118 7  -5912910.340 7
 95  2 19 16 43 59.9980000  0  6 25 18 14 29 15 22
  22147138.740     2623424.441 6   2027353.396 6
  23962964.873     -615585.538 4   -287778.739 1
  19958252.896    -8336196.633 7  -6328017.865 9
  21652804.631    -7143755.827 6  -5490124.904 7
  22655345.217     2980686.938 5   2297611.871 5
  20995568.928    -7798175.675 7  -5984379.342 7
 95  2 19 16 44 29.9980000  0  6 25 18 14 29 15 22
  22154322.428     2661164.246 6   2056760.991 6
  23939552.959     -738650.531 5   -383673.571 1
  19943220.678    -8415193.264 7  -6389573.694 8
  21634500.600    -7239951.860 6  -5565082.859 7
  22664536.014     3028963.516 5   2335229.909 5
  20978214.334    -7889368.635 7  -6055438.779 7
 95  2 19 16 44 59.9980000  0  6 25 18 14 29 15 22
  22161533.115     2699080.222 6   2086305.848 6
  23916138.490     -861703.366 5   -479558.922 2
  19928273.451    -8493739.149 7  -6450778.290 8
  21616207.982    -7336060.102 7  -5639972.391 7
  22673747.850     3077387.332 5   2372962.669 5
  20960962.623    -7980033.587 7  -6126086.774 7
 95  2 19 16 45 29.9980000  0  6 25 18 14 29 15 22
  22168785.779     2737176.045 6   2115990.850 6
  23892719.881     -984741.073 4   -575432.407 1
  19913408.615    -8571839.362 7  -6511635.610 8
  21597940.568    -7432081.264 6  -5714794.081 7
  22682989.139     3125957.027 5   2410809.107 5
  20943816.904    -8070159.213 7  -6196314.525 8
 95  2 19 16 45 59.9980000  0  6 25 18 14 29 15 22
  22176066.873     2775451.276 6   2145815.638 6
  23869313.600    -1107752.365 5   -671285.327 2
  19898635.100    -8649467.455 7  -6572125.043 8
  21579683.271    -7528010.011 6  -5789543.755 7
  22692264.107     3174681.536 5   2448776.174 5
  20926768.686    -8159739.904 7  -6266117.659 8
 95  2 19 16 46 29.9980000  0  6 25 18 14 29 15 22
  22183382.521     2813884.231 6   2175763.329 6
  23845904.982    -1230759.698 5   -767135.182 1
  19883958.225    -8726610.215 7  -6632236.291 8
  21561445.506    -7623860.400 7  -5864232.372 7
  22701563.295     3223552.042 5   2486856.992 5
  20909821.029    -8248779.089 7  -6335498.836 8
 95  2 19 16 46 59.9980000  0  6 25 18 14 29 15 22
  22190724.928     2852471.576 6   2205831.333 6
  23822499.084    -1353765.770 5   -862984.094 1
  19869378.279    -8803240.203 7  -6691947.988 8
  21543215.248    -7719626.288 6  -5938855.144 7
  22710894.420     3272574.312 5   2525056.108 5
  20892981.764    -8337276.747 7  -6404458.039 8
 95  2 19 16 47 29.9980000  0  6 25 18 14 29 15 22
  22198087.771     2891171.662 6   2235987.187 6
  23799087.959    -1476794.150 5   -958850.348 1
  19854891.490    -8879350.608 7  -6751254.798 8
  21525009.131    -7815313.190 6  -6013416.372 7
  22720246.725     3321733.278 5   2563361.714 5
  20876239.889    -8425265.394 7  -6473020.611 7
 95  2 19 16 47 59.9980000  0  6 25 18 14 29 15 22
  22205476.795     2929981.390 6   2266228.479 6
  23775669.803    -1599826.360 4  -1054719.623 1
  19840510.818    -8954922.933 7  -6810142.334 8
  21506820.803    -7910903.805 7  -6087902.562 6
  22729625.529     3371027.367 5   2601772.614 5
  20859594.342    -8512738.964 7  -6541181.821 7
 95  2 19 16 48 29.9980000  0  6 25 18 14 29 15 22
  22212886.850     2968940.769 6   2296586.362 6
  23752272.373    -1722826.694 4  -1150564.054 1
  19826240.342    -9029944.137 7  -6868600.425 8
  21488653.975    -8006362.214 7  -6162285.739 7
  22739038.748     3420477.731 5   2640305.274 4
  20843048.748    -8599668.835 7  -6608919.380 8
 95  2 19 16 48 59.9980000  0  6 25 18 14 29 15 22
  22220331.350     3008056.169 6   2327065.820 6
  23728868.303    -1845788.127 4
  19812057.904    -9104441.300 7  -6926650.176 8
  21470516.662    -8101698.455 7  -6236573.723 7
  22748476.107     3470067.235 5   2678946.381 4
  20826608.037    -8686054.777 7  -6676233.097 7
 95  2 19 16 49 29.9980000  0  6 25 18 14 29 15 22
  22227808.451     3047340.311 6   2357676.770 6
  23705478.029    -1968690.740 3
  19797978.928    -9178422.168 7  -6984297.628 8
  21452398.311    -8196905.408 7  -6310760.945 7
  22757935.334     3519802.725 5   2717701.221 4
  20810282.209    -8771866.539 7  -6743099.398 8
 95  2 19 16 49 59.9980000  0  6 25 18 14 29 15 22
  22235314.865     3086791.123 6   2388417.609 6
  23682109.521    -2091537.563 3
  19783999.248    -9251909.179 7  -7041560.231 8
  21434297.014    -8292011.617 7  -6384869.680 7
  22767427.170     3569672.573 5   2756560.774 5
  20794063.006    -8857110.457 7  -6809523.224 8
 95  2 19 16 50 29.9980000  0  6 25 18 14 29 15 22
  22242854.092     3126408.048 6   2419287.878 6
  23658737.147    -2214345.965 2        -0.02211
  19770102.014    -9324917.964 7  -7098450.209 8
  21416218.123    -8387038.608 7  -6458916.704 7
  22776943.232     3619672.517 5   2795521.673 5
  20777947.107    -8941790.215 7  -6875507.447 8
 95  2 19 16 50 59.9980000  0  6 25 18 14 29 15 22
  22250420.693     3166168.690 6   2450270.121 6
  23635366.584    -2337132.227 3    -95677.478 1
  19756306.381    -9397435.995 7  -7154957.780 8
  21398144.318    -8481994.790 7  -6532908.533 7
  22786480.889     3669800.585 5   2834582.469 4
  20761938.803    -9025910.535 7  -6941055.751 8
 95  2 19 16 51 29.9980000  0  6 25 18 14 29 15 22
  22258009.561     3206059.123 6   2481353.495 6
  23612008.248    -2459912.880 4   -191350.627 2
  19742600.326    -9469450.345 7  -7211072.877 8
  21380086.920    -8576876.901 7  -6606842.639 7
  22796048.389     3720052.896 5   2873739.983 4
  20746037.990    -9109479.891 7  -7006174.731 8
 95  2 19 16 51 59.9980000  0  6 25 18 14 29 15 22
  22265626.811     3246078.749 6   2512537.535 6
  23588644.584    -2582695.547 4   -287025.396 2
  19728997.568    -9540947.764 7  -7266785.159 8
  21362045.740    -8671682.756 7  -6680717.335 7
  22805630.287     3770424.406 5   2912990.420 5
  20730237.303    -9192501.242 7  -7070866.687 7
 95  2 19 16 52 29.9980000  0  6 25 18 14 29 15 22
  22273266.076     3286221.560 6   2543817.560 6
  23565269.561    -2705490.148 3   -382709.481 2
  19715486.545    -9611917.297 7  -7322086.113 8
  21344026.631    -8766401.511 7  -6754524.157 7
  22815236.975     3820909.591 5   2952329.387 5
  20714547.225    -9274962.580 7  -7135122.274 8
 95  2 19 16 52 59.9980000  0  6 25 18 14 29 15 22
  22280927.529     3326486.215 6   2575192.555 6
  23541907.545    -2828281.536 2   -478391.104 2
  19702089.826    -9682347.466 7  -7376966.783 8
  21326018.350    -8861014.840 7  -6828248.839 7
  22824868.951     3871511.189 5   2991759.107 5
  20698963.545    -9356852.363 7  -7198932.491 8
 95  2 19 16 53 29.9980000  0  6 25 18 14 29 15 22
  22288617.397     3366886.344 6   2606673.104 6
  23518542.857    -2951054.763 3   -574058.544 2
  19688783.318    -9752247.507 7  -7431434.357 8
  21308037.631    -8955521.282 7  -6901890.228 7
  22834517.006     3922225.251 5   3031276.458 5
  20683493.154    -9438157.605 7  -7262287.235 7
 95  2 19 16 53 59.9970000  0  6 25 18 14 29 15 22
  22296325.306     3407398.718 6   2638241.116 6
  23495188.454    -3073808.980 3   -669711.158 3
  19675581.634    -9821629.365 7  -7485498.158 8
  21290072.204    -9049940.559 7  -6975463.693 7
  22844185.048     3973027.392 5   3070862.448 5
  20668124.157    -9518897.093 7  -7325201.122 7
 95  2 19 16 54 29.9970000  0  6 25 18 14 29 15 22
  22304055.267     3448020.389 6   2669894.313 6
  23471830.579    -3196548.131 4   -765352.015 3
  19662479.501    -9890505.434 7  -7539167.835 8
  21272116.024    -9144280.786 6  -7048975.563 7
  22853869.845     4023912.810 5   3110513.306 4
  20652866.501    -9599084.560 7  -7387684.862 8
 95  2 19 16 54 59.9970000  0  6 25 18 14 29 15 22
  22311812.157     3488762.877 6   2701641.641 6
  23448481.509    -3319248.757 5   -860962.854 2
  19649469.868    -9958853.587 7  -7592426.155 8
  21254180.001    -9238527.277 7  -7122414.371 7
  22863566.696     4074890.426 5   3150236.030 5
  20637720.017    -9678707.810 7  -7449728.947 8
 95  2 19 16 55 29.9970000  0  6 25 18 14 29 15 22
  22319585.993     3529632.376 6   2733487.929 6
  23425134.970    -3441919.868 5   -956550.717 3
  19636568.774   -10026663.154 7  -7645264.783 8
  21236262.642    -9332676.893 7  -7195777.704 7
  22873291.212     4125959.248 5   3190029.843 5
  20622671.563    -9757770.540 7  -7511336.268 8
 95  2 19 16 55 59.9970000  0  6 25 18 14 29 15 22
  22327384.290     3570605.149 6   2765414.695 6
  23401792.579    -3564585.203 5  -1052134.040 2
  19623766.290   -10093940.089 7  -7697688.377 8
  21218368.970    -9426731.778 7  -7269067.235 7
  22883022.134     4177107.737 5   3229885.700 5
  20607730.165    -9836286.775 7  -7572517.751 7
 95  2 19 16 56 29.9970000  0  6 25 18 14 29 15 22
  22335196.110     3611683.125 6   2797423.443 6
  23378449.134    -3687257.164 5  -1147722.542 4
  19611063.032   -10160684.798 7  -7749697.253 8
  21200489.798    -9520677.981 7  -7342272.071 7
  22892767.228     4228341.686 5   3269808.128 4
  20592894.985    -9914243.472 7  -7633263.220 8
 95  2 19 16 56 59.9970000  0  6 25 18 14 29 15 22
  22343031.884     3652848.542 6   2829500.339 6
  23355101.181    -3809939.815 5  -1243319.408 3
  19598461.243   -10226907.137 7  -7801299.083 8
  21182628.118    -9614522.471 7  -7415397.634 7
  22902537.228     4279652.020 5   3309790.129 5
  20578168.438    -9991642.598 7  -7693574.237 8
 95  2 19 16 57 29.9970000  0  6 25 18 14 29 15 22
  22350887.173     3694118.014 6   2861658.311 6
  23331759.931    -3932616.703 5  -1338911.761 2
  19585959.829   -10292612.941 7  -7852498.420 8
  21164794.813    -9708253.900 7  -7488435.111 7
  22912312.853     4331045.741 5   3349837.093 5
  20563546.392   -10068473.220 7  -7753442.252 8
 95  2 19 16 57 59.9970000  0  6 25 18 14 29 15 22
  22358758.392     3735477.657 6   2893886.541 6
  23308419.313    -4055277.022 4  -1434491.164 2
  19573554.688   -10357809.378 7  -7903300.854 8
  21146976.376    -9801897.345 6  -7561404.016 7
  22922112.251     4382510.934 5   3389939.730 5
  20549032.556   -10144736.607 7  -7812868.260 7
 95  2 19 16 58 29.9970000  0  6 25 18 14 29 15 22
  22366643.860     3776930.359 6   2926187.285 6
  23285082.524    -4177894.507 4  -1530037.243 2
  19561244.853   -10422484.181 7  -7953696.818 8
  21129171.282    -9895459.601 7  -7634309.680 7
  22931917.829     4434045.114 5   3430096.130 5
  20534633.728   -10220417.517 7  -7871840.393 8
 95  2 19 16 58 59.9970000  0  6 25 18 14 29 15 22
  22374555.298     3818482.412 6   2958565.447 5
  23261761.759    -4300455.152 5  -1625539.035 1
  19549033.063   -10486635.236 7  -8003684.661 8
  21111378.024    -9988957.034 7  -7707164.814 7
  22941728.353     4485637.996 5   3470298.266 5
  20520342.556   -10295517.733 7  -7930360.039 8
 95  2 19 16 59 29.9970000  0  6 25 18 14 29 15 22
  22382481.860     3860146.112 6   2991030.606 6
  23238446.501    -4422955.770 4  -1720994.055 3
  19536933.181   -10550238.007 7  -8053245.272 8
  21093601.993   -10082385.199 7  -7779965.983 7
  22951560.954     4537295.028 5   3510550.441 5
  20506165.056   -10370033.280 7  -7988424.102 8
 95  2 19 16 59 59.9970000  0  6 25 18 14 29 15 22
  22390426.524     3901913.502 6   3023576.552 5
  23215150.642    -4545400.028 5  -1816405.130 4
  19524935.149   -10613275.352 7  -8102365.295 8
  21075837.431   -10175728.434 7  -7852700.971 7
  22961405.587     4589018.828 5   3550854.603 3
  20492096.509   -10443956.341 7  -8046026.488 8
 95  2 19 17  0 29.9970000  0  6 25 18 14 29 15 22
  22398397.149     3943787.711 6   3056205.735 5
  23191859.993    -4667816.832 5  -1911794.850 4
  19513045.157   -10675754.084 7  -8151050.041 8
  21058098.126   -10268963.912 7  -7925351.992 7
  22971254.907     4640804.483 5   3591206.960 3
  20478141.946   -10517290.348 7  -8103169.862 8
 95  2 19 17  0 59.9970000  0  6 25 18 14 29 15 22
  22406383.384     3985764.425 6   3088914.799 5
  23168558.001    -4790249.274 5  -2007196.720 3
  19501257.079   -10737697.676 7  -8199317.786 8
  21040371.087   -10362103.262 7  -7997928.107 7
  22981118.501     4692634.321 4   3631593.784 3
  20464291.681   -10590072.576 7  -8159883.276 8
 95  2 19 17  1 29.9970000  0  6 25 18 14 29 15 22
  22414385.626     4027814.133 6   3121680.746 6
  23145249.860    -4912725.914 4  -2102633.024 2
  19489571.282   -10799118.927 7  -8247178.516 8
  21022667.017   -10455143.828 7  -8070427.253 7
  22990991.392     4744496.456 4   3672005.729 3
  20450547.431   -10662306.202 7  -8216169.227 8
 95  2 19 17  1 59.9970000  0  6 25 18 14 29 15 22
  22422401.595     4069949.667 6   3154513.559 6
  23121939.524    -5035235.574 4  -2198095.078 3
  19477984.493   -10860007.362 7  -8294624.058 8
  21004985.642   -10548061.704 7  -8142830.792 7
  23000866.118     4796400.399 3   3712450.258 4
  20436910.251   -10733957.517 7  -8272001.407 8
 95  2 19 17  2 29.9970000  0  6 25 18 14 29 15 22
  22430439.556     4112161.773 6   3187406.282 6
  23098613.040    -5157786.209 3
  19466499.439          -0.69817
  20987321.298          -0.36617
  23010748.915     4848325.769 3   3752911.247 2
  20423384.368          -0.98917
 95  2 19 17  2 59.9970000  0  6 25 18 14 29 15 22
  22438479.962     4154431.236 6   3220343.488 6
  23075289.649    -5280368.067 3
  19455106.462      -59854.945 7        -0.24218
  20969672.446      -92753.005 7        -0.42617
  23020627.048     4900259.647 3   3793379.162 4
  20409963.899      -70521.090 7        -0.40018
 95  2 19 17  3 29.9970000  0  6 25 18 14 29 15 22
  22446538.618     4196782.975 6   3253344.785 6
  23051963.579    -5402928.388 3
  19443827.407     -119153.808 7    -46207.156 8
  20952045.688     -185389.748 7    -72184.907 7
  23030527.384     4952232.096 4   3833877.101 5
  20396658.532     -140419.211 7    -54466.458 8
 95  2 19 17  3 59.9970000  0  6 25 18 14 29 15 22
  22454623.040     4239243.594 6   3286430.916 5
  23028661.798    -5525440.859 3        -0.08112
  19432648.735     -177893.000 7    -91977.970 7
  20934438.079     -277904.834 7   -144274.582 7
  23040421.431     5004249.645 3   3874410.171 3
  20383476.587     -209692.926 7   -108445.977 8
 95  2 19 17  4 29.9970000  0  6 25 18 14 29 15 22
  22462719.884     4281790.906 6   3319584.601 6
  23005342.079    -5647921.370 4    -95439.405 3
  19421571.228     -236100.655 7   -137334.595 8
  20916851.407     -370325.609 7   -216290.777 7
  23050323.728     5056293.483 3   3914963.709 4
  20370408.751     -278374.702 7   -161964.239 8
 95  2 19 17  4 59.9970000  0  6 25 18 14 29 15 22
  22470826.603     4324410.923 6   3352794.919 6
  22982040.642    -5770373.150 4   -190856.376 3
  19410595.306     -293775.970 7   -182276.403 8
  20899283.970     -462638.330 7   -288222.771 8
  23060234.813     5108361.405 4   3955536.014 5
  20357451.962     -346462.677 7   -215019.794 8
 95  2 19 17  5 29.9970000  0  6 25 18 14 29 15 22
  22478953.009     4367105.863 6   3386063.635 6
  22958750.470    -5892803.260 5   -286256.429 3
  19399718.126     -350919.053 7   -226803.497 8
  20881741.063     -554838.424 7   -360066.994 8
  23070150.009     5160450.371 5   3996124.674 5
  20344609.220     -413974.923 7   -267626.735 8
 95  2 19 17  5 59.9970000  0  6 25 18 14 29 15 22
  22487088.993     4409855.358 5   3419374.859 6
  22935450.720    -6015232.349 5   -381655.697 3
  19388946.126     -407543.968 7   -270926.820 8
  20864210.782     -646956.293 7   -431847.163 8
  23080062.735     5212541.773 5   4036715.260 5
  20331862.064     -480936.075 7   -319804.247 8
 95  2 19 17  6 29.9970000  0  6 25 18 14 29 15 22
  22495233.392     4452654.959 6   3452725.140 6
  22912156.548    -6137660.929 5   -477054.578 2
  19378275.774     -463628.293 7   -314628.900 8
  20846698.110     -738982.036 7   -503555.524 8
  23089968.478     5264639.273 4   4077310.645 5
  20319223.571     -547336.403 7   -371544.763 8
 95  2 19 17  6 59.9970000  0  6 25 18 14 29 15 22
  22503387.267     4495531.966 6   3486135.726 6
  22888862.657    -6260063.779 5   -572433.394 4
  19367706.118     -519144.317 7   -357888.151 8
  20829206.587     -830898.548 7   -575178.791 8
  23099890.517     5316756.394 5   4117921.265 5
  20306706.493     -613149.014 7   -422827.314 8
 95  2 19 17  7 29.9970000  0  6 25 18 14 29 15 22
  22511565.282     4538480.136 6   3519601.766 6
  22865569.790    -6382451.023 5   -667800.039 2
  19357249.376     -574109.504 7   -400718.183 7
  20811729.860     -922744.344 7   -646746.947 8
  23109805.759     5368873.541 5   4158531.903 5
  20294291.790     -678374.126 7   -473652.076 8
 95  2 19 17  7 59.9970000  0  6 25 18 14 29 15 22
  22519749.564     4581495.618 6   3553120.260 6
  22842284.673    -6504822.694 5   -763154.556 1
  19346896.040     -628518.119 7   -443114.512 8
  20794265.485    -1014522.637 7   -718262.497 8
  23119725.235     5420990.434 5   4199142.364 5
  20281994.001     -742985.441 7   -523998.551 8
 95  2 19 17  8 29.9970000  0  7 25 18 14 29 15 22 19
  22527947.813     4624573.792 6   3586687.604 6
  22819000.063    -6627182.374 5   -858499.758 4
  19336645.118     -682374.319 7   -485080.399 7
  20776814.040    -1106232.404 7   -789724.651 8
  23129639.196     5473101.868 4   4239748.592 3
  20269817.126     -806983.108 7   -573866.859 8
  23760241.446          -0.62515
 95  2 19 17  8 59.9970000  0  7 25 18 14 29 15 22 19
  22536157.657     4667713.223 6   3620302.675 5
  22795713.571    -6749519.782 5   -953827.515 2
  19326508.571     -735672.245 7   -526611.263 7
  20759373.517    -1197872.225 7   -861132.304 8
  23139558.165     5525213.167 5   4280354.676 4
  20257756.071     -870367.922 7   -623257.617 8
  23734515.040     -135203.151 5
 95  2 19 17  9 29.9970000  0  7 25 18 14 29 15 22 19
  22544374.774     4710901.570 6   3653955.891 5
  22772438.767    -6871851.309 5  -1049150.766 1
  19316466.782     -788408.915 7   -567704.792 8
  20741953.587    -1289429.884 7   -932475.928 8
  23149472.360     5577321.432 5   4320958.440 5
  20245812.298     -933146.628 7   -672176.091 8
  23708805.688     -270271.417 4        -0.35312
 95  2 19 17  9 59.9970000  0  7 25 18 14 29 15 22 19
  22552602.001     4754135.049 6   3687644.269 5
  22749159.485    -6994188.164 5  -1144478.177 3
  19306541.290     -840591.143 7   -608366.276 8
  20724548.220    -1380889.137 7  -1003742.867 8
  23159384.399     5629418.761 5   4361553.607 5
  20233971.329     -995344.106 7   -720641.651 8
  23683126.720     -405218.584 4   -105153.974 1
 95  2 19 17 10 29.9970000  0  7 25 18 14 29 15 22 19
  22560839.329     4797420.042 6   3721372.776 5
  22725886.079    -7116512.200 5  -1239795.547 5
  19296713.056     -892216.209 7   -648593.611 8
  20707165.501    -1472234.395 7  -1074920.990 8
  23169300.056     5681507.171 5   4402141.890 5
  20222249.681    -1056971.658 7   -768663.110 8
  23657470.853     -540019.813 3   -210193.858 1
 95  2 19 17 10 59.9970000  0  7 25 18 14 29 15 22 19
  22569084.485     4840757.299 6   3755142.009 5
  22702608.509    -7238817.258 5  -1335098.183 4
  19287001.798     -943283.548 7   -688386.356 7
  20689806.642    -1563455.040 7  -1146002.009 8
  23179206.954     5733584.404 4   4442721.423 4
  20210623.313    -1118026.154 7   -816238.039 8
  23631844.415     -674668.909 3   -315115.223 2
 95  2 19 17 11 29.9960000  0  7 25 18 14 29 15 22 19
  22577341.230     4884144.728 6   3788950.331 5
  22679339.418    -7361112.507 5  -1430393.172 4
  19277383.145     -993807.771 7   -727755.901 7
  20672470.621    -1654560.958 7  -1216993.630 8
  23189111.746     5785629.575 4   4483276.004 3
  20199119.871    -1178506.592 7   -863365.651 8
  23606251.637     -809167.837 3   -419919.666 1
 95  2 19 17 11 59.9960000  0  7 25 18 14 29 15 22 19
  22585615.418     4927614.176 6   3822822.583 5
  22656074.613    -7483358.841 5  -1525650.022 4
  19267877.801    -1043769.999 7   -766687.515 7
  20655156.535    -1745542.021 7  -1287887.959 8
  23199015.973     5837671.299 4   4523827.862 2
  20187721.754    -1238387.708 7   -910026.258 8
  23580696.191     -943477.353 3   -524576.314 1
 95  2 19 17 12 29.9960000  0  7 25 18 14 29 15 22 19
  22593898.231     4971139.948 5   3856738.730 5
  22632823.355    -7605565.756 5  -1620876.138 2
  19258476.035    -1093170.461 7   -805181.391 8
  20637862.738    -1836415.983 7  -1358698.831 8
  23208917.723     5889694.341 4   4564365.206 2
  20176446.316    -1297665.210 7   -956216.509 8
  23555174.441    -1077589.432 3   -629079.247 2
 95  2 19 17 12 59.9960000  0  7 25 18 14 29 15 22 19
  22602188.949     5014722.546 5   3890699.145 5
  22609572.816    -7727744.600 5  -1716080.435 4
  19249182.910    -1142005.669 7   -843234.823 8
  20620590.090    -1927195.057 7  -1429435.770 8
  23218811.840     5941697.260 3   4604886.861 1
  20165281.410    -1356324.601 7  -1001925.120 8
  23529688.309    -1211512.609 3   -733434.965 2
 95  2 19 17 13 29.9960000  0  7 25 18 14 29 15 22 19
  22610495.863     5058364.647 5   3924705.919 5
  22586323.121    -7849892.213 5  -1811260.359 4
  19240000.324    -1190268.607 7   -880842.324 7
  20603332.832    -2017886.291 7  -1500104.261 8
  23228703.098     5993679.722 4   4645392.569 2
  20154237.215    -1414355.003 7  -1047143.604 8
  23504249.012    -1345247.048 4   -837643.614 2
 95  2 19 17 13 59.9960000  0  7 25 18 14 29 15 22 19
  22618806.160     5102030.736 5   3958731.378 5
  22563084.816    -7972028.434 5  -1906431.452 4
  19230919.238    -1237977.398 7   -918018.014 7
  20586087.535    -2108501.038 7  -1570713.160 8
  23238592.113     6045622.379 4   4685867.250 2
  20143314.621    -1471773.803 7  -1091885.519 8
  23478833.121    -1478817.832 4   -941724.709 2
 95  2 19 17 14 29.9960000  0  7 25 18 14 29 15 22 19
  22627123.480     5145731.299 5   3992783.681 5
  22539844.152    -8094151.188 5  -2001592.032 4
  19221949.574    -1285106.032 7   -954741.641 7
  20568866.613    -2199014.819 7  -1641243.379 8
  23248466.223     6097534.101 3   4726317.775 2
  20132506.270    -1528569.970 7  -1136142.277 8
  23453433.363    -1612229.377 3  -1045681.696 2
 95  2 19 17 14 59.9960000  0  7 25 18 14 29 15 22 19
  22635440.340     5189474.990 5   4026869.605 4
  22516609.777    -8216250.784 5  -2096734.497 5
  19213095.637    -1331658.537 7   -991016.342 7
  20551658.699    -2289420.876 7  -1711689.659 8
  23258341.020     6149406.129 4   4766737.423 1
  20121809.277    -1584763.400 7  -1179929.351 8
  23428072.723    -1745481.955 2  -1149514.839 3
 95  2 19 17 15 29.9960000  0  7 25 18 14 29 15 22 19
  22643774.598     5233268.799 5   4060994.600 5
  22493381.574    -8338317.729 5  -2191851.571 3
  19204348.559    -1377630.265 7  -1026838.492 7
  20534481.059    -2379694.254 7  -1782032.551 8
  23268206.941     6201242.599 3   4807129.380 1
  20111229.238    -1640352.754 7  -1223245.723 8
  23402752.324    -1878564.026 3  -1253215.144 1
 95  2 19 17 15 59.9960000  0  7 25 18 14 29 15 22 19
  22652123.238     5277112.081 5   4095158.138 5
  22470154.949    -8460356.458 5  -2286946.648 2
  19195705.910    -1423024.268 7  -1062210.456 7
  20517331.480    -2469821.179 7  -1852261.322 8
  23278063.238     6253046.127 3   4847495.665 1
  20100772.363    -1695340.550 7  -1266093.352 8
  23377468.973    -2011465.600 3  -1356774.716 2
 95  2 19 17 16 29.9960000  0  7 25 18 14 29 15 22 19
  22660476.543     5321007.022 5   4129361.904 5
  22446938.770    -8582372.043 5  -2382023.694 4
  19187174.137    -1467848.154 7  -1097138.175 7
  20500207.730    -2559803.779 7  -1922377.626 8
  23287902.793     6304806.840 2   4887828.599 1
  20090419.785    -1749738.019 7  -1308480.991 8
  23352212.965    -2144190.356 3  -1460196.589 2
 95  2 19 17 16 59.9960000  0  7 25 18 14 29 15 22 19
  22668830.426     5364940.018 4   4163595.320 5
  22423719.027    -8704372.787 5  -2477089.200 5
  19178748.949    -1512132.278 7  -1131645.306 7
  20483109.832    -2649657.050 7  -1992393.165 8
  23297752.316     6356512.887 2   4928118.903 1
  20080179.465    -1803537.074 7  -1350402.325 8
  23326982.270    -2276746.950 4  -1563487.394 2
 95  2 19 17 17 29.9960000  0  7 25 18 14 29 15 22 19
  22677203.973     5408900.122 5   4197849.866 3
  22400508.895    -8826370.424 5  -2572152.225 4
  19170426.488    -1555880.199 7  -1165734.607 7
  20466033.285    -2739390.873 7  -2062315.628 8
  23307578.934     6408161.019 2   4968364.062 1
  20070056.504    -1856716.943 7  -1391841.183 8
  23301789.176    -2409155.374 3  -1666662.783 2
 95  2 19 17 17 59.9960000  0  6 25 18 14 29 22 19
  22685572.480     5452893.044 5   4232129.988 3
  22377293.566    -8948361.211 5  -2667209.957 3
  19162207.176    -1599083.436 7  -1199399.488 8
  20448978.574    -2829023.739 7  -2132159.418 8
  20060053.082    -1909290.446 7  -1432807.538 8
  23276615.324    -2541417.880 4  -1769724.373 1
 95  2 19 17 18 29.9960000  0  6 25 18 14 29 22 19
  22693956.246     5496939.345 5   4266451.723 2
  22354086.996    -9070316.484 5  -2762239.988 3
  19154092.801    -1641719.255 7  -1232622.222 7
  20431938.566    -2918545.822 7  -2201916.890 8
  20050166.145    -1961242.023 7  -1473289.290 9
  23251481.730    -2673519.382 4  -1872660.608 3
 95  2 19 17 18 59.9960000  0  6 25 18 14 29 22 19
  22702345.293     5541028.796 5   4300807.086 3
  22330886.738    -9192247.689 5  -2857251.283 3
  19146085.371    -1683793.325 7  -1265407.228 7
  20414921.520    -3007975.879 7  -2271602.650 8
  20040398.035    -2012575.625 7  -1513289.499 9
  23226361.754    -2805469.807 3  -1975479.042 2
 95  2 19 17 19 29.9960000  0  6 25 18 14 29 22 19
  22710742.965     5585182.115 5   4335212.180 4
  22307690.340    -9314131.183 5  -2952225.420 3
  19138195.238    -1725269.266 7  -1297726.155 8
  20397926.152    -3097290.568 7  -2341198.511 8
  20030747.715    -2063290.316 7  -1552807.443 9
  23201293.160    -2937249.294 3  -2078164.330 2
 95  2 19 17 19 59.9960000  0  6 25 18 14 29 22 19
  22719161.871     5629407.505 5   4369673.463 4
  22284509.496    -9435942.243 5  -3047143.071 5
  19130418.230    -1766128.467 7  -1329564.507 8
  20380962.418    -3186453.175 7  -2410675.876 8
  20021219.293    -2113365.577 7  -1591827.126 9
  23176260.105    -3068813.940 5  -2180682.180 2
 95  2 19 17 20 29.9960000  0  6 25 18 14 29 22 19
  22727587.457     5673667.199 5   4404161.466 4
  22261338.481    -9557702.917 5  -3142021.500 5
  19122755.941    -1806393.296 7  -1360939.718 7
  20364019.731    -3275467.849 7  -2480037.959 8
  20011812.660    -2162801.512 7  -1630348.630 9
  23151263.582    -3200179.632 4  -2283044.987 3
 95  2 19 17 20 59.9960000  0  6 25 18 14 29 22 19
  22736013.051     5717934.647 5   4438655.511 2
  22238173.418    -9679442.403 5  -3236883.431 5
  19115203.824    -1846078.616 7  -1391863.356 7
  20347103.520    -3364354.004 7  -2549299.896 8
  20002520.746    -2211620.999 7  -1668389.784 9
  23126290.277    -3331357.955 3  -2385261.822 2
 95  2 19 17 21 29.9960000  0  6 25 18 14 29 22 19
  22744431.207     5762213.561 5   4473158.508 3
  22215009.809    -9801155.575 5  -3331724.858 5
  19107764.816    -1885167.308 7  -1422322.086 7
  20330218.863    -3453104.998 7  -2618456.523 8
  19993351.824    -2259815.416 7  -1705943.872 9
  23101374.207    -3462324.217 4  -2487313.398 2
 95  2 19 17 21 59.9960000  0  6 25 18 14 29 22 19
  22752864.746     5806509.853 5   4507675.022 2
  22191856.199    -9922843.324 5  -3426546.453 5
  19100437.637    -1923663.039 7  -1452318.768 7
  20313350.262    -3541737.537 7  -2687520.827 8
  19984303.027    -2307375.295 7  -1743003.516 9
  23076498.949    -3593070.987 4  -2589193.950 3
 95  2 19 17 22 29.9960000  0  7 25 18 14 29 15 22 19
  22761300.535     5850841.554 5   4542219.136 2
  22168706.723   -10044492.344 5  -3521337.879 5
  19093226.473    -1961553.635 7  -1481843.922 8
  20296505.309    -3630255.675 7  -2756496.001 8
  23405265.527          -0.90513
  19975373.973    -2354307.385 7  -1779573.971 9
  23051654.473    -3723602.646 4  -2690906.851 2
 95  2 19 17 22 59.9960000  0  7 25 18 14 29 15 22 19
  22769740.457     5895202.225 5   4576785.843 2
  22145564.723   -10166112.601 5  -3616106.895 5
  19086128.699    -1998856.742 7  -1510911.289 8
  20279683.309    -3718674.769 7  -2825393.995 8
  23414970.270       51005.879 1
  19966558.082    -2400626.834 7  -1815667.045 9
  23026855.176    -3853934.389 3  -2792464.025 3
 95  2 19 17 23 29.9960000  0  6 25 18 14 29 22 19
  22778182.348     5939576.398 5   4611363.068 3
  22122426.207   -10287708.799 6  -3710857.151 5
  19079139.777    -2035592.215 7  -1539536.341 8
  20262872.629    -3807000.205 7  -2894219.008 8
  19957857.668    -2446334.168 7  -1851283.135 9
  23002080.637    -3984090.277 4  -2893884.151 4
 95  2 19 17 23 59.9960000  0  6 25 18 14 29 22 19
  22786636.871     5983995.722 5   4645975.484 2
  22099295.387   -10409227.792 5  -3805547.267 4
  19072264.582    -2071733.508 7  -1567698.408 7
  20246095.285    -3895173.356 7  -2962925.357 8
  19949283.777    -2491397.075 7  -1886397.089 9
  22977360.738    -4114044.400 5  -2995147.097 2
 95  2 19 17 24 29.9960000  0  6 25 18 14 29 22 19
  22795094.105     6028436.708 5   4680604.744 2
  22076189.020   -10530687.747 5  -3900191.354 4
  19065497.184    -2107285.572 7  -1595401.340 7
  20229348.355    -3983180.855 7  -3031502.618 8
  19940828.488    -2535825.225 7  -1921016.420 9
  22952663.738    -4243801.028 5  -3096256.104 2
 95  2 19 17 24 59.9960000  0  6 25 18 14 29 22 19
  22803551.957     6072899.591 5   4715251.083 3
  22053082.652   -10652095.083 5  -3994794.451 5
  19058843.480    -2142236.212 7  -1622635.622 7
  20212632.363    -4071028.037 7  -3099954.967 9
  19932500.496    -2579605.682 7  -1955131.057 9
  22928009.098    -4373353.409 3  -3197205.945 2
 95  2 19 17 25 29.9960000  0  6 25 18 14 29 22 19
  22812023.707     6117404.443 5   4749930.103 2
  22029998.051   -10773425.387 5  -4089337.524 4
  19052314.434    -2176562.127 7  -1649383.113 8
  20195947.535    -4158698.640 7  -3168269.712 9
  19924292.824    -2622728.840 7  -1988733.513 9
  22903407.777    -4502676.637 5  -3297977.299 1
 95  2 19 17 25 59.9960000  0  6 25 18 14 29 22 19
  22820502.988     6161950.711 5   4784641.396 3
  22006916.324   -10894690.431 5  -4183829.713 4
  19045901.207    -2210274.370 7  -1675652.408 8
  20179296.301    -4246206.137 7  -3236457.363 9
  19916206.168    -2665211.570 7  -2021836.936 9
  22878831.379    -4631782.514 5  -3398579.242 2
 95  2 19 17 26 29.9960000  0  6 25 18 14 29 22 19
  22828985.348     6206557.031 4   4819399.506 3
  21983858.254   -11015881.237 5  -4278264.072 5
  19039600.262    -2243358.844 7  -1701432.533 7
  20162674.926    -4333556.889 7  -3304522.884 9
  19908249.934    -2707041.469 7  -2054431.655 9
  22854311.121    -4760664.407 5  -3499006.650 2
 95  2 19 17 26 59.9960000  0  6 25 18 14 29 22 19
  22837491.379     6251227.235 5   4854207.380 5
  21960808.840   -11136975.954 5  -4372623.585 5
  19033422.965    -2275830.022 7  -1726734.769 8
  20146079.785    -4420766.576 7  -3372478.475 9
  19900410.863    -2748225.261 7  -2086522.920 9
  22829820.910    -4889341.263 4  -3599274.321 3
 95  2 19 17 27 29.9960000  0  6 25 18 14 29 22 19
  22846003.676     6295945.223 5   4889052.486 4
  21937785.246   -11257990.648 5  -4466920.701 5
  19027355.160    -2307730.035 7  -1751591.937 7
  20129509.582    -4507835.608 7  -3440324.483 9
  19892692.988    -2788782.439 7  -2118125.921 9
  22805365.176    -5017848.352 4  -3699409.708 3
 95  2 19 17 27 59.9960000  0  6 25 18 14 29 22 19
  22854518.551     6340706.781 5   4923931.542 3
  21914770.363   -11378936.145 5  -4561163.935 5
  19021389.746    -2339054.146 7  -1776000.359 7
  20112971.332    -4594752.570 7  -3508051.978 9
  19885099.754    -2828706.425 7  -2149235.519 8
  22780941.996    -5146190.770 4  -3799416.695 3
 95  2 19 17 28 29.9960000  0  6 25 18 14 29 22 19
  22863046.973     6385500.034 5   4958835.251 5
  21891772.332   -11499816.785 5  -4655356.631 5
  19015544.996    -2369796.711 7  -1799955.622 7
  20096460.223    -4681511.066 7  -3575656.000 9
  19877616.605    -2868003.871 7  -2179856.898 9
  22756555.230    -5274362.254 4  -3899290.541 4
 95  2 19 17 28 59.9950000  0  7 25 18 14 29 15 22 19
  22871578.835     6430338.439 4   4993774.202 5
  21868775.226   -11620630.101 5  -4749496.837 5
  19009805.046    -2399945.040 7  -1823447.846 8
  20079986.905    -4768084.316 7  -3643115.673 8
  23530371.843       50088.781 3
  19870264.835    -2906662.241 7  -2209980.309 9
  22732190.280    -5402341.200 4  -3999014.410 4
 95  2 19 17 29 29.9950000  0  7 25 18 14 29 15 22 19
  22880117.702     6475223.976 3   5028749.866 5
  21845791.327   -11741416.157 5  -4843615.813 5
  19004186.921    -2429494.807 7  -1846473.662 8
  20063548.280    -4854467.315 7  -3710427.103 8
  23539883.343      100096.187 2
  19863024.382    -2944688.645 7  -2239611.275 9
  22707885.210    -5530110.536 5  -4098574.919 3
 95  2 19 17 29 59.9950000  0  7 25 18 14 29 15 22 19
  22888665.397     6520145.253 4   5063753.364 5
  21822815.202   -11862172.436 6  -4937711.580 5
  18998671.944    -2458432.643 7  -1869022.640 7
  20047141.968    -4940676.033 7  -3777602.725 9
  23549379.843      150008.595 1
  19855912.069    -2982084.619 7  -2268751.001 9
  22683618.397    -5657647.547 5  -4197954.369 4
 95  2 19 17 30 29.9950000  0  6 25 18 14 29 22 19
  22897218.804     6565116.360 2   5098795.744 5
  21799845.507   -11982874.162 6  -5031764.859 5
  18993289.007    -2486755.789 7  -1891092.646 8
  20030770.593    -5026719.224 7  -3844649.362 8
  19848914.210    -3018832.402 7  -2297385.639 8
  22659395.952    -5784932.464 5  -4297137.389 4
 95  2 19 17 30 59.9950000  0  6 25 18 14 29 22 19
  22905782.733     6610111.297 3   5133856.662 3
  21776882.898   -12103538.975 6  -5125789.341 5
  18988002.874    -2514498.201 7  -1912710.136 8
  20014423.249    -5112630.786 7  -3911593.430 9
  19842046.749    -3054940.391 7  -2325521.733 9
  22635215.187    -5911988.082 4  -4396141.761 4
 95  2 19 17 31 29.9950000  0  6 25 18 14 29 22 19
  22914356.491     6655144.508 3   5168947.398 2
  21753936.866   -12224123.970 6  -5219751.664 5
  18982847.265    -2541621.715 7  -1933845.359 8
  19998101.765    -5198389.055 7  -3978418.059 9
  19835302.304    -3090361.659 7  -2353122.718 9
  22611092.132    -6038787.263 5  -4494946.305 4
 95  2 19 17 31 59.9950000  0  6 25 18 14 29 22 19
  22922925.952     6700191.464 3   5204048.877 2
  21731006.882   -12344621.770 5  -5313646.020 5
  18977800.179    -2568139.817 7  -1954508.837 8
  19981806.280    -5284011.426 7  -4045136.786 9
  19828692.069    -3125104.579 7  -2380195.121 9
  22586998.304    -6165372.994 5  -4593584.517 4
 95  2 19 17 32 29.9950000  0  6 25 18 14 29 22 19
  22931507.483     6745265.461 3   5239171.410 1
  21708098.882   -12465013.627 6  -5407457.823 5
  18972868.569    -2594039.426 7  -1974690.372 8
  19965548.530    -5369463.373 7  -4111722.715 9
  19822214.319    -3159166.394 7  -2406736.797 9
  22562955.772    -6291736.135 5  -4692049.308 5
 95  2 19 17 32 59.9950000  0  6 25 18 14 29 22 19
  22940079.460     6790357.672 1   5274308.089 1
  21685206.921   -12585305.207 5  -5501191.502 5
  18968062.218    -2619309.625 7  -1994381.459 8
  19949323.382    -5454727.617 7  -4178162.383 9
  19815859.515    -3192547.263 7  -2432747.862 9
  22538956.429    -6417874.086 5  -4790338.559 5
 95  2 19 17 33 29.9950000  0  5 18 14 29 22 19
  21662331.843   -12705504.269 5  -5594853.095 5
  18963374.522    -2643950.969 7  -2013582.530 8
  19933134.343    -5539799.502 7  -4244452.169 9
  19809629.796    -3225273.201 7  -2458248.593 9
  22514988.202    -6543794.404 4  -4888458.258 4
 95  2 19 17 33 59.9950000  0  5 18 14 29 22 19
  21639473.804   -12825621.931 5  -5688451.264 4
  18958800.171    -2667981.936 7  -2032307.978 8
  19916985.679    -5624670.824 7  -4310585.671 9
  19803522.976    -3257376.111 7  -2483263.838 9
  22491066.882    -6669496.413 4  -4986407.872 4
 95  2 19 17 34 29.9950000  0  5 18 14 29 22 19
  21616625.960   -12945677.367 5  -5782000.937 5
  18954337.272    -2691421.145 7  -2050572.318 8
  19900866.358    -5709374.131 7  -4376588.248 9
  19797531.819    -3288878.551 7  -2507811.193 9
  22467191.007    -6794984.058 5  -5084190.388 5
 95  2 19 17 34 59.9950000  0  5 18 14 29 22 19
  21593793.733   -13065680.049 5  -5875509.499 5
  18949991.741    -2714268.929 7  -2068375.815 8
  19884775.851    -5793926.225 7  -4442472.997 9
  19791647.124    -3319784.626 7  -2531893.852 9
  22443347.546    -6920272.476 5  -5181817.683 4
 95  2 19 17 35 29.9950000  0  5 18 14 29 22 19
  21570967.437   -13185636.541 6  -5968982.077 5
  18945757.249    -2736539.317 7  -2085729.395 7
  19868716.140    -5878324.416 7  -4508237.824 9
  19785875.530    -3350116.228 7  -2555528.856 9
  22419542.312    -7045373.223 5  -5279298.771 4
 95  2 19 17 35 59.9950000  0  6 25 18 14 29 22 19
  22991583.460          -0.98013
  21548150.757   -13305534.896 6  -6062409.324 5
  18941630.913    -2758211.804 7  -2102617.071 8
  19852686.108    -5962552.906 7  -4573870.411 9
  19780218.374    -3379844.021 7  -2578693.372 9
  22395777.366    -7170258.318 5  -5376611.803 2
 95  2 19 17 36 29.9950000  0  6 25 18 14 29 22 19
  23000159.671       45109.903 2
  21525348.022   -13425377.151 6  -6155792.862 5
  18937620.147    -2779275.325 7  -2119030.223 8
  19836688.733    -6046620.916 7  -4639377.962 9
  19774681.632    -3408954.763 7  -2601377.064 8
  22372059.757    -7294925.891 5  -5473755.313 3
 95  2 19 17 36 59.9950000  0  6 25 18 14 29 22 19
  23008737.819       90222.230 2        -0.02611
  21502551.835   -13545177.396 6  -6249143.667 5
  18933723.530    -2799741.486 7  -2134977.907 8
  19820726.640    -6130504.836 7  -4704742.052 9
  19769259.054    -3437445.487 7  -2623577.625 9
  22348372.358    -7419365.570 5  -5570721.233 4
 95  2 19 17 37 29.9950000  0  6 25 18 14 29 22 19
  23017339.772      135342.707 2     35158.676 1
  21479759.491   -13664928.157 6  -6342455.898 5
  18929942.608    -2819624.029 7  -2150470.831 8
  19804800.976    -6214203.412 7  -4769961.723 9
  19763953.624    -3465304.213 7  -2645285.722 9
  22324742.187    -7543557.791 5  -5667494.368 4
 95  2 19 17 37 59.9950000  0  6 25 18 14 29 22 19
  23025916.366      180476.736 2     70327.982 1
  21456987.921   -13784609.764 6  -6435714.262 5
  18926277.413    -2838901.742 7  -2165492.453 8
  19788907.546    -6297720.209 7  -4835039.744 9
  19758776.999    -3492510.797 7  -2666485.670 9
  22301157.819    -7667491.005 5  -5764065.633 4
 95  2 19 17 38 29.9950000  0  6 25 18 14 29 22 19
  23034505.124      225600.527 3    105489.281 2
  21434222.718   -13904226.091 6  -6528921.768 5
  18922721.116    -2857590.320 7  -2180055.003 8
  19773044.054    -6381083.007 7  -4899997.774 9
  19753723.444    -3519081.134 7  -2687189.829 8
  22277617.882    -7791186.715 5  -5860451.869 5
 95  2 19 17 38 59.9950000  0  6 25 18 14 29 22 19
  23043098.273      270720.505 3    140647.651 2
  21411473.108   -14023768.498 6  -6622071.662 5
  18919274.405    -2875702.012 7  -2194168.037 8
  19757209.624    -6464285.396 7  -4964830.797 9
  19748786.069    -3545019.866 7  -2707401.832 9
  22254125.140    -7914654.096 5  -5956660.214 4
 95  2 19 17 39 29.9950000  0  6 25 18 14 29 22 19
  23051681.319      315846.690 3    175810.818 2
  21388738.999   -14143237.125 6  -6715164.073 5
  18915938.124    -2893232.788 7  -2207828.410 8
  19741403.272    -6547353.277 7  -5029559.013 9
  19743968.327    -3570339.792 7  -2727131.662 8
  22230665.851    -8037930.698 5  -6052719.844 3
 95  2 19 17 39 59.9950000  0  6 25 18 14 29 22 19
  23060275.062      361002.634 3    210997.186 1
  21366024.257   -14262618.600 6  -6808188.587 5
  18912715.210    -2910159.144 7  -2221017.802 8
  19725623.944    -6630277.527 7  -5094175.310 9
  19739269.218    -3595029.391 7  -2746370.301 9
  22207246.101    -8161015.293 5  -6148629.874 3
 95  2 19 17 40 29.9950000  0  6 25 18 14 29 22 19
  23068871.023      406178.021 3    246198.705 2
  21343320.952   -14381930.847 6  -6901159.152 5
  18909605.116    -2926509.215 7  -2233758.151 8
  19709868.226    -6713069.401 7  -5158688.457 9
  19734690.429    -3619099.445 7  -2765126.211 8
  22183850.749    -8283922.762 5  -6244401.897 4
 95  2 19 17 40 59.9950000  0  6 25 18 14 29 22 19
  23077467.632      451370.590 4    281413.606 1
  21320627.960   -14501165.313 5  -6994069.087 5
  18906605.163    -2942273.505 7  -2246042.037 8
  19694145.124    -6795696.157 7  -5223072.943 9
  19730229.124    -3642547.146 7  -2783397.145 8
  22160505.335    -8406642.487 5  -6340027.663 4
 95  2 19 17 41 29.9950000  0  6 25 18 14 29 22 19
  23086072.108      496583.526 3    316644.364 1
  21297959.773   -14620310.597 6  -7086909.557 5
  18903719.413    -2957434.762 7  -2257856.028 8
  19678453.562    -6878147.704 7  -5287320.900 9
  19725886.655    -3665356.000 7  -2801170.300 9
  22137190.280    -8529149.248 5  -6435487.466 5
 95  2 19 17 41 59.9950000  0  6 25 18 14 29 22 19
  23094674.523      541785.096 3    351866.253 1
  21275302.773   -14739369.648 6  -7179682.821 5
  18900948.062    -2972006.948 7  -2269211.008 8
  19662800.116    -6960419.706 7  -5351428.955 9
  19721665.194    -3687538.383 7  -2818455.283 8
  22113918.522    -8651428.127 5  -6530769.711 4
 95  2 19 17 42 29.9950000  0  6 25 18 14 29 22 19
  23103271.421      586949.271 3    387059.047 2
  21252659.351   -14858352.237 6  -7272396.516 6
  18898287.241    -2985994.254 7  -2280110.234 8
  19647180.030    -7042494.176 7  -5415383.086 9
  19717561.038    -3709107.332 7  -2835262.271 8
  22090697.952    -8773483.457 5  -6625877.702 4
 95  2 19 17 42 59.9950000  0  6 25 18 14 29 22 19
  23111846.601      632060.455 3    422210.496 3
  21230032.780   -14977257.321 6  -7365049.800 5
  18895737.522    -2999391.316 7  -2290549.528 8
  19631601.835    -7124367.509 7  -5479180.485 9
  19713569.913    -3730073.387 7  -2851599.481 8
  22067506.632    -8895316.685 5  -6720812.677 4
 95  2 19 17 43 29.9950000  0  6 25 18 14 29 22 19
  23120425.616      677122.799 3    457323.907 1
  21207421.788   -15096093.097 6  -7457649.094 5
  18893298.780    -3012204.864 7  -2300534.133 8
  19616053.874    -7206060.721 7  -5542837.546 9
  19709692.632    -3750441.395 7  -2867470.662 9
  22044362.851    -9016951.654 5  -6815593.171 4
 95  2 19 17 43 59.9950000  0  5 18 14 29 22 19
  21184822.632   -15214844.538 6  -7550182.655 5
  18890974.757    -3024415.182 7  -2310048.699 8
  19600546.523    -7287555.777 7  -5606340.173 9
  19705935.132    -3770199.440 7  -2882866.565 8
  22021260.280    -9138380.739 5  -6910213.223 5
 95  2 19 17 44 29.9950000  0  5 18 14 29 22 19
  21162235.780   -15333521.801 6  -7642658.436 6
  18888763.351    -3036025.345 7  -2319095.595 8
  19585075.687    -7368864.782 7  -5669697.844 9
  19702294.585    -3789345.326 7  -2897785.440 8
  21998183.312    -9259617.113 5  -7004683.086 5
 95  2 19 17 44 59.9950000  0  5 18 14 29 22 19
  21139667.437   -15452118.804 6  -7735071.658 5
  18886665.194    -3047035.738 7  -2327675.147 8
  19569634.437    -7450005.870 7  -5732924.673 9
  19698770.312    -3807867.559 7  -2912218.376 8
  21975150.983    -9380656.665 5  -7098999.606 5
 95  2 19 17 45 29.9950000  0  5 18 14 29 22 19
  21117113.827   -15570659.512 6  -7827441.008 6
  18884681.827    -3057467.600 7  -2335803.897 8
  19554222.851    -7530996.316 7  -5796034.108 9
  19695362.773    -3825779.455 7  -2926175.702 8
  21952156.608    -9501497.668 5  -7193161.403 5
 95  2 19 17 45 59.9950000  0  5 18 14 29 22 19
  21094565.851   -15689139.409 6  -7919762.980 6
  18882808.015    -3067328.564 7  -2343487.790 8
  19538838.015    -7611833.635 7  -5859024.228 9
  19692069.155    -3843076.159 7  -2939653.668 8
  21929204.952    -9622116.859 5  -7287150.318 5
 95  2 19 17 46 29.9950000  0  5 18 14 29 22 19
  21072033.882   -15807561.490 6  -8012039.902 6
  18881041.007    -3076632.467 7  -2350737.615 8
  19523482.608    -7692527.256 7  -5921902.373 9
  19688889.687    -3859764.058 7  -2952657.238 8
  21906291.663    -9742514.802 5  -7380966.826 5
 95  2 19 17 46 59.9940000  0  5 18 14 29 22 19
  21049508.244   -15925911.094 6  -8104260.346 6
  18879371.315    -3085387.928 7  -2357560.079 8
  19508156.854    -7773072.329 7  -5984664.772 9
  19685829.799    -3875855.777 7  -2965196.243 8
  21883427.565    -9862677.878 5  -7474600.348 5
 95  2 19 17 47 29.9940000  0  5 18 14 29 22 19
  21026996.010   -16044200.658 6  -8196433.995 6
  18877803.150    -3093613.348 7  -2363969.518 8
  19492857.565    -7853470.400 7  -6047312.615 9
  19682880.979    -3891369.241 7  -2977284.671 8
  21860598.424    -9982627.983 5  -7568067.890 5
 95  2 19 17 47 59.9940000  0  5 18 14 29 22 19
  21004505.705   -16162407.111 6  -8288542.886 5
  18876345.338    -3101291.103 7  -2369952.215 8
  19477589.049    -7933704.561 7  -6109832.745 9
  19680039.908    -3906295.957 7  -2988915.881 8
  21837814.471   -10102375.817 5  -7661377.850 4
 95  2 19 17 48 29.9940000  0  5 18 14 29 22 19
  20982030.752   -16280523.686 6  -8380581.752 5
  18874993.924    -3108398.726 7  -2375490.648 8
  19462357.307    -8013744.742 7  -6172201.709 9
  19677308.861    -3920636.693 7  -3000090.489 8
  21815065.838   -10221913.008 5  -7754523.649 2
 95  2 19 17 48 59.9940000  0  5 18 14 29 22 19
  20959570.814   -16398547.704 6  -8472548.486 6
  18873747.002    -3114933.044 7  -2380582.348 8
  19447167.861    -8093575.877 7  -6234407.791 9
  19674694.643    -3934386.106 7  -3010804.328 8
  21792363.815   -10341232.860 5  -7847500.112 5
 95  2 19 17 49 29.9940000  0  5 18 14 29 22 19
  20937124.291   -16516503.759 6  -8564462.271 6
  18872612.611    -3120902.850 7  -2385234.173 8
  19432015.846    -8173202.281 7  -6296454.332 9
  19672189.768    -3947547.347 7  -3021059.850 8
  21769688.604   -10460352.829 5  -7940320.811 5
 95  2 19 17 49 59.9940000  0  5 18 14 29 22 19
  20914684.385   -16634412.655 6  -8656339.303 6
  18871583.564    -3126319.797 7  -2389455.199 8
  19416898.885    -8252634.559 7  -6358349.614 9
  19669791.291    -3960134.339 7  -3030867.904 8
  21747065.533   -10579285.483 5  -8032995.547 5
 95  2 19 17 50 29.9940000  0  5 18 14 29 22 19
  20892261.643   -16752248.402 6  -8748159.339 6
  18870656.447    -3131170.306 7  -2393234.846 8
  19401822.947    -8331854.041 7  -6420079.078 9
  19667513.361    -3972122.240 7  -3040209.140 8
  21724471.893   -10697994.345 5  -8125495.909 4
 95  2 19 17 50 59.9940000  0  5 18 14 29 22 19
  20869857.885   -16869982.247 6  -8839899.978 5
  18869847.916    -3135439.620 7  -2396561.611 8
  19386789.244    -8410857.724 7  -6481640.387 9
  19665350.104    -3983479.271 7  -3049058.777 8
  21701922.268   -10816464.554 5  -8217810.294 5
 95  2 19 17 51 29.9940000  0  5 18 14 29 22 19
  20847474.018   -16987618.987 6  -8931564.935 6
  18869145.650    -3139124.783 7  -2399433.195 8
  19371792.564    -8489653.693 7  -6543039.836 9
  19663308.799    -3994215.816 7  -3057424.932 8
  21679428.854   -10934714.228 5  -8309952.859 5
 95  2 19 17 51 59.9940000  0  5 18 14 29 22 19
  20825108.744   -17105150.119 6  -9023147.608 6
  18868553.432    -3142225.864 7  -2401849.647 8
  19356836.994    -8568256.082 7  -6604288.449 9
  19661380.947    -4004342.703 7  -3065316.016 8
  21656964.814   -11052743.278 5  -8401923.489 5
 95  2 19 17 52 29.9940000  0  5 18 14 29 22 19
  20802762.080   -17222573.430 6  -9114646.266 5
  18868077.768    -3144736.987 7  -2403806.397 8
  19341914.057    -8646678.588 7  -6665396.887 9
  19659566.955    -4013866.166 7  -3072736.911 8
  21634553.236   -11170533.756 5  -8493708.242 5
 95  2 19 17 52 59.9940000  0  5 18 14 29 22 19
  20780431.541   -17339922.240 6
  18867704.932    -3146683.993 7  -2405323.567 8
  19327020.197    -8724940.974 7  -6726380.564 9
  19657866.072    -4022821.131 7  -3079714.828 8
  21612177.307   -11288113.069 5
 95  2 19 17 53 29.9940000  0  5 18 14 29 22 19
  20758114.924   -17457200.728 6
  18867444.252    -3148074.399 7  -2406407.030 8
  19312159.799    -8803034.314 7  -6787232.515 9
  19656263.565    -4031224.306 7  -3086262.765 8
  21589840.150   -11405480.024 5
 95  2 19 17 53 59.9940000  0  5 18 14 29 22 19
  20735812.549   -17574398.473 6
  18867286.307    -3148899.515 7  -2407050.004 8
  19297336.760    -8880941.924 7  -6847939.734 9
  19654774.565    -4039069.917 7  -3092376.239 8
  21567554.119   -11522612.834 5
 95  2 19 17 54 29.9940000  0  5 18 14 29 22 19
  20713524.979   -17691523.109 6  -9480061.456 6
  18867236.869    -3149163.871 7
  19282547.564    -8958645.351 7  -6908487.860 9
  19653385.471    -4046362.594 7  -3098058.854 8
  21545305.166   -11639517.425 5  -8859149.911 4
 95  2 19 17 54 59.9940000  0  5 18 14 29 22 19
  20691254.775   -17808556.252 6  -9571256.077 6
  18867291.697    -3148872.054 7
  19267807.674    -9036115.416 7  -6968854.149 9
  19652106.424    -4053087.116 7  -3103298.756 8
  21523097.963   -11756206.886 5  -8950076.700 5
 95  2 19 17 55 29.9940000  0  5 18 14 29 22 19
  20669000.643   -17925498.477 6  -9662379.863 6
  18867449.377    -3148037.453 7  -2406378.352 8
  19253106.127    -9113363.302 7  -7029047.307 9
  19650932.838    -4059245.492 7  -3108097.506 8
  21500933.541   -11872691.989 5  -9040844.276 5
 95  2 19 17 55 59.9940000  0  5 18 14 29 22 19
  20646767.393   -18042339.572 6  -9753424.825 6
  18867711.963    -3146645.003 7  -2405293.344 8
  19238451.244    -9190381.911 7  -7089061.808 9
  19649875.463    -4064813.522 7  -3112436.241 8
  21478814.783   -11988954.684 5  -9131438.537 5
 95  2 19 17 56 29.9940000  0  5 18 14 29 22 19
  20624554.588   -18159065.261 6  -9844379.892 6
  18868085.479    -3144702.137 7  -2403779.450 8
  19223836.064    -9267190.447 7  -7148912.612 9
  19648929.236    -4069779.149 7  -3116305.584 8
  21456724.955   -12104997.685 5  -9221861.613 5
 95  2 19 17 56 59.9940000  0  5 18 14 29 22 19
  20602361.565   -18275693.408 6  -9935258.930 6
  18868549.338    -3142239.443 7  -2401860.495 8
  19209251.385    -9343831.240 7  -7208632.709 9
  19648099.463    -4074155.800 7  -3119715.971 8
  21434683.189   -12220835.982 5  -9312125.139 5
 95  2 19 17 57 29.9940000  0  5 18 14 29 22 19
  20580184.690   -18392221.132 6 -10026059.707 6
  18869128.346    -3139222.918 7  -2399509.990 8
  19194698.854    -9420304.180 7  -7268222.012 9
  19647373.158    -4077936.965 7  -3122662.343 8
  21412685.736   -12336446.749 5  -9402211.371 5
 95  2 19 17 57 59.9940000  0  5 18 14 29 22 19
  20558027.244   -18508665.879 6 -10116795.853 6
  18869803.580    -3135658.225 7  -2396732.331 8
  19180172.783    -9496636.114 7  -7327701.436 9
  19646767.893    -4081151.741 7  -3125167.377 8
  21390722.791   -12451849.772 5  -9492135.768 5
 95  2 19 17 58 29.9940000  0  5 18 14 29 22 19
  20535880.088   -18625027.399 6 -10207467.139 6
  18870590.166    -3131548.000 7  -2393529.587 8
  19165677.744    -9572811.607 7  -7387058.956 9
  19646260.854    -4083802.310 7  -3127232.773 8
  21368800.486   -12567053.034 5  -9581904.489 5
 95  2 19 17 58 59.9940000  0  5 18 14 29 22 19
  20513755.408   -18741312.786 6 -10298079.092 6
  18871475.424    -3126875.658 7  -2389888.826 8
  19151215.580    -9648806.238 7  -7446275.552 9
  19645863.166    -4085891.076 7  -3128860.392 8
  21346921.252   -12682047.407 5  -9671510.429 5
 95  2 19 17 59 29.9940000  0  5 18 14 29 22 19
  20491644.861   -18857508.857 6 -10388621.463 6
  18872475.861    -3121616.107 7  -2385790.506 8
  19136795.104    -9724589.111 7  -7505327.146 9
  19645573.580    -4087410.342 7  -3130044.256 8
  21325078.010   -12796824.854 5  -9760947.324 5
 95  2 19 17 59 59.9940000  0  5 18 14 29 22 19
  20469549.572   -18973609.448 6 -10479089.427 6
  18873584.338    -3115806.621 7  -2381263.663 8
  19122413.932    -9800161.342 7  -7564214.595 9
  19645389.666    -4088363.462 7  -3130786.960 8
  21303273.143   -12911400.625 5  -9850227.054 5
 95  2 19 18  0 29.9940000  0  5 18 14 29 22 19
  20447482.494   -19089582.529 6 -10569458.021 6
  18874793.604    -3109436.273 7  -2376299.786 8
  19108080.986    -9875479.991 7  -7622904.445 9
  19645324.104    -4088716.910 7
  21281514.955   -13025742.033 5  -9939324.196 5
 95  2 19 18  0 59.9940000  0  5 18 14 29 22 19
  20425444.064   -19205413.985 6 -10659716.277 6
  18876110.940    -3102507.425 7  -2370900.709 8
  19093797.447    -9950554.169 7  -7681403.800 9
  19645366.104    -4088487.659 7
  21259803.494   -13139851.908 5 -10028240.913 5
 95  2 19 18  1 29.9940000  0  5 18 14 29 22 19
  20403422.354   -19321105.036 6 -10749865.113 6
  18877536.268    -3095038.778 7  -2365081.011 8
  19079554.549   -10025386.838 7  -7739714.971 9
  19645521.643    -4087691.315 7  -3130263.281 8
  21238131.064   -13253743.725 5 -10116987.711 5
 95  2 19 18  1 59.9940000  0  5 18 14 29 22 19
  20381434.127   -19436668.755 6 -10839914.726 6
  18879051.674    -3087054.963 7  -2358859.892 8
  19065359.330   -10099993.592 7  -7797850.102 9
  19645779.268    -4086343.026 7  -3129212.685 8
  21216495.268   -13367426.389 5 -10205571.540 5
 95  2 19 18  2 29.9940000  0  5 18 14 29 22 19
  20359464.111   -19552129.917 6 -10929884.447 6
  18880673.354    -3078544.496 7  -2352228.397 8
  19051204.190   -10174372.566 7  -7855807.748 9
  19646137.260    -4084451.992 7  -3127739.176 8
  21194906.275   -13480885.831 6 -10293981.419 5
 95  2 19 18  2 59.9940000  0  5 18 14 29 22 19
  20337510.635   -19667497.876 6 -11019781.529 6
  18882397.619    -3069500.289 7  -2345180.995 8
  19037095.268   -10248513.346 7  -7913579.794 9
  19646600.611    -4082009.573 7  -3125836.010 8
  21173356.932   -13594118.326 5 -10382214.476 5
 95  2 19 18  3 29.9940000  0  5 18 14 29 22 19
  20315564.932   -19782797.608 6 -11109625.450 6
  18884212.861    -3059941.467 7  -2337732.588 8
  19023028.525   -10322430.849 7  -7971177.842 9
  19647175.025    -4079011.041 7  -3123499.513 8
  21151847.744   -13707135.793 5 -10470279.972 5
 95  2 19 18  3 59.9940000  0  5 18 14 29 22 19
  20293642.572   -19898005.936 6 -11199398.154 6
  18886131.213    -3049862.110 7  -2329878.584 8
  19009006.947   -10396122.145 7  -8028599.641 9
  19647855.955    -4075432.654 7  -3120711.183 8
  21130385.275   -13819928.556 6 -10558170.407 5
 95  2 19 18  4 29.9940000  0  5 18 14 29 22 19
  20271741.713   -20013115.175 6 -11289093.629 6
  18888148.182    -3039256.863 7  -2321614.791 8
  18995025.893   -10469598.041 7  -8085853.588 9
  19648643.299    -4071289.025 7  -3117482.403 8
  21108961.697   -13932511.690 5 -10645897.457 5
 95  2 19 18  4 59.9930000  0  5 18 14 29 22 19
  20249863.349   -20128079.248 6 -11378675.995 6
  18890272.810    -3028113.573 7  -2312931.744 8
  18981084.349   -10542856.711 7  -8142938.265 9
  19649536.927    -4066576.044 7  -3113809.968 8
  21087580.974   -14044879.550 5 -10733456.774 5
 95  2 19 18  5 29.9930000  0  5 18 14 29 22 19
  20228018.028   -20242877.340 6 -11468129.029 6
  18892498.388    -3016416.335 7  -2303817.050 8
  18967183.005   -10615900.474 7  -8199855.481 9
  19650541.708    -4061304.241 7  -3109702.098 8
  21066242.302   -14157017.925 6 -10820837.317 5
 95  2 19 18  5 59.9930000  0  5 18 14 29 22 19
  20206202.458   -20357511.154 6 -11557454.055 6
  18894829.224    -3004157.946 7  -2294265.094 8
  18953326.130   -10688726.848 7  -8256603.308 9
  19651645.567    -4055498.591 7  -3105178.234 8
  21044951.255   -14268907.635 6 -10908024.065 5
 95  2 19 18  6 29.9930000  0  5 18 14 29 22 19
  20184416.544   -20472001.640 6 -11646667.393 6
  18897267.778    -2991347.025 7  -2284282.602 8
  18939508.685   -10761333.613 7  -8313180.010 9
  19652849.849    -4049175.280 7  -3100250.992 8
  21023704.325   -14380539.229 6 -10995009.687 5
 95  2 19 18  6 59.9930000  0  5 18 14 29 22 19
  20162656.724   -20586362.064 6 -11735779.383 6
  18899805.161    -2978008.802 7  -2273889.209 8
  18925732.942   -10833722.039 7  -8369586.569 9
  19654154.638    -4042331.069 7  -3094917.869 8
  21002511.122   -14491914.893 5 -11081795.887 5
 95  2 19 18  7 29.9930000  0  5 18 14 29 22 19
  20140915.489   -20700603.666 6 -11824798.786 6
  18902443.653    -2964146.749 7  -2263087.645 8
  18911998.974   -10905892.068 7  -8425822.955 9
  19655554.403    -4034959.042 7  -3089173.443 8
  20981364.497   -14603043.090 6 -11168389.243 5
 95  2 19 18  7 59.9930000  0  5 18 14 29 22 19
  20119200.802   -20814719.980 6 -11913720.562 6
  18905180.497    -2949772.005 7  -2251886.585 8
  18898309.396   -10977833.305 7  -8481881.061 9
  19657058.810    -4027043.845 7  -3083005.785 8
  20960264.317   -14713936.459 6 -11254799.626 5
 95  2 19 18  8 29.9930000  0  5 18 14 29 22 19
  20097504.138   -20928707.445 6 -12002541.951 6
  18908010.341    -2934897.580 7  -2240296.165 8
  18884667.669   -11049540.874 7  -8537757.081 9
  19658670.021    -4018584.637 7  -3076414.220 8
  20939198.622   -14824621.225 6 -11341047.465 5
 95  2 19 18  8 59.9930000  0  5 18 14 29 22 19
  20075843.333   -21042555.411 6 -12091254.626 6
  18910937.200    -2919506.354 7  -2228303.037 8
  18871065.638   -11121003.842 7  -8593442.506 9
  19660385.544    -4009583.661 7  -3069400.502 8
  20918177.060   -14935098.524 6 -11427133.653 6
 95  2 19 18  9 29.9930000  0  5 18 14 29 22 19
  20054200.200   -21156288.519 6 -12179877.808 6
  18913963.138    -2903604.093 7  -2215911.697 8
  18857514.122   -11192216.146 7  -8648932.608 9
  19662197.317    -4000059.843 7  -3061979.370 8
  20897193.630   -15045370.493 6 -11513059.800 6
 95  2 19 18  9 59.9930000  0  5 18 14 29 22 19
  20032583.450   -21269899.891 6 -12268406.121 6
  18917090.950    -2887176.360 7  -2203110.904 8
  18844017.802   -11263143.635 7  -8704200.776 9
  19664108.396    -3989999.989 7  -3054140.549 8
  20876246.247   -15155417.300 5 -11598810.542 5
 95  2 19 18 10 29.9930000  0  5 18 14 29 22 19
  20010980.396   -21383403.898 6 -12356850.792 6
  18920317.083    -2870213.187 7  -2189892.885 8
  18830571.903   -11333802.328 7  -8759259.489 9
  19666126.489    -3979410.038 7  -3045888.668 8
  20855353.208   -15265232.726 6 -11684380.962 5
 95  2 19 18 10 59.9930000  0  5 18 14 29 22 19
  19989402.153   -21496798.803 6 -12445210.437 6
  18923651.302    -2852700.039 7  -2176246.315 8
  18817176.903   -11404206.609 7  -8814119.965 9
  19668241.552    -3968280.886 7  -3037216.636 8
  20834499.114   -15374803.932 6 -11769761.083 6
 95  2 19 18 11 29.9930000  0  5 18 14 29 22 19
  19967846.614   -21610080.073 6 -12533481.542 6
  18927087.067    -2834648.801 7  -2162180.451 8
  18803823.161   -11474369.397 7  -8868792.262 9
  19670465.942    -3956606.529 7  -3028119.761 7
  20813697.544   -15484146.605 6 -11854963.129 5
 95  2 19 18 11 59.9930000  0  5 18 14 29 22 19
  19946313.810   -21723241.511 6 -12621659.265 6
  18930621.458    -2816073.929 7  -2147706.567 8
  18790511.122   -11544325.770 7  -8923303.722 9
  19672787.146    -3944398.132 7  -3018606.754 8
  20792924.724   -15593283.270 5 -11940004.661 6
 95  2 19 18 12 29.9930000  0  5 18 14 29 22 19
  19924805.716   -21836274.843 6 -12709737.170 6
  18934253.489    -2796984.439 7  -2132831.686 8
  18777237.864   -11614081.010 7  -8977658.453 9
  19675213.810    -3931661.410 7  -3008682.066 8
  20772197.146   -15702217.696 6 -12024888.627 5
 95  2 19 18 12 59.9930000  0  5 18 14 29 22 19
  19903321.294   -21949159.705 6 -12797699.375 7
  18937980.919    -2777393.796 7  -2117566.283 8
  18764006.724   -11683606.375 7  -9031834.058 9
  19677737.310    -3918400.012 7  -2998348.554 8
  20751506.614   -15810956.642 6 -12109620.219 5
 95  2 19 18 13 29.9930000  0  5 18 14 29 22 19
  19881873.091   -22061875.917 6 -12885530.165 6
  18941800.880    -2757319.855 7  -2101924.292 8
  18750827.122   -11752870.110 7  -9085805.797 9
  19680362.888    -3904618.600 7  -2987609.811 7
  20730848.989   -15919488.386 5 -12194190.383 5
 95  2 19 18 13 59.9930000  0  5 18 14 29 22 19
  19860456.122   -22174435.954 6 -12973239.270 6
  18945709.364    -2736778.514 7  -2085918.098 8
  18737693.075   -11821883.543 7  -9139582.500 9
  19683078.052    -3890343.297 7  -2976486.238 8
  20710238.817   -16027817.952 6 -12278602.992 5
 95  2 19 18 14 29.9930000  0  5 18 14 29 22 19
  19839067.442   -22286828.978 6 -13060818.237 6
  18949708.302    -2715760.516 7  -2069540.476 8
  18724611.896   -11890632.173 7  -9193152.863 9
  19685884.747    -3875579.434 7  -2964981.962 8
  20689662.614   -16135926.301 5 -12362843.214 5
 95  2 19 18 14 59.9930000  0  5 18 14 29 22 19
  19817709.903   -22399056.027 7 -13148267.868 6
  18953802.091    -2694262.574 7  -2052788.882 8
  18711578.685   -11959120.854 7  -9246520.670 9
  19688787.849    -3860325.244 7  -2953095.611 8
  20669138.271   -16243795.975 6 -12446897.495 6
 95  2 19 18 15 29.9930000  0  6 28 18 14 29 22 19
  22787213.950          -0.41413
  19796384.286   -22511124.892 7 -13235594.238 6
  18957983.106    -2672271.954 7  -2035653.381 8
  18698592.763   -12027360.020 7  -9299694.051 9
  19691785.005    -3844565.759 7  -2940815.523 7
  20648662.849   -16351412.409 6 -12530754.407 6
 95  2 19 18 15 59.9930000  0  6 28 18 14 29 22 19
  22765723.106     -112932.728 4        -0.22214
  19775087.622   -22623036.340 7 -13322797.945 6
  18962267.825    -2649767.040 7  -2018117.135 8
  18685654.544   -12095347.756 7  -9352671.514 9
  19694885.435    -3828279.985 7  -2928125.331 7
  20628233.130   -16458770.053 6 -12614409.667 5
 95  2 19 18 16 29.9930000  0  6 28 18 14 29 22 19
  22744252.310     -225802.462 5    -87950.492 3
  19753814.622   -22734831.483 7 -13409911.028 6
  18966641.927    -2626781.202 7  -2000206.135 8
  18672760.958   -12163096.344 7  -9405462.628 9
  19698076.060    -3811501.818 7  -2915051.473 8
  20607850.325   -16565901.863 6 -12697888.968 5
 95  2 19 18 16 59.9930000  0  6 28 18 14 29 22 19
  22722780.927     -338583.365 4   -175831.589 3
  19732566.888   -22846498.797 7 -13496924.510 7
  18971112.161    -2603296.028 7  -1981906.055 8
  18659921.630   -12230575.776 7  -9458044.008 9
  19701369.896    -3794193.927 7  -2901564.837 7
  20587503.247   -16672804.908 6 -12781189.998 5
 95  2 19 18 17 29.9930000  0  6 28 18 14 29 22 19
  22701345.411     -451281.288 5   -263648.022 1
  19711341.099   -22958037.653 7 -13583837.874 6
  18975673.333    -2579316.140 7  -1963220.477 8
  18647133.731   -12297784.444 7  -9510414.407 9
  19704762.903    -3776365.659 7  -2887672.710 7
  20567196.731   -16779499.735 6 -12864328.783 6
 95  2 19 18 17 59.9930000  0  6 28 18 14 29 22 19
  22679914.544     -563886.587 5   -351392.233 3
  19690142.349   -23069429.259 7 -13670636.515 6
  18980334.653    -2554830.085 7  -1944140.483 8
  18634397.146   -12364709.428 7  -9562563.753 9
  19708250.966    -3758031.793 7  -2873386.604 8
  20546932.888   -16885978.335 6 -12947299.076 5
 95  2 19 18 18 29.9930000  0  6 28 18 14 29 22 19
  22658497.731     -676414.067 4   -439075.845 4
  19668969.021   -23180692.227 7 -13757334.910 6
  18985087.278    -2529865.527 7  -1924687.630 8
  18621709.146   -12431386.071 7  -9614519.592 9
  19711832.567    -3739221.699 7  -2858729.428 8
  20526711.388   -16992255.920 6 -13030112.737 6
 95  2 19 18 18 59.9930000  0  6 28 18 14 29 22 19
  22637099.450     -788854.512 5   -526691.598 2
  19647823.083   -23291810.374 7 -13843920.462 7
  18989926.411    -2504424.466 7  -1904863.483 8
  18609065.505   -12497829.930 7  -9666294.039 9
  19715500.864    -3719926.988 7  -2843694.625 7
  20506525.450   -17098321.646 6 -13112761.308 6
 95  2 19 18 19 29.9930000  0  6 28 18 14 29 22 19
  22615723.638     -901192.540 4   -614227.599 2
  19626714.013   -23402755.382 7 -13930371.093 6
  18994858.810    -2478501.411 7  -1884663.744 8
  18596470.146   -12564020.644 7  -9717871.227 9
  19719265.630    -3700155.485 7  -2828288.279 8
  20486392.325   -17204145.411 6 -13195221.341 6
 95  2 19 18 19 59.9930000  0  6 28 18 14 29 22 19
  22594362.716    -1013431.393 5   -701686.324 2
  19605632.380   -23513536.192 7 -14016693.779 6
  18999880.981    -2452112.430 7  -1864100.943 8
  18583921.935   -12629958.961 7  -9769251.739 9
  19723120.528    -3679906.363 7  -2812509.784 8
  20466300.161   -17309725.971 6 -13277491.857 6
 95  2 19 18 20 29.9930000  0  6 28 18 14 29 22 19
  22573031.521    -1125564.145 5   -789062.347 1
  19584582.317   -23624158.225 7 -14102892.754 6
  19004991.950    -2425261.779 7  -1843178.411 8
  18571423.060   -12695633.245 7  -9820426.509 9
  19727067.771    -3659163.366 7  -2796346.439 8
  20446255.028   -17415069.200 6 -13359577.457 6
 95  2 19 18 20 59.9930000  0  6 28 18 14 29 22 19
  22551708.146    -1237595.080 4
  19563562.380   -23734619.590 7 -14188966.534 6
  19010185.958    -2397957.911 7  -1821902.716 8
  18558980.896   -12761024.230 7  -9871380.529 9
  19731104.114    -3637952.064 7  -2779818.186 8
  20426244.606   -17520206.262 6 -13441502.418 6
 95  2 19 18 21 29.9930000  0  6 28 18 14 29 22 19
  22530410.497    -1349511.020 4        -0.21411
  19542571.091   -23844908.578 7 -14274905.987 7
  19015470.771    -2370186.324 7  -1800262.577 8
  18546596.880   -12826110.929 7  -9922097.443 9
  19735231.583    -3616267.063 6  -2762920.814 7
  20406279.989   -17625130.730 6 -13523261.689 6
 95  2 19 18 21 59.9930000  0  6 28 18 14 29 22 19
  22509134.685    -1461329.169 3    -87131.068 1
  19521615.356   -23955055.173 7 -14360734.488 7
  19020841.606    -2341962.440 7  -1778269.989 8
  18534260.771   -12890925.347 7  -9972602.188 9
  19739446.692    -3594123.016 7  -2745665.743 7
  20386347.317   -17729867.067 6 -13604874.389 5
 95  2 19 18 22 29.9930000  0  6 28 18 14 29 22 19
  22487867.763    -1573032.606 3   -174172.613 1
  19500680.981   -24065040.987 7 -14446437.693 7
  19026302.005    -2313262.777 7  -1755906.666 8
  18521982.560   -12955457.718 7 -10022887.155 9
  19743742.153    -3571529.796 6  -2728060.680 7
  20366457.997   -17834411.421 6 -13686337.477 6
 95  2 19 18 22 59.9920000  0  6 28 18 14 29 22 19
  22466646.508    -1684618.233 3   -261122.312 1
  19479784.320   -24174861.567 7 -14532012.148 7
  19031853.031    -2284101.757 7  -1733183.836 8
  18509753.141   -13019714.369 7 -10072957.272 9
  19748128.906    -3548491.595 6  -2710108.857 8
  20346597.070   -17938747.731 6 -13767638.469 6
 95  2 19 18 23 29.9920000  0  6 28 18 14 29 22 19
  22445417.133    -1796084.068 2   -347978.682 1
  19458916.328   -24284530.957 7 -14617468.808 7
  19037489.133    -2254470.090 7  -1710094.273 7
  18497576.977   -13083710.261 7 -10122824.206 9
  19752605.922    -3524976.082 6  -2691785.126 8
  20326789.953   -18042853.991 6 -13848760.199 5
 95  2 19 18 23 59.9920000  0  6 28 18 14 29 22 19
  22424245.039    -1907419.679 3   -434733.558 1
  19438075.227   -24394041.084 7 -14702801.358 7
  19043217.594    -2224367.952 7  -1686638.117 8
  18485448.586   -13147439.555 7 -10172483.384 9
  19757169.906    -3500980.351 6  -2673087.186 8
  20307026.602   -18146721.539 6 -13929695.928 6
 95  2 19 18 24 29.9920000  0  6 28 18 14 29 22 19
  22403080.242    -2018634.704 3   -521394.463 2
  19417269.102   -24503389.326 7 -14788007.766 7
  19049034.703    -2193813.775 7  -1662829.730 8
  18473371.914   -13210907.915 7 -10221939.261 9
  19761826.742    -3476513.121 6  -2654021.848 7
  20287300.023   -18250360.520 6 -14010453.530 6
 95  2 19 18 24 59.9920000  0  6 28 18 14 29 22 19
  22381940.211    -2129712.651 3   -607948.516 1
  19396495.430   -24612548.904 6 -14873067.163 7
  19054932.836    -2162810.850 7  -1638671.665 8
  18461343.789   -13274105.257 7 -10271183.947 9
  19766575.867    -3451546.886 6  -2634567.673 8
  20267627.492   -18353747.927 6 -14091015.119 6
 95  2 19 18 25 29.9920000  0  6 28 18 14 29 22 19
  22360831.656    -2240660.510 3   -694401.281 2
  19375758.961   -24721512.331 6 -14957973.711 7
  19060917.484    -2131366.212 7  -1614169.405 7
  18449367.938   -13337038.520 7 -10320222.854 9
  19771417.789    -3426102.086 7  -2614740.600 7
  20247998.484   -18456904.044 6 -14171396.474 6
 95  2 19 18 25 59.9920000  0  6 28 18 14 29 22 19
  22339732.531    -2351486.568 3   -780759.099 2
  19355064.156   -24830271.018 7 -15042720.723 7
  19066981.664    -2099501.194 7  -1589339.576 7
  18437442.641   -13399707.774 7 -10369056.040 9
  19776343.875    -3400211.605 7  -2594566.232 7
  20228412.484   -18559837.266 6 -14251604.159 6
 95  2 19 18 26 29.9920000  0  6 28 18 14 29 22 19
  22318686.344    -2462178.163 4   -867012.161 2
  19334408.039   -24938822.432 7 -15127306.220 7
  19073126.336    -2067214.771 7  -1564181.363 7
  18425570.805   -13462098.289 7 -10417672.021 9
  19781355.898    -3373864.937 7  -2574036.397 7
  20208865.172   -18662538.373 6 -14331630.962 6
 95  2 19 18 26 59.9920000  0  6 28 18 14 29 22 19
  22297641.016    -2572744.802 3   -953167.831 1
  19313786.359   -25047197.954 7 -15211754.674 7
  19079348.383    -2034522.129 7  -1538706.630 7
  18413750.281   -13524221.933 7 -10466080.057 9
  19786452.508    -3347092.914 7  -2553175.116 7
  20189363.344   -18765028.698 6 -14411493.511 6
 95  2 19 18 27 29.9920000  0  6 28 18 14 29 22 19
  22276623.000    -2683179.703 4  -1039220.830 4
  19293192.188   -25155423.534 7 -15296086.272 8
  19085646.188    -2001408.272 6  -1512903.672 7
  18401979.242   -13586071.988 7 -10514274.905 9
  19791626.445    -3319906.125 6  -2531990.649 7
  20169896.227   -18867313.558 6 -14491195.967 6
 95  2 19 18 27 59.9920000  0  6 28 18 14 29 22 19
  22255637.766    -2793457.892 4  -1125151.720 2
  19272625.680   -25263495.061 7 -15380297.837 7
  19092033.008    -1967844.772 6  -1486750.351 7
  18390267.375   -13647622.087 7 -10562236.028 9
  19796882.539    -3292288.520 6  -2510470.472 7
  20150475.297   -18969382.256 6 -14570729.967 6
 95  2 19 18 28 29.9920000  0  6 28 18 14 29 22 19
  22234678.633    -2903572.042 5  -1210954.801 4
  19252090.047   -25371411.873 7 -15464388.840 8
  19098509.742    -1933821.306 7  -1460238.600 7
  18378610.938   -13708871.629 7 -10609962.952 9
  19802222.531    -3264235.217 7  -2488610.788 7
  20131089.719   -19071253.556 6 -14650110.181 6
 95  2 19 18 28 59.9920000  0  6 28 18 14 29 22 19
  22213756.258    -3013531.634 4  -1296637.423 4
  19231583.984   -25479166.605 7 -15548353.544 8
  19105071.188    -1899339.708 6  -1433369.875 7
  18367011.578   -13769831.149 7 -10657463.877 9
  19807638.297    -3235765.591 6  -2466426.716 7
  20111740.524   -19172942.845 6 -14729348.558 6
 95  2 19 18 29 29.9920000  0  6 28 18 14 29 22 19
  22192860.024    -3123323.090 5  -1382189.057 3
  19211116.078   -25586723.466 7 -15632164.074 7
  19111721.656    -1864394.415 6  -1406139.814 7
  18355469.977   -13830482.077 7 -10704724.350 9
  19813139.813    -3206849.211 7  -2443894.512 7
  20092429.625   -19274434.218 6 -14808432.709 6
 95  2 19 18 29 59.9920000  0  6 28 18 14 29 22 19
  22172001.867    -3232958.631 5  -1467619.163 4
  19190687.023   -25694070.491 7 -15715811.091 7
  19118456.039    -1829011.969 6  -1378569.137 7
  18343986.133   -13890836.215 7 -10751753.552 9
  19818727.445    -3177487.217 7  -2421015.072 7
  20073149.164   -19375729.903 6 -14887364.368 6
 95  2 19 18 30 29.9920000  0  6 28 18 14 29 22 19
  22151162.070    -3342437.100 4  -1552926.892 4
  19170302.227   -25801205.164 7 -15799292.631 8
  19125269.633    -1793210.616 6  -1350672.030 7
  18332556.258   -13950902.297 7 -10798558.300 9
  19824399.539    -3147671.756 6  -2397782.293 7
  20053916.289   -19476812.490 6 -14966129.991 6
 95  2 19 18 30 59.9920000  0  6 28 18 14 29 22 19
  22130367.609    -3451750.043 5  -1638105.667 5
  19149954.508   -25908129.238 7 -15882610.075 8
  19132158.984    -1756991.664 6  -1322449.525 7
  18321179.797   -14010678.775 7 -10845137.379 9
  19830161.524    -3117403.571 6  -2374196.733 7
  20034725.094   -19577658.380 6 -15044711.157 6
 95  2 19 18 31 29.9920000  0  6 28 18 14 29 22 19
  22109599.609    -3560881.343 5  -1723142.916 2
  19129648.727   -26014846.474 7 -15965766.347 7
  19139131.836    -1720345.590 6  -1293894.202 7
  18309859.609   -14070157.719 7 -10891484.607 9
  19836008.344    -3086672.354 6  -2350250.368 7
  20015581.211   -19678254.573 6 -15123097.761 6
 95  2 19 18 31 59.9920000  0  6 28 18 14 29 22 19
  22088862.156    -3669853.686 5  -1808056.298 4
  19109370.703   -26121396.641 7 -16048792.434 7
  19146183.672    -1683288.884 6  -1265018.892 7
  18298593.070   -14129375.805 7 -10937628.579 9
  19841938.594    -3055517.773 6  -2325974.121 7
  19996484.750   -19778624.724 6 -15201308.249 6
 95  2 19 18 32 29.9920000  0  6 28 18 14 29 22 19
  22068161.750    -3778650.527 5  -1892832.870 5
  19089127.938   -26227769.985 7 -16131680.740 7
  19153316.977    -1645799.142 6  -1235806.167 7
  18287377.563   -14188321.611 7 -10983560.378 9
  19847948.766    -3023940.391 6  -2301368.410 7
  19977429.547   -19878761.393 6 -15279336.773 6
 95  2 19 18 32 59.9920000  0  6 28 18 14 29 22 19
  22047485.102    -3887283.300 5  -1977481.652 5
  19068917.688   -26333977.503 7 -16214439.833 7
  19160531.781    -1607886.578 6  -1206263.957 7
  18276210.008   -14246994.038 7 -11029279.160 9
  19854029.227    -2991971.212 6  -2276457.416 7
  19958412.820   -19978684.482 6 -15357198.865 6
 95  2 19 18 33 29.9920000  0  6 28 18 14 29 22 19
  22026849.539    -3995729.537 5  -2061985.057 3
  19048742.953   -26439997.626 7 -16297052.901 7
  19167833.156    -1569535.297 6  -1176379.898 7
  18265103.391   -14305365.439 7 -11074763.373 9
  19860194.711    -2959577.434 6  -2251215.539 7
  19939443.273   -20078377.926 6 -15434882.028 6
 95  2 19 18 33 59.9920000  0  6 28 18 14 29 22 19
  22006244.164    -4103994.372 5  -2146347.185 4
  19028604.820   -26545831.542 7 -16379520.877 7
  19175205.797    -1530779.079 6  -1146180.311 7
  18254052.844   -14363433.040 7 -11120010.863 9
  19866435.555    -2926769.820 6  -2225651.223 7
  19920513.258   -20177840.116 6 -15512384.994 6
 95  2 19 18 34 29.9920000  0  6 28 18 14 29 22 19
  21985679.305    -4212088.497 4  -2230576.270 4
  19008500.586   -26651486.027 7 -16461849.029 7
  19182649.242    -1491657.256 6  -1115695.837 7
  18243061.328   -14421192.455 7 -11165018.204 9
  19872755.766    -2893566.931 6  -2199778.875 7
  19901628.266   -20277085.262 6 -15589718.828 6
 95  2 19 18 34 59.9920000  0  6 28 18 14 29 22 19
  21965145.000    -4319985.664 5  -2314651.863 3
  18988433.477   -26756934.991 7 -16544017.042 8
  19190167.180    -1452153.772 6  -1084913.948 7
  18232137.273   -14478609.420 7 -11209758.698 9
  19879152.469    -2859947.759 6  -2173582.188 7
  19882784.641   -20376097.223 6 -15666870.972 6
 95  2 19 18 35 29.9920000  0  6 28 18 14 29 22 19
  21944649.055    -4427696.074 4  -2398581.979 4
  18968405.883   -26862172.423 7 -16626020.215 7
  19197754.172    -1412287.122 6  -1053849.084 7
  18221271.297   -14535704.409 7 -11254248.310 9
  19885633.289    -2825915.517 6  -2147063.594 7
  19863989.516   -20474891.797 6 -15743853.725 6
 95  2 19 18 35 59.9920000  0  6 28 18 14 29 22 19
  21924189.703    -4535218.609 4  -2482365.645 2
  18948422.125   -26967186.249 7 -16707849.163 8
  19205411.531    -1372054.655 6  -1022499.171 7
  18210467.492   -14592474.763 7 -11298484.962 9
  19892179.445    -2791495.012 6  -2120242.473 7
  19845229.578   -20573464.880 6 -15820663.876 6
 95  2 19 18 36 29.9920000  0  6 28 18 14 29 22 19
  21903761.680    -4642534.150 4  -2565988.083 2
  18928485.156   -27071954.617 7 -16789486.830 8
  19213145.211    -1331415.925 6   -990832.685 7
  18199730.602   -14648905.974 7 -11342457.343 8
  19898804.211    -2756679.042 6  -2093113.193 7
  19826516.430   -20671813.297 6 -15897298.988 6
 95  2 19 18 36 59.9920000  0  6 28 18 14 29 22 19
  21883379.789    -4749671.941 5  -2649471.995 2
  18908591.898   -27176506.067 7 -16870955.486 8
  19220952.859    -1290388.918 6   -958863.651 7
  18189048.172   -14705034.787 7 -11386194.086 9
  19905499.133    -2721498.598 6  -2065699.919 7
  19807833.461   -20769975.149 6 -15973788.713 6
 95  2 19 18 37 29.9920000  0  6 28 18 14 29 22 19
  21863021.211    -4856607.158 3  -2732798.071 3
  18888739.711   -27280827.515 7 -16952244.912 8
  19228832.203    -1248962.729 6   -926583.567 7
  18178429.016   -14760850.472 7 -11429686.836 9
  19912271.523    -2685925.001 6  -2037980.285 7
  19789194.563   -20867920.946 6 -16050110.089 6
 95  2 19 18 37 59.9920000  0  6 28 18 14 29 22 19
  21842721.234    -4963335.485 4  -2815962.902 1
  18868928.320   -27384942.597 7 -17033373.535 8
  19236793.195    -1207135.098 6   -893990.665 7
  18167864.617   -14816350.295 7 -11472933.462 8
  19919114.109    -2649967.711 6  -2009961.667 7
  19770598.781   -20965660.316 6 -16126270.627 6
 95  2 19 18 38 29.9920000  0  6 28 18 14 29 22 19
  21822449.203    -5069830.430 4  -2898945.900 2
  18849156.297   -27488836.488 7 -17114329.803 8
  19244834.375    -1164889.703 6   -861072.235 7
  18157367.820   -14871518.887 7 -11515921.977 8
  19926030.125    -2613594.676 6  -1981619.092 7
  19752037.164   -21063187.013 6 -16202265.438 6
 95  2 19 18 38 59.9920000  0  6 28 18 14 29 22 19
  21802234.930    -5176092.364 4  -2981747.320 1
  18829428.875   -27592513.185 7 -17195116.831 8
  19252951.727    -1122235.258 6   -827835.060 7
  18146929.422   -14926371.150 7 -11558664.008 8
  19933033.094    -2576809.598 6  -1952955.446 7
  19733520.188   -21160495.734 6 -16278090.393 6
 95  2 19 18 39 29.9920000  0  6 28 18 14 29 22 19
  21782050.656    -5282130.400 4  -3064374.302 2
  18809737.891   -27695983.466 7 -17275743.021 8
  19261143.758    -1079182.118 6   -794287.219 7
  18136547.656   -14980924.237 7 -11601172.920 8
  19940108.023    -2539636.280 6  -1923989.253 7
  19715047.336   -21257588.990 6 -16353747.472 6
 95  2 19 18 39 59.9920000  0  6 28 18 14 29 22 19
  21761920.094    -5387950.639 5  -3146831.553 1
  18790087.227   -27799243.770 7 -17356205.589 8
  19269409.625    -1035734.130 6   -760431.701 7
  18126225.305   -15035173.982 7 -11643445.453 8
  19947249.750    -2502095.430 6  -1894736.693 7
  19696607.484   -21354476.875 6 -16429244.486 6
 95  2 19 18 40 29.9920000  0  6 28 18 14 29 22 19
  21741822.508    -5493547.720 5  -3229114.875 4
  18770483.781   -27902270.955 7 -17436486.498 7
  19277751.906     -991897.431 6   -726273.288 7
  18115960.781   -15089116.878 7 -11685478.886 8
  19954466.680    -2464188.081 6  -1865198.540 7
  19678214.070   -21451136.293 6 -16504563.496 6
 95  2 19 18 40 59.9920000  0  6 28 18 14 29 22 19
  21721769.781    -5598914.444 5  -3311218.745 3
  18750924.234   -28005054.691 7 -17516577.705 8
  19286166.133     -947680.655 6   -691818.721 7
  18105756.164   -15142733.813 7 -11727258.317 8
  19961751.563    -2425903.947 6  -1835366.802 7
  19659864.195   -21547559.914 6 -16579698.754 6
 95  2 19 18 41 29.9910000  0  6 28 18 14 29 22 19
  21701762.066    -5704030.504 4  -3393127.266 4
  18731414.901   -28107579.986 7 -17596467.540 8
  19294652.698     -903090.768 6   -657073.407 7
  18095624.534   -15195984.115 7 -11768752.065 8
  19969111.089    -2387219.243 6  -1805222.912 7
  19641561.487   -21643740.227 6 -16654644.406 6
 95  2 19 18 41 59.9910000  0  6 28 18 14 29 22 19
  21681817.081    -5808910.356 5  -3474851.762 3
  18711950.737   -28209860.576 7 -17676166.695 8
  19303205.237     -858145.192 6   -622050.935 7
  18085560.112   -15248872.068 7 -11809963.463 8
  19976546.909    -2348136.749 6  -1774769.067 7
  19623298.526   -21739705.619 6 -16729422.599 6
 95  2 19 18 42 29.9910000  0  6 28 18 14 29 22 19
  21661890.628    -5913560.659 4  -3556397.402 4
  18692531.862   -28311904.466 7 -17755681.402 8
  19311822.784     -812861.732 6   -586765.188 7
  18075559.831   -15301415.852 7 -11850906.673 8
  19984059.386    -2308671.544 6  -1744017.005 7
  19605078.464   -21835468.090 6 -16804042.679 6
 95  2 19 18 42 59.9910000  0  7 28 18 14 29 31 22 19
  21642029.620    -6017968.740 5  -3637754.241 4
  18673158.542   -28413707.314 7 -17835008.293 8
  19320506.183     -767228.437 6   -551206.849 6
  18065628.644   -15353604.060 7 -11891572.808 8
  22130841.253          -0.32613
  19991643.909    -2268821.755 6  -1712965.255 6
  19586894.276   -21931027.382 6 -16878504.434 6
 95  2 19 18 43 29.9910000  0  7 28 18 14 29 31 22 19
  21622209.401    -6122133.623 5  -3718921.598 5
  18653833.487   -28515262.561 7 -17914142.245 8
  19329257.745     -721233.634 6   -515366.796 7
  18055762.401   -15405455.573 7 -11931976.597 8
  22106363.870     -128665.923 3
  19999296.511    -2228606.631 6  -1681628.839 6
  19568750.175   -22026363.387 6 -16952792.183 6
 95  2 19 18 43 59.9910000  0  7 28 18 14 29 31 22 19
  21602433.355    -6226056.546 5  -3799900.456 2
  18634556.159   -28616567.441 7 -17993081.102 8
  19338080.128     -674872.541 6   -479241.332 7
  18045954.151   -15457000.617 7 -11972141.574 8
  22081856.964     -257411.781 3        -0.19612
  20007013.292    -2188043.527 6  -1650021.271 6
  19550653.886   -22121466.067 6 -17026898.135 6
 95  2 19 18 44 29.9910000  0  7 28 18 14 29 31 22 19
  21582701.441    -6329728.032 5  -3880683.372 4
  18615325.644   -28717619.560 7 -18071823.002 8
  19346976.987     -628142.471 6   -442828.347 7
  18036201.964   -15508236.686 7 -12012065.790 8
  22057347.315     -386227.690 4   -100376.043 1
  20014800.222    -2147128.942 6  -1618139.833 6
  19532606.237   -22216317.956 6 -17100808.660 6
 95  2 19 18 44 59.9910000  0  7 28 18 14 29 31 22 19
  21563015.651    -6433154.715 5  -3961275.524 5
  18596140.667   -28818431.336 7 -18150377.624 8
  19355934.800     -581053.005 6   -406135.323 7
  18026512.550   -15559167.620 7 -12051752.237 8
  22032819.417     -515104.742 4   -200799.528 2
  20022651.433    -2105857.887 6  -1585980.614 6
  19514599.401   -22310934.713 6 -17174535.970 6
 95  2 19 18 45 29.9910000  0  7 28 18 14 29 31 22 19
  21543388.581    -6536332.714 5  -4041673.909 5
  18577003.644   -28919003.391 7 -18228745.445 8
  19364963.230     -533605.913 6   -369163.627 7
  18016877.917   -15609794.010 7 -12091201.374 8
  22008279.222     -644021.187 3   -301253.731 1
  20030578.034    -2064215.818 6  -1553532.303 6
  19496638.339   -22405327.916 6 -17248089.084 6
 95  2 19 18 45 59.9910000  0  7 28 18 14 29 31 22 19
  21523797.823    -6639264.358 5  -4121880.347 4
  18557908.237   -29019352.632 7 -18306939.656 8
  19374058.308     -485815.657 6   -331924.546 6
  18007305.800   -15660102.514 7 -12130402.819 8
  21983754.276     -772949.425 3   -401717.184 2
  20038570.722    -2022208.232 6  -1520799.166 6
  19478712.636   -22499531.077 6 -17321494.114 6
 95  2 19 18 46 29.9910000  0  7 28 18 14 29 31 22 19
  21504258.636    -6741940.619 5  -4201887.791 5
  18538857.534   -29119479.792 7 -18384960.807 8
  19383217.433     -437679.796 6   -294416.142 7
  17997797.097   -15710066.483 7 -12169335.777 8
  21959213.456     -901873.449 4   -502177.334 1
  20046636.370    -1979835.733 6  -1487781.675 6
  19460818.323   -22593554.529 6 -17394759.117 6
 95  2 19 18 46 59.9910000  0  7 28 18 14 29 31 22 19
  21484773.769    -6844339.432 5  -4281679.030 5
  18519847.214   -29219367.789 7 -18462795.611 8
  19392443.909     -389186.234 6   -256629.009 6
  17988360.120   -15759667.529 7 -12207985.950 8
  21934683.940    -1030781.651 3   -602625.145 2
  20054768.401    -1937090.303 6  -1454473.596 6
  19442961.308   -22687385.939 6 -17467874.468 6
 95  2 19 18 47 29.9910000  0  7 28 18 14 29 31 22 19
  21465337.245    -6946473.705 5  -4361264.145 4
  18500885.183   -29319017.044 7 -18540444.376 8
  19401734.190     -340366.580 6   -218587.781 7
  17978987.964   -15808925.325 7 -12246368.646 8
  21910151.792    -1159701.372 4   -703081.983 1
  20062967.769    -1894012.725 6  -1420906.704 6
  19425141.862   -22781024.844 6 -17540839.824 6
 95  2 19 18 47 59.9910000  0  7 28 18 14 29 31 22 19
  21445960.355    -7048343.791 5  -4440643.394 5
  18481967.839   -29418422.249 7 -18617902.982 8
  19411084.300     -291232.174 6   -180301.296 6
  17969677.230   -15857841.393 7 -12284485.071 8
  21885612.987    -1288651.973 3   -803562.849 1
  20071222.886    -1850614.956 6  -1387090.319 6
  19407359.019   -22874461.697 6 -17613647.734 6
 95  2 19 18 48 29.9910000  0  7 28 18 14 29 31 22 19
  21426620.511    -7149930.745 5  -4519802.016 5
  18463103.745   -29517561.092 7 -18695154.038 8
  19420499.714     -241772.086 6   -141761.025 6
  17960433.651   -15906409.158 7 -12322330.092 8
  21861063.683    -1417639.603 3   -904072.570 1
  20079546.784    -1806881.822 6  -1353012.580 6
  19389626.675   -22967658.755 6 -17686268.782 6
 95  2 19 18 48 59.9910000  0  7 28 18 14 29 31 22 19
  21407339.089    -7251243.471 5  -4598746.932 4
  18444289.026   -29616428.098 7 -18772193.256 8
  19429969.245     -192005.519 6   -102981.940 6
  17951256.026   -15954643.998 7 -12359915.688 8
  21836520.214    -1546665.708 3  -1004612.242 1
  20087930.464    -1762826.651 6  -1318683.941 6
  19371940.605   -23060618.942 6 -17758705.272 6
 95  2 19 18 49 29.9910000  0  7 28 18 14 29 31 22 19
  21388121.503    -7352274.044 5  -4677472.037 5
  18425529.636   -29715012.298 7 -18849012.115 8
  19439497.847     -141921.462 6    -63955.458 6
  17942144.847   -16002527.436 7 -12397227.461 8
  21811968.425    -1675710.626 3  -1105166.574 1
  20096376.901    -1718446.974 6  -1284102.429 6
  19354297.495   -23153337.449 6 -17830953.434 6
 95  2 19 18 49 59.9910000  0  7 28 18 14 29 31 22 19
  21368940.831    -7453032.356 5  -4755984.956 5
  18406816.690   -29813352.391 7 -18925640.755 9
  19449090.284      -91517.045 6    -24679.348 6
  17933097.987   -16050060.449 7 -12434266.186 8
  21787396.534    -1804780.168 3  -1205740.105 1
  20104879.183    -1673755.799 6  -1249278.174 6
  19336694.292   -23245832.547 6 -17903027.506 6
 95  2 19 18 50 29.9910000  0  7 28 18 14 29 31 22 19
  21349823.089    -7553520.136 5  -4834287.087 5
  18388148.706   -29911450.596 7 -19002080.901 9
  19458741.401      -40794.285 6     14844.825 6
  17924121.511   -16097234.717 7 -12471025.361 8
  21762823.659    -1933860.184 3  -1306321.794 1
  20113439.839    -1628766.158 6  -1214221.370 6
  19319131.519   -23338114.109 6 -17974935.201 6
 95  2 19 18 50 59.9910000  0  7 28 18 14 29 31 22 19
  21330758.183    -7653699.638 5  -4912349.021 5
  18369535.933   -30009266.144 7 -19078300.802 9
  19468460.542       10281.685 6     54644.224 6
  17915220.315   -16144011.372 7 -12507474.719 8
  21738279.050          -0.69913
  20122069.417    -1583439.023 6  -1178901.585 6
  19301613.222   -23430169.579 6 -18046666.725 6
 95  2 19 18 51 29.9910000  0  7 28 18 14 29 31 22 19
  21311745.925    -7753623.264 5  -4990211.558 5
  18350961.284   -30106857.974 7 -19154346.381 8
  19478239.276       61655.828 6     94675.973 6
  17906384.628   -16190439.645 7 -12543652.607 8
  21713712.581     -129084.109 3        -0.16811
  20130748.081    -1537818.579 6  -1143353.239 6
  19284132.995   -23522051.484 6 -18118262.989 7
 95  2 19 18 51 59.9910000  0  7 28 18 14 29 31 22 19
  21292775.253    -7853303.685 5  -5067884.561 5
  18332433.261   -30204232.238 7 -19230222.430 8
  19488065.050      113311.084 6    134926.753 6
  17897611.612   -16236549.997 7 -12579582.756 8
  21689133.284     -258226.077 3   -100630.095 1
  20139483.894    -1491907.150 6  -1107578.147 6
  19266675.862   -23613774.332 6 -18189735.314 7
 95  2 19 18 52 29.9910000  0  8 28 18 14 29 31 22 19 27
  21273855.948    -7952717.393 5  -5145349.750 5
  18313956.409   -30301343.287 7 -19305893.364 8
  19497951.347      165257.040 6    175404.065 6
  17888895.589   -16282337.202 7 -12615261.105 8
  21664562.651     -387408.753 3   -201291.709 3
  20148281.417    -1445681.802 6  -1071558.459 6
  19249254.909   -23705327.294 6 -18261075.260 6
  22378619.550     -120165.924 3
 95  2 19 18 52 59.9910000  0  8 28 18 14 29 31 22 19 27
  21254982.917    -8051862.582 5  -5222605.722 4
  18295524.487   -30398189.930 7 -19381358.276 8
  19507891.737      217487.817 6    216103.319 6
  17880244.386   -16327810.778 7 -12650695.068 8
  21639964.597     -516636.937 3   -301988.813 1
  20157137.917    -1399140.490 6  -1035292.568 6
  19231866.261   -23796702.782 6 -18332276.916 6
  22355754.308     -240293.191 3        -0.47911
 95  2 19 18 53 29.9910000  0  8 28 18 14 29 31 22 19 27
  21236171.878    -8150749.431 5  -5299660.399 5
  18277141.542   -30494792.739 7 -19456633.191 8
  19517883.448      269987.769 6    257012.307 6
  17871647.605   -16372982.927 7 -12685894.153 8
  21615369.612     -645901.475 4   -402714.229 2
  20166049.151    -1352311.688 6   -998802.640 6
  19214509.784   -23887904.956 6 -18403343.518 7
  22332901.089     -360384.554 3    -93578.018 1
 95  2 19 18 53 59.9910000  0  8 28 18 14 29 31 22 19 27
  21217406.019    -8249368.953 5  -5376506.754 5
  18258805.112   -30591151.705 7 -19531718.097 8
  19527923.472      322762.061 6    298135.056 6
  17863107.276   -16417855.186 7 -12720859.563 8
  21590763.261     -775179.882 4   -503450.471 3
  20175008.644    -1305207.773 6   -962098.356 6
  19197190.034   -23978945.046 6 -18474283.827 7
  22310066.050     -480438.270 4
 95  2 19 18 54 29.9910000  0  8 28 18 14 29 31 22 19 27
  21198696.636    -8347706.952 5  -5453133.759 3
  18240515.144   -30687263.097 7 -19606610.086 8
  19538020.151      375809.711 6    339470.839 6
  17854631.112   -16462407.531 7 -12755575.684 8
  21566165.144     -904448.355 5   -604178.965 2
  20184026.480    -1257828.268 6   -925179.325 6
  19179893.972   -24069819.793 6 -18545095.285 7
  22287221.245     -600447.517 3
 95  2 19 18 54 59.9910000  0  8 28 18 14 29 31 22 19 27
  21180035.214    -8445750.581 4  -5529531.370 5
  18222276.558   -30783125.488 7 -19681308.046 8
  19548164.495      429132.851 6    381021.283 6
  17846219.870   -16506609.227 7 -12790018.577 8
  21541569.448    -1033689.095 5   -704885.864 4
  20193098.855    -1210163.745 6   -888038.192 6
  19162632.870   -24160510.203 6 -18615763.089 7
  22264399.808     -720382.184 3        -0.48311
 95  2 19 18 55 29.9910000  0  8 28 18 14 29 31 22 19 27
  21161432.206    -8543507.565 5  -5605705.640 5
  18204075.112   -30878755.861 7 -19755825.209 8
  19558364.073      482720.638 6    422777.936 6
  17837873.448   -16550471.413 7 -12824196.912 8
  21516978.073    -1162928.491 5   -805591.731 4
  20202222.769    -1162232.072 6   -850688.900 6
  19145411.401   -24251031.655 6 -18686299.272 7
  22241595.597     -840239.912 2    -93396.063 1
 95  2 19 18 55 59.9910000  0  8 28 18 14 29 31 22 19 27
  21142888.995    -8640970.306 5  -5681650.641 5
  18185924.144   -30974137.760 7 -19830148.763 8
  19568609.620      536571.028 6    464739.209 6
  17829592.058   -16593981.411 7 -12858100.824 8
  21492381.378    -1292188.800 5   -906313.897 4
  20211393.956    -1114029.695 6   -813128.666 6
  19128220.980   -24341374.286 6 -18756696.106 6
  22218799.401     -960020.389 2   -186731.442 1
 95  2 19 18 56 29.9910000  0  8 28 18 14 29 31 22 19 27
  21124397.940    -8738114.846 5  -5757347.658 4
  18167832.112   -31069234.597 7 -19904250.187 8
  19578909.605      590700.918 6    506918.292 6
  17821388.440   -16637101.459 7 -12891700.869 8
  21467784.581    -1421451.509 5  -1007037.949 4
  20220620.105    -1065531.833 6   -775338.182 6
  19111065.425   -24431497.109 6 -18826921.668 7
  22196021.440    -1079698.686 3   -279987.246 1
 95  2 19 18 56 59.9910000  0  8 28 18 14 29 31 22 19 27
  21105968.448    -8834952.349 5  -5832805.447 4
  18149786.995   -31164050.786 7 -19978132.928 8
  19589264.198      645103.011 6    549309.469 6
  17813253.964   -16679843.093 7 -12925006.045 8
  21443183.175    -1550722.673 5  -1107768.638 2
  20229899.964    -1016765.300 6   -737338.342 6
  19093960.847   -24521400.987 7 -18896976.602 6
  22173266.050    -1199289.161 3   -373174.662 1
 95  2 19 18 57 29.9910000  0  8 28 18 14 29 31 22 19 27
  21087607.136    -8931480.629 5  -5908022.295 5
  18131797.308   -31258580.535 7 -20051792.473 8
  19599670.940      699785.755 6    591919.331 6
  17805192.003   -16722211.653 7 -12958020.526 8
  21418586.925    -1679987.820 5  -1208494.637 2
  20239231.964     -967735.245 6   -699133.164 6
  19076892.370   -24611093.314 7 -18966866.706 7
  22150522.651    -1318811.306 3   -466308.759 2
 95  2 19 18 57 59.9910000  0  8 28 18 14 29 31 22 19 27
  21069296.480    -9027686.010 5  -5982987.501 5
  18113866.315   -31352804.333 7 -20125213.606 8
  19610129.550      754751.764 6    634749.923 6
  17797204.628   -16764193.885 7 -12990733.966 8
  21393994.870    -1809201.176 4  -1309180.294 4
  20248612.503     -918424.044 6   -660708.925 6
  19059868.073   -24700564.086 6 -19036584.176 6
  22127791.745    -1438266.586 3   -559390.720 4
 95  2 19 18 58 29.9910000  0  8 28 18 14 29 31 22 19 27
  21051049.956    -9123578.731 5  -6057709.097 5
  18095990.440   -31446739.930 7 -20198410.178 8
  19620639.316      809992.150 6    677794.324 6
  17789284.503   -16805815.780 7 -13023166.621 8
  21369411.362    -1938351.202 3  -1409816.593 2
  20258047.698     -868840.104 5   -622072.147 6
  19042884.315   -24789820.837 7 -19106134.871 7
  22105067.769    -1557665.741 3   -652429.014 2
 95  2 19 18 58 59.9910000  0  8 28 18 14 29 31 22 19 27
  21032861.019    -9219171.665 5  -6132197.073 5
  18078165.683   -31540408.297 7 -20271398.520 8
  19631201.847      865483.121 6    721033.970 6
  17781425.128   -16847110.916 7 -13055344.668 8
  21344858.589    -2067453.126 4  -1510415.424 3
  20267536.987     -819005.036 6   -583239.709 6
  19025933.191   -24878892.470 6 -19175541.312 6
  22082359.503    -1677013.738 3   -745427.449 1
 95  2 19 18 59 29.9900000  0  8 28 18 14 29 31 22 19 27
  21014731.756    -9314445.579 5  -6206436.442 5
  18060396.037   -31633796.694 7 -20344168.697 9
  19641809.475      921217.528 6    764463.310 6
  17773631.412   -16888067.613 7 -13087258.989 8
  21320298.154    -2196503.031 4  -1610973.721 2
  20277066.615     -768901.069 6   -544197.706 6
  19009018.787   -24967769.822 7 -19244796.383 7
  22059660.467    -1796288.358 3   -838368.626 1
 95  2 19 18 59 59.9900000  0  8 28 18 14 29 31 22 19 27
  20996661.006    -9409404.451 5  -6280430.344 5
  18042677.795   -31726912.733 7 -20416726.646 9
  19652459.428      977178.560 6    808069.239 6
  17765898.561   -16928694.113 7 -13118916.013 8
  21295739.365    -2325521.896 3  -1711507.852 1
  20286653.818     -718534.923 6   -504951.430 6
  18992140.858   -25056457.427 6 -19313903.595 7
  22036977.670    -1915492.013 3   -931254.493 2
 95  2 19 19  0 29.9900000  0  8 28 18 14 29 31 22 19 27
  20978648.186    -9504040.873 5  -6354172.971 5
  18025010.912   -31819753.849 7 -20489070.371 9
  19663146.287     1033364.219 6    851850.203 6
  17758233.045   -16968985.607 7 -13150311.993 8
  21271199.662    -2454516.406 4  -1812023.014 2
  20296290.717     -667912.975 6   -465505.812 6
  18975297.451   -25144961.270 7 -19382867.616 6
  22014307.889    -2034614.230 2  -1024076.930 2
 95  2 19 19  0 59.9900000  0  8 28 18 14 29 31 22 19 27
  20960704.936    -9598339.746 5  -6427652.597 5
  18007398.084   -31912312.774 7 -20561194.200 9
  19673886.147     1089777.952 6    895808.899 6
  17750634.920   -17008908.702 7 -13181420.909 8
  21246660.108    -2583478.440 4  -1912512.860 3
  20305967.529     -617036.861 6   -425862.143 6
  18958493.748   -25233281.955 7 -19451688.907 7
  21991654.889    -2153644.899 2  -1116828.025 2
 95  2 19 19  1 29.9900000  0  8 28 18 14 29 31 22 19 27
  20942821.779    -9692302.361 5  -6500870.185 5
  17989835.264   -32004597.277 7 -20633104.199 9
  19684662.045     1146422.127 6    939947.137 6
  17743108.803   -17048459.817 7 -13212239.972 8
  21222119.975    -2712406.300 4  -2012976.084 2
  20315696.576     -565908.530 6   -386021.957 6
  18941724.615   -25321412.168 6 -19520361.800 7
  21969023.701    -2272598.767 3  -1209519.241 1
 95  2 19 19  1 59.9900000  0  8 28 18 14 29 31 22 19 27
  20925004.342    -9785929.943 5  -6573826.716 5
  17972329.326   -32096604.550 7 -20704798.178 9
  19695488.545     1203311.551 6    984276.509 5
  17735652.748   -17087641.613 7 -13242771.254 8
  21197596.334    -2841285.751 4  -2113401.570 2
  20325473.139     -514529.437 6   -345986.367 6
  18924987.100   -25409355.141 7 -19588888.770 7
  21946396.787    -2391483.426 2  -1302156.496 1
 95  2 19 19  2 29.9900000  0  8 28 18 14 29 31 22 19 27
  20907258.412    -9879213.359 5  -6646515.045 5
  17954875.943   -32188314.852 7 -20776260.756 8
  19706367.092     1260466.313 6   1028812.612 6
  17728271.053   -17126441.148 7 -13273004.668 8
  21173090.889    -2970103.395 4  -2213778.897 2
  20335298.990     -462892.162 5   -305749.612 6
  18908292.076   -25497097.684 6 -19657259.576 6
  21923781.584    -2510295.520 2  -1394737.309 1
 95  2 19 19  2 59.9900000  0  8 28 18 14 29 31 22 19 27
  20889573.506    -9972146.179 5  -6718930.203 5
  17937484.865   -32279709.424 7 -20847477.308 9
  19717290.631     1317893.167 6   1073560.754 5
  17720962.553   -17164850.399 7 -13302933.973 8
  21148579.186    -3098859.910 4  -2314108.555 3
  20345173.053     -411003.410 6   -265316.875 6
  18891633.756   -25584619.981 7 -19725458.753 6
  21901192.217    -2629030.940 2  -1487258.325 2
 95  2 19 19  3 29.9900000  0  8 28 18 14 29 31 22 19 27
  20871954.506   -10064724.142 5  -6791068.827 5
  17920153.404   -32370765.543 7 -20918430.140 9
  19728274.842     1375600.531 6   1118527.453 6
  17713724.725   -17202875.755 7 -13332564.131 8
  21124092.951    -3227551.936 5  -2414387.957 2
  20355096.983     -358846.750 6   -224675.380 6
  18875023.201   -25671921.619 7 -19793485.998 6
  21878616.662    -2747693.560 3  -1579722.580 4
 95  2 19 19  3 59.9900000  0  8 28 18 14 29 31 22 19 27
  20854402.545   -10156957.523 5  -6862938.986 5
  17902893.147   -32461490.180 7 -20989124.659 9
  19739305.420     1433571.693 6   1163699.729 6
  17706562.022   -17240523.707 7 -13361900.203 8
  21099612.732    -3356193.854 5  -2514628.302 2
  20365071.404     -306444.882 6   -183842.834 6
  18858443.514   -25759035.364 7 -19861366.819 7
  21856043.740    -2866298.675 3  -1672142.080 3
 95  2 19 19  4 29.9900000  0  8 28 18 14 29 31 22 19 27
  20836913.303   -10248844.946 5  -6934539.555 5
  17885690.404   -32551890.662 7 -21059566.590 9
  19750385.029     1491790.603 5   1209065.041 6
  17699467.889   -17277795.307 7 -13390943.018 8
  21075142.576    -3484794.934 5  -2614836.855 3
  20375086.436     -253805.940 6   -142825.553 6
  18841901.467   -25845965.950 7 -19929104.937 7
  21833489.342    -2984842.745 5  -1764514.048 3
 95  2 19 19  4 59.9900000  0  8 28 18 14 29 31 22 19 27
  20819500.397   -10340359.781 5  -7005849.790 5
  17868550.107   -32641956.136 7 -21129747.475 9
  19761511.279     1550270.261 5   1254633.535 5
  17692453.381   -17314664.670 7 -13419672.409 8
  21050681.170    -3613322.341 5  -2714987.970 2
  20385157.709     -200902.660 6   -101602.265 6
  18825400.967   -25932699.014 6 -19996689.114 7
  21810945.982    -3103297.518 4  -1856816.388 4
 95  2 19 19  5 29.9900000  0  8 28 18 14 29 31 22 19 27
  20802152.514   -10431513.389 5  -7076878.550 5
  17851468.272   -32731714.608 7 -21199689.142 9
  19772685.686     1608979.861 6   1300381.185 5
  17685507.975   -17351155.222 7 -13448106.618 8
  21026241.061    -3741774.131 5  -2815080.200 2
  20395271.037     -147741.752 6    -60178.261 5
  18808928.951   -26019258.598 6 -20064138.132 7
  21788414.053    -3221675.266 3  -1949058.736 2
 95  2 19 19  5 59.9900000  0  8 28 18 14 29 31 22 19 27
  20784876.420   -10522308.855 5  -7147628.256 5
  17834442.943   -32821176.490 7 -21269399.701 9
  19783896.998     1667893.078 6   1346287.530 5
  17678633.787   -17387274.743 7 -13476251.711 8
  21001815.693    -3870144.337 5  -2915108.821 3
  20405434.217      -94342.949 6    -18568.907 6
  18792492.545   -26105636.501 7 -20131445.585 7
  21765907.420    -3339966.226 4  -2041233.449 1
 95  2 19 19  6 29.9900000  0  8 28 18 14 29 31 22 19 27
  20767672.436   -10612740.910 5  -7218094.807 5
  17817479.818   -32910326.296 7 -21338867.082 9
  19795143.608     1726998.410 6   1392343.555 5
  17671831.295   -17423023.395 7 -13504107.814 8
  20977405.092    -3998418.469 5  -3015062.603 3
  20415640.795      -40695.974 5     23233.842 6
  18776095.193   -26191806.053 7 -20198590.684 7
  21743411.123    -3458157.640 4  -2133330.559 4
 95  2 19 19  6 59.9900000  0  8 28 18 14 29 31 22 19 27
  20750542.107   -10702771.699 5  -7288248.650 5
  17800583.795   -32999118.164 7 -21408055.541 9
  19806435.092     1786328.693 6   1438574.867 5
  17665106.928   -17458362.535 7 -13531644.826 8
  20953014.482    -4126552.232 5  -3114906.983 4
  20425905.475       13228.541 5     65252.860 5
  18759742.404   -26277732.217 7 -20265546.125 7
  21720948.897    -3576221.365 5  -2225328.256 4
 95  2 19 19  7 29.9900000  0  8 28 18 14 29 31 22 19 27
  20733472.467   -10792451.408 5  -7358128.919 5
  17783748.397   -33087596.369 7 -21476999.589 9
  19817754.537     1845831.267 6   1484940.439 5
  17658448.693   -17493347.440 7 -13558905.804 8
  20928656.326    -4254603.249 5  -3214686.916 3
  20436207.568       67371.046 5    107441.743 6
  18743425.975   -26363460.505 7 -20332347.383 7
  21698495.037    -3694212.704 5  -2317269.492 5
 95  2 19 19  7 59.9900000  0  8 28 18 14 29 31 22 19 27
  20716470.623   -10881789.999 5  -7427743.430 5
  17766969.225   -33175767.260 7 -21545704.174 9
  19829114.318     1905503.164 6   1531437.952 6
  17651859.147   -17527988.757 7 -13585899.051 8
  20904302.850    -4382578.985 5  -3314408.163 4
  20446547.115      121707.643 5    149781.834 6
  18727149.545   -26449001.116 7 -20399002.398 7
  21676057.436    -3812151.062 5  -2409169.517 2
 95  2 19 19  8 29.9900000  0  8 28 18 14 29 31 22 19 27
  20699536.162   -10970767.506 5  -7497076.509 5
  17750248.865   -33263621.279 7 -21614161.851 9
  19840503.920     1965379.187 5   1578094.510 6
  17645335.186   -17562268.660 7 -13612610.683 8
  20879963.623    -4510467.693 5  -3414061.624 3
  20456929.170      176248.102 5    192280.801 6
  18710911.662   -26534347.519 7 -20465506.068 7
  21653617.772    -3930034.885 5  -2501026.980 3
 95  2 19 19  8 59.9900000  0  8 28 18 14 29 31 22 19 27
  20682678.483   -11059381.832 5  -7566126.634 5
  17733589.326   -33351184.876 7 -21682393.224 9
  19851940.764     2025472.387 5   1624920.294 5
  17638881.303   -17596181.099 7 -13639035.976 8
  20855637.381    -4638274.000 5  -3513650.871 4
  20467342.389      230983.110 5    234931.371 6
  18694701.717   -26619514.338 7 -20531869.818 7
  21631204.795    -4047870.149 5  -2592846.609 4
 95  2 19 19  9 29.9900000  0  8 28 18 14 29 31 22 19 27
  20665881.928   -11147620.529 5  -7634884.038 5
  17716983.022   -33438446.907 7 -21750389.603 9
  19863420.389     2085789.369 6   1671920.443 5
  17632499.311   -17629714.035 7 -13665165.557 8
  20831333.053    -4765992.482 5  -3613171.706 4
  20477795.053      285919.221 5    277738.631 6
  18678532.365   -26704491.387 7 -20598085.695 7
  21608786.334    -4165640.764 4  -2684615.854 2
 95  2 19 19  9 59.9900000  0  8 28 18 14 29 31 22 19 27
  20649167.029   -11235488.663 5  -7703352.702 5
  17700432.857   -33525413.938 7 -21818156.117 9
  19874937.217     2146317.573 5   1719085.182 5
  17626192.186   -17662867.766 7 -13690999.653 8
  20807050.076    -4893626.086 5  -3712626.365 5
  20488283.803      341035.431 5    320686.217 5
  18662392.834   -26789295.810 7 -20664167.050 7
  21586384.451    -4283349.374 4  -2776336.798 1
 95  2 19 19 10 29.9900000  0  8 28 18 14 29 31 22 19 27
  20632508.365   -11322994.687 5  -7771539.186 5
  17683940.217   -33612101.060 7 -21885704.519 9
  19886492.670     2207035.046 6   1766397.434 5
  17619954.576   -17695635.913 7 -13716533.290 8
  20782777.459    -5021193.699 5  -3812029.653 4
  20498803.850      396323.024 5    363767.377 6
  18646286.311   -26873934.191 7 -20730119.035 7
  21563994.818    -4401011.676 4  -2868021.615 1
 95  2 19 19 10 59.9900000  0  8 28 18 14 29 31 22 19 27
  20615934.186   -11410121.833 5  -7839430.423 6
  17667498.553   -33698482.652 7 -21953014.847 9
  19898081.475     2267939.291 5   1813855.208 5
  17613797.498   -17727996.933 7 -13741749.697 8
  20758511.514    -5148676.840 5  -3911367.084 4
  20509368.834      451806.282 5    407000.981 6
  18630217.318   -26958394.320 7 -20795932.124 7
  21541617.740    -4518617.229 4  -2959662.230 1
 95  2 19 19 11 29.9900000  0  8 28 18 14 29 31 22 19 27
  20599422.522   -11496884.082 5  -7907037.334 6
  17651121.248   -33784549.644 7 -22020080.029 9
  19909701.272     2328989.540 5   1861426.735 5
  17607711.904   -17759976.828 7 -13766669.110 8
  20734271.717    -5276086.805 5  -4010647.512 2
  20519956.381      507467.918 5    450373.599 5
  18614174.053   -27042696.249 7 -20861621.926 7
  21519244.303    -4636182.965 3  -3051271.771 2
 95  2 19 19 11 59.9900000  0  8 28 18 14 29 31 22 19 27
  20582991.529   -11583248.953 5  -7974334.627 6
  17634805.803   -33870277.835 7 -22086881.216 9
  19921348.029     2390205.233 5   1909127.185 5
  17601701.623   -17791559.485 7 -13791278.989 8
  20710039.709    -5403379.336 4  -4109836.422 5
  20530587.842      563343.196 6    493912.732 5
  18598169.568   -27126808.190 7 -20927163.705 7
  21496878.982    -4753685.283 2  -3142832.003 1
 95  2 19 19 12 29.9900000  0  8 28 18 14 29 31 22 19 27
  20566626.240   -11669227.675 5  -8041330.965 5
  17618557.170   -33955667.404 7 -22153418.543 9
  19933025.764     2451580.587 5   1956952.044 5
  17595764.701   -17822765.711 7 -13815595.551 8
  20685844.858    -5530561.329 5  -4208939.202 4
  20541263.678      619432.027 6    537618.250 5
  18582198.701   -27210739.465 7 -20992564.693 7
  21474528.201    -4871144.567 3  -3234358.541 1
 95  2 19 19 12 59.9900000  0  8 28 18 14 29 31 22 19 27
  20550341.389   -11754817.869 5  -8108024.592 5
  17602376.225   -34040699.668 7 -22219677.454 9
  19944737.522     2513108.151 5   2004895.507 5
  17589893.154   -17853611.842 7 -13839631.506 8
  20661666.592    -5657622.187 5  -4307947.596 3
  20551977.928      675740.269 6    581494.730 6
  18566261.576   -27294491.734 7 -21057826.194 7
  21452195.006    -4988537.593 2
 95  2 19 19 13 29.9900000  0  8 28 18 14 29 31 22 19 27
  20534129.709   -11840025.999 5  -8174420.496 5
  17586265.272   -34125378.302 7 -22285660.811 8
  19956472.951     2574786.900 5   2052956.794 5
  17584091.100   -17884103.267 7 -13863391.081 8
  20637512.920    -5784556.273 5  -4406857.206 4
  20562725.061      732243.418 6    625523.079 6
  18550353.193   -27378057.648 7 -21122942.487 7
  21429866.615    -5105860.147 3
 95  2 19 19 13 59.9900000  0  7 28 18 14 29 31 22 19
  20517984.842   -11924840.968 5  -8240510.062 5
  17570218.162   -34209700.997 7 -22351366.821 8
  19968241.740     2636647.223 5   2101159.549 5
  17578359.951   -17914224.229 7 -13886861.978 8
  20613382.350    -5911349.511 5  -4505657.070 4
  20573515.475      788940.521 5    669702.559 6
  18534494.498   -27461412.369 7 -21187894.213 7
 95  2 19 19 14 29.9900000  0  8 28 18 14 29 31 22 19 27
  20501917.147   -12009256.037 5  -8306287.997 5
  17554242.436   -34293656.175 7 -22416786.450 8
  19980053.701     2698705.973 5   2149516.922 5
  17572705.475   -17943938.572 7 -13910016.025 8
  20589286.232    -6038000.811 5  -4604346.335 4
  20584344.014      845830.737 6    714032.513 6
  18518675.365   -27544546.973 7 -21252674.423 7
  21385260.506          -0.14913
 95  2 19 19 14 59.9900000  0  8 28 18 14 29 31 22 19 27
  20485936.303   -12093259.489 5  -8371745.199 5
  17538334.029   -34377253.555 7 -22481927.276 8
  19991900.029     2760960.512 5   2198026.848 5
  17567131.459   -17973227.912 7 -13932838.903 8
  20565210.264    -6164496.039 5  -4702914.002 4
  20595206.053      902908.004 5    758508.214 6
  18502899.928   -27627453.450 7 -21317276.864 7
  21362983.358     -117076.494 3        -0.13011
 95  2 19 19 15 29.9900000  0  8 28 18 14 29 31 22 19 27
  20470031.193   -12176857.557 5  -8436886.492 5
  17522491.779   -34460511.811 7 -22546803.839 9
  20003784.381     2823411.830 5   2246690.107 5
  17561638.803   -18002095.962 7 -13955333.493 8
  20541164.576    -6290845.452 5  -4801368.043 3
  20606097.287      960145.826 5    803109.033 5
  18487156.545   -27710156.766 7 -21381720.997 7
  21340710.732     -234089.331 3    -91178.922 2
 95  2 19 19 15 59.9900000  0  8 28 18 14 29 31 22 19 27
  20454194.951   -12260038.145 5  -8501702.512 5
  17506711.881   -34543427.686 7 -22611413.612 9
  20015707.131     2886055.553 5   2295503.299 5
  17556223.318   -18030540.614 7 -13977498.171 8
  20517146.568    -6417044.721 5  -4899705.079 3
  20617022.342     1017563.698 5    847850.149 5
  18471460.139   -27792669.473 7 -21446016.607 7
  21318458.920     -351022.305 3   -182295.445 3
 95  2 19 19 16 29.9900000  0  8 28 18 14 29 31 22 19 27
  20438444.850   -12342810.274 5
  17490995.850   -34626011.191 7
  20027657.357     2948860.097 5   2344441.797 5
  17550890.959   -18058574.617 7 -13999342.861 8
  20493164.951    -6543095.752 5  -4997926.604 4
  20627979.522     1075145.652 5    892719.113 5
  18455791.373   -27875022.720 7 -21510187.955 7
  21296226.451     -467870.517 3   -273345.995 2
 95  2 19 19 16 59.9900000  0  8 28 18 14 29 31 22 19 27
  20422780.639   -12425178.039 5
  17475335.568   -34708278.011 7
  20039635.053     3011804.453 5   2393489.248 5
  17545628.357   -18086228.517 7 -14020891.371 8
  20469206.053    -6669009.525 5  -5096041.180 3
  20638967.912     1132880.167 5    937706.938 5
  18440144.850   -27957234.771 7
  21274004.740     -584646.944 4   -364340.573 4
 95  2 19 19 17 29.9900000  0  8 28 18 14 29 31 22 19 27
  20407179.412   -12507126.440 5
  17459751.358   -34790203.054 7
  20051640.600     3074894.265 5   2442650.039 5
  17540440.100   -18113496.393 7 -14042139.078 8
  20445269.045    -6794780.949 5  -5194044.823 4
  20649983.561     1190782.841 5    982825.811 5
  18424530.232   -28039289.513 7 -21638188.034 7
  21251803.139     -701333.115 5   -455264.769 4
 95  2 19 19 17 59.9890000  0  8 28 18 14 29 31 22 19 27
  20391660.446   -12588659.383 5
  17444224.892   -34871799.666 7
  20063673.509     3138115.241 5   2491913.030 5
  17535322.704   -18140381.649 7 -14063088.648 8
  20421360.915    -6920411.689 5  -5291938.861 3
  20661033.235     1248837.501 5   1028063.107 5
  18408946.962   -28121178.211 7 -21701997.409 7
  21229612.720     -817927.202 5   -546117.291 5
 95  2 19 19 18 29.9890000  0  8 28 18 14 29 31 22 19 27
  20376229.384   -12669780.602 5
  17428761.274   -34953067.276 7
  20075728.564     3201473.635 5   2541283.108 5
  17530280.735   -18166881.723 7 -14083738.074 8
  20397483.564    -7045910.058 5  -5389729.750 4
  20672107.649     1307045.328 5   1073419.744 5
  18393393.126   -28202897.326 7 -21765674.631 7
  21207445.532     -934451.478 4   -636915.372 4
 95  2 19 19 18 59.9890000  0  8 28 18 14 29 31 22 19 27
  20360871.939   -12750459.543 5        -0.27915
  17413362.860   -35033966.953 7 -22993652.026 9
  20087819.642     3265000.112 5   2590784.138 5
  17525318.759   -18192965.503 7 -14104063.111 8
  20373633.829    -7171248.351 5  -5487395.898 4
  20683223.251     1365447.407 5   1118927.757 5
  18377888.517   -28284400.179 7 -21829183.341 7
  21185278.189    -1050883.691 4   -727641.734 5
 95  2 19 19 19 29.9890000  0  8 28 18 14 29 31 22 19 27
  20345604.790   -12830718.256 5    -62539.468 5
  17398039.532   -35114508.207 7 -23056411.435 9
  20099932.907     3328674.805 5   2640400.673 5
  17520429.728   -18218646.646 7 -14124074.417 8
  20349809.228    -7296425.783 5  -5584936.685 4
  20694374.798     1424023.480 5   1164571.324 6
  18362411.642   -28365705.752 7 -21892538.332 7
  21163141.782    -1167240.373 5   -818309.226 2
 95  2 19 19 19 59.9890000  0  8 28 18 14 29 31 22 19 27
  20330412.923   -12910566.887 5   -124759.146 5
  17382780.696   -35194688.749 7 -23118889.778 9
  20112073.064     3392480.485 5   2690119.253 5
  17515622.001   -18243924.973 7 -14143771.826 8
  20326024.048    -7421435.197 5  -5682346.563 5
  20705549.407     1482763.391 5   1210342.584 5
  18346976.431   -28446823.984 7 -21955747.336 7
  21141009.079    -1283542.500 5   -908934.228 2
 95  2 19 19 20 29.9890000  0  8 28 18 14 29 31 22 19 27
  20315296.095   -12989984.577 5   -186643.023 5
  17367599.595   -35274465.953 7 -23181053.830 9
  20124245.462     3456419.196 5   2739941.502 5
  17510890.149   -18268779.905 7 -14163139.333 8
  20302275.274    -7546247.016 5  -5779602.456 5
  20716764.774     1541697.132 5   1256264.895 5
  18331579.751   -28527735.181 7 -22018795.019 7
  21118891.603    -1399765.905 5   -999497.850 3
 95  2 19 19 20 59.9890000  0  8 28 18 14 29 31 22 19 27
  20300262.228   -13068975.395 5   -248194.238 5
  17352496.306   -35353847.163 7 -23242909.311 8
  20136437.321     3520488.044 5   2789865.160 5
  17506239.407   -18293218.000 7 -14182182.024 8
  20278558.150    -7670859.996 5  -5876703.428 5
  20728007.759     1600804.650 5   1302322.626 5
  18316219.220   -28608444.135 7 -22081685.115 7
  21096785.587    -1515919.984 4  -1090007.487 2
 95  2 19 19 21 29.9890000  0  8 28 18 14 29 31 22 19 27
  20285317.181   -13147520.111 5   -309397.871 5
  17337467.837   -35432816.829 7 -23304444.111 8
  20148653.462     3584697.852 5   2839898.647 5
  17501671.024   -18317227.040 7 -14200890.393 8
  20254889.376    -7795253.709 5  -5973633.534 3
  20739288.954     1660074.447 5   1348506.787 6
  18300900.329   -28688947.717 7 -22144415.177 7
  21074704.314    -1631988.261 4  -1180450.273 2
 95  2 19 19 21 59.9890000  0  8 28 18 14 29 31 22 19 27
  20270452.204   -13225633.623 5   -370265.483 5
  17322514.485   -35511390.125 7 -23365670.063 9
  20160897.087     3649029.216 5   2890026.850 5
  17497178.579   -18340835.340 7 -14219286.502 8
  20231250.134    -7919462.912 5  -6070419.848 5
  20750597.376     1719470.697 5   1394789.493 5
  18285618.853   -28769263.588 7 -22206998.967 7
  21052627.860    -1747996.525 4  -1270846.264 1
 95  2 19 19 22 29.9890000  0  8 28 18 14 29 31 22 19 27
  20255670.142   -13303309.120 5   -430791.816 5
  17307635.743   -35589580.799 7 -23426597.862 9
  20173165.001     3713497.475 5   2940261.719 5
  17492757.962   -18364055.417 7 -14237380.084 8
  20207649.165    -8043497.958 5  -6167070.427 5
  20761916.368     1778985.780 5   1441164.831 5
  18270370.462   -28849399.567 7 -22269442.580 7
  21030559.618    -1863944.648 4  -1361195.418 3
 95  2 19 19 22 59.9890000  0  8 28 18 14 29 31 22 19 27
  20240972.384   -13380564.435 5   -490990.685 5
  17292825.829   -35667417.551 7 -23487249.849 9
  20185453.376     3778092.779 5   2990595.596 5
  17488410.900   -18386911.467 7 -14255190.023 8
  20184074.814    -8167392.294 5  -6263611.378 5
  20773260.517     1838587.950 5   1487608.003 5
  18255147.564   -28929381.319 7 -22331766.022 7
  21008506.626    -1979844.949 5  -1451507.318 1
 95  2 19 19 23 29.9890000  0  8 28 18 14 29 31 22 19 27
  20226352.556   -13457391.466 6   -550855.872 5
  17278080.829   -35744883.771 7 -23547613.128 9
  20197766.673     3842804.944 5   3041020.525 5
  17484131.040   -18409393.138 7 -14272708.229 8
  20160519.485    -8291137.989 5  -6360036.500 5
  20784618.587     1898276.875 5   1534118.798 5
  18239960.657   -29009210.500 7 -22393970.563 7
  20986464.493    -2095683.275 5  -1541770.911 2
 95  2 19 19 23 59.9890000  0  8 28 18 14 29 31 22 19 27
  20211816.032   -13533789.316 5   -610386.602 6
  17263410.720   -35821991.331 7 -23607696.941 9
  20210102.704     3907620.062 5   3091525.690 5
  17479927.423   -18431495.154 7 -14289930.605 8
  20137002.321    -8414739.729 5  -6456349.452 5
  20795996.384     1958072.072 5   1580712.370 5
  18224795.196   -29088882.752 7 -22456052.836 7
  20964430.689    -2211463.367 5  -1631989.117 2
 95  2 19 19 24 29.9890000  0  8 28 18 14 29 31 22 19 27
  20197360.524   -13609751.074 6   -669577.546 5
  17248807.157   -35898737.094 7 -23667498.829 9
  20222458.899     3972534.362 5   3142108.129 5
  17475797.360   -18453191.461 7 -14306836.846 8
  20113513.767    -8538178.254 5  -6552535.208 5
  20807401.056     2017994.569 5   1627405.149 5
  18209665.915   -29168391.690 7 -22518007.840 7
  20942411.931    -2327173.387 4  -1722152.732 2
 95  2 19 19 24 59.9890000  0  8 28 18 14 29 31 22 19 27
  20182989.962   -13685273.960 5   -728426.490 5
  17234271.275   -35975110.474 7 -23727010.561 9
  20234828.540     4037535.217 5   3192758.009 5
  17471750.462   -18474459.263 7 -14323409.188 8
  20090060.493    -8661429.474 5  -6648575.019 5
  20818824.798     2078052.887 5   1674203.759 5
  18194569.446   -29247724.758 7 -22579825.816 7
  20920404.009    -2442811.601 4  -1812260.342 3
 95  2 19 19 25 29.9890000  0  8 28 18 14 29 31 22 19 27
  20168693.696   -13760369.168 6   -786942.170 5
  17219809.173   -36051119.680 7 -23786238.510 9
  20247209.548     4102602.107 5   3243459.355 4
  17467782.392   -18495316.021 7 -14339661.227 8
  20066644.314    -8784493.677 5  -6744469.085 5
  20830280.548     2138240.644 5   1721103.202 5
  18179501.946   -29326899.043 7 -22641520.053 7
  20898409.735    -2558414.654 4  -1902340.631 3
 95  2 19 19 25 59.9890000  0  8 28 18 14 29 31 22 19 27
  20154485.845   -13835026.274 5   -845116.483 5
  17205416.025   -36126759.396 7 -23845178.549 9
  20259603.314     4167746.011 5   3294220.712 4
  17463891.001   -18515762.495 7 -14355593.572 8
  20043255.243    -8907367.254 5  -6840214.625 5
  20841764.064     2198571.839 5   1768114.454 5
  18164469.704   -29405898.133 7 -22703077.784 7
  20876419.353    -2673978.285 4  -1992390.158 3
 95  2 19 19 26 29.9890000  0  8 28 18 14 29 31 22 19 27
  20140367.571   -13909238.351 5   -902944.019 6
  17191094.095   -36202006.451 7 -23903812.619 9
  20272016.056     4232982.362 5   3345054.099 4
  17460078.673   -18535804.278 7 -14371210.574 8
  20019917.032    -9030027.980 5  -6935794.319 5
  20853272.290     2259031.536 5   1815225.799 4
  18149474.439   -29484723.178 7 -22764499.896 7
  20854432.446    -2789496.595 3  -2082404.372 3
 95  2 19 19 26 59.9890000  0  8 28 18 14 29 31 22 19 27
  20126327.634   -13982995.456 6   -960417.044 6
  17176856.228   -36276852.361 7 -23962134.105 9
  20284451.642     4298311.642 5   3395959.887 4
  17456336.376   -18555456.450 7 -14386523.980 8
  19996618.923    -9152472.434 5  -7031205.499 5
  20864795.321     2319615.085 5   1862433.659 3
  18134503.845   -29563372.847 7 -22825785.353 7
  20832462.189    -2904957.538 4  -2172373.883 3
 95  2 19 19 27 29.9890000  0  8 28 18 14 29 31 22 19 27
  20112380.415   -14056315.687 5  -1017549.609 5
  17162678.978   -36351323.092 7 -24020163.247 9
  20296895.189     4363703.988 5   3446914.840 4
  17452664.509   -18574759.029 7 -14401564.974 8
  19973350.868    -9274725.572 5  -7126467.590 5
  20876348.962     2380296.668 5   1909717.921 2
  18119569.267   -29641875.954 7 -22886956.591 7
  20810498.829    -3020373.872 4  -2262308.618 2
 95  2 19 19 27 59.9890000  0  8 28 18 14 29 31 22 19 27
  20098513.485   -14129197.708 6  -1074340.733 5
  17148578.603   -36425427.824 7 -24077907.205 8
  20309344.329     4429146.486 5   3497908.863 5
  17449061.056   -18593692.601 7 -14416318.436 8
  19950123.720    -9396779.168 5  -7221574.228 5
  20887910.993     2441075.791 5   1957078.182 4
  18104658.384   -29720223.537 7 -22948006.651 7
  20788550.814    -3135727.460 4  -2352194.516 2
 95  2 19 19 28 29.9890000  0  8 28 18 14 29 31 22 19 27
  20084726.743   -14201626.945 5  -1130779.036 5
  17134549.392   -36499158.993 7 -24135360.068 9
  20321812.392     4494649.269 5   3548949.828 4
  17445533.696   -18612228.578 7 -14430762.081 8
  19926943.142    -9518603.574 5  -7316502.248 5
  20899496.650     2501970.060 5   2004528.146 4
  18089775.548   -29798409.362 7 -23008930.667 7
  20766613.509    -3251003.769 5  -2442020.183 3
 95  2 19 19 28 59.9890000  0  8 28 18 14 29 31 22 19 27
  20071030.110   -14273597.773 6  -1186860.127 5
  17120589.118   -36572526.337 7 -24192529.426 8
  20334288.860     4560202.276 5   3600029.958 5
  17442085.759   -18630351.849 7 -14444884.134 8
  19903804.095    -9640199.186 5  -7411252.014 5
  20911107.665     2562983.376 5   2052070.874 3
  18074932.345   -29876422.567 7 -23069720.174 8
  20744696.501    -3366191.191 5  -2531776.585 4
 95  2 19 19 29 29.9890000  0  8 28 18 14 29 31 22 19 27
  20057419.462   -14345110.233 5  -1242584.046 5
  17106695.321   -36645534.092 7 -24249418.589 8
  20346775.806     4625818.305 5   3651159.158 5
  17438718.532   -18648040.231 7 -14458667.318 8
  19880709.665    -9761559.956 5  -7505818.773 5
  20922743.126     2624107.990 5   2099700.346 4
  18060122.618   -29954258.361 7 -23130371.440 8
  20722787.314    -3481309.968 5  -2621479.473 3
 95  2 19 19 29 59.9890000  0  8 28 18 14 29 31 22 19 27
  20043900.509   -14416158.831 5  -1297946.509 5
  17092870.204   -36718168.412 7 -24306016.766 8
  20359279.806     4691518.255 4   3702353.772 5
  17435437.993   -18665281.164 7 -14472101.844 8
  19857667.290    -9882676.195 5  -7600194.998 5
  20934392.642     2685334.986 5   2147409.567 2
  18045349.040   -30031904.844 7 -23190875.191 7
  20700890.657    -3596364.122 5  -2711132.027 5
 95  2 19 19 30 29.9890000  0  8 28 18 14 29 31 22 19 27
  20030471.665   -14486752.719 5  -1352954.667 5
  17079123.251   -36790433.983 7 -24362327.608 8
  20371799.040     4757309.760 5   3753619.710 5
  17432236.532   -18682100.756 7 -14485208.037 8
  19834662.337   -10003559.076 5  -7694389.375 5
  20946052.548     2746633.489 5   2195174.535 1
  18030597.275   -30109385.623 7 -23251249.820 7
  20679009.868    -3711368.795 5  -2800746.043 5
 95  2 19 19 30 59.9890000  0  8 28 18 14 29 31 22 19 27
  20017126.149   -14556891.982 5  -1407608.567 5
  17065439.384   -36862323.776 7 -24418345.625 8
  20384337.228     4823192.909 5   3804957.101 5
  17429115.853   -18698502.116 7 -14497988.349 8
  19811696.431   -10124211.424 5  -7788404.111 5
  20957732.181     2807986.082 5   2242981.690 3
  18015894.267   -30186699.975 7 -23311494.760 7
  20657131.806    -3826330.638 5  -2890326.638 5
 95  2 19 19 31 29.9890000  0  8 28 18 14 29 31 22 19 27
  20003859.634   -14626588.137 5  -1461917.182 6
  17051835.439   -36933829.078 7 -24474064.053 8
  20396884.431     4889164.692 4   3856363.526 5
  17426071.845   -18714507.217 7 -14510459.890 8
  19788779.392   -10244645.347 5  -7882248.662 5
  20969413.806     2869382.546 3   2290822.998 2
  18001206.251   -30263858.773 7 -23371618.499 8
  20635255.775    -3941274.484 5  -2979893.238 4
 95  2 19 19 31 59.9890000  0  8 28 18 14 29 31 22 19 27
  19990678.548   -14695822.033 5  -1515865.623 5
  17038308.087   -37004926.795 7 -24529464.869 8
  20409455.064     4955225.630 4   3907839.398 5
  17423098.946   -18730118.284 7 -14522624.382 8
  19765910.931   -10364841.193 5  -7975907.685 5
  20981110.931     2930844.044 3   2338714.985 1
  17986554.517   -30340844.004 7 -23431606.991 8
  20613394.798    -4056155.472 5  -3069410.847 5
 95  2 19 19 32 29.9890000  0  8 28 18 14 29 31 22 19 27
  19977595.899   -14764597.633 6  -1569456.923 5
  17024854.024   -37075621.367 7 -24584551.553 8
  20422042.868     5021352.327 5   3959366.544 5
  17420205.165   -18745334.384 7 -14534481.105 8
  19743078.470   -10484809.952 5  -8069389.768 5
  20992816.243     2992383.739 3   2386667.943 1
  17971933.095   -30417668.292 7 -23491470.073 7
  20591549.564    -4170971.209 5  -3158877.609 5
 95  2 19 19 32 59.9890000  0  8 28 18 14 29 31 22 19 27
  19964592.321   -14832920.992 5  -1622695.849 6
  17011476.017   -37145913.892 7 -24639324.947 8
  20434626.743     5087518.378 4   4010924.369 5
  17417383.618   -18760161.640 7 -14546034.846 8
  19720290.150   -10604565.405 5  -8162705.621 5
  21004547.720     3054013.362 2   2434690.917 1
  17957348.454   -30494327.164 7 -23551204.261 8
  20569710.353    -4285735.952 5  -3248304.646 3
 95  2 19 19 33 29.9890000  0  8 28 18 14 29 31 22 19 27
  19951688.079   -14900774.953 6  -1675568.991 5
  16998174.150   -37215800.796 7 -24693782.281 8
  20447232.634     5153730.905 5   4062518.374 4
  17414636.845   -18774597.870 7 -14557283.889 8
  19697543.439   -10724095.874 5  -8255846.166 5
  21016298.790     3115768.578 1   2482811.771 2
  17942794.212   -30570809.880 7 -23610801.175 8
  20547881.837    -4400421.388 5  -3337669.908 5
 95  2 19 19 33 59.9890000  0  8 28 18 14 29 31 22 19 27
  19938855.610   -14968162.480 6  -1728078.726 6
  16984951.931   -37285300.351 7 -24747937.780 8
  20459839.923     5219971.206 5   4114134.047 3
  17411966.657   -18788628.610 7 -14568216.965 8
  19674841.704   -10843399.852 5  -8348810.229 5
  21028071.603     3177650.563 2   2531031.390 2
  17928274.220   -30647130.107 7 -23670271.487 8
  20526073.767    -4515028.174 5  -3426973.892 5
 95  2 19 19 34 29.9890000  0  8 28 18 14 29 31 22 19 27
  19926125.126   -15035088.306 5  -1780228.678 6
  16971796.978   -37354413.732 7 -24801792.362 8
  20472447.423     5286236.734 5   4165769.355 4
  17409373.704   -18802254.781 7 -14578834.797 8
  19652181.157   -10962479.278 5  -8441599.304 5
  21039879.634     3239649.719 3   2579342.299 1
  17913778.009   -30723303.658 7 -23729627.500 8
  20504276.056    -4629588.957 5  -3516242.003 5
 95  2 19 19 34 59.9890000  0  8 28 18 14 29 31 22 19 27
  19913470.946   -15101565.844 5  -1832029.306 5
  16958719.931   -37423153.675 7 -24855355.957 8
  20485061.931     5352515.758 5   4217415.195 5
  17406851.954   -18815507.872 7 -14589161.913 8
  19629564.353   -11081341.462 5  -8534219.119 5
  21051689.329     3301719.347 3   2627708.107 1
  17899306.931   -30799343.166 7 -23788879.079 8
  20482481.751    -4744115.463 5  -3605483.392 4
 95  2 19 19 35 29.9890000  0  8 28 18 14 29 31 22 19 27
  19900906.400   -15167611.294 5  -1883493.255 5
  16945708.009   -37491532.106 7 -24908637.856 8
  20497672.399     5418792.166 5   4269058.976 4
  17404397.274   -18828399.608 7 -14599207.454 8
  19606982.353   -11199991.904 5  -8626673.912 5
  21063499.845     3363811.666 4   2676091.641 1
  17884855.267   -30875276.817 7 -23848048.155 7
  20460691.626    -4858628.007 5  -3694713.889 4
 95  2 19 19 35 59.9880000  0  8 28 18 14 29 31 22 19 27
  19888431.559   -15233159.355 6  -1934569.637 6
  16932781.957   -37559469.523 7 -24961576.115 8
  20510295.949     5485124.380 5   4320746.288 3
  17402027.106   -18840857.735 7 -14608915.120 8
  19584457.926   -11318351.685 5  -8718902.246 5
  21075326.676     3425953.666 3   2724513.877 3
  17870438.106   -30951042.791 7 -23907086.587 8
  20438913.238    -4973083.282 5  -3783899.774 4
 95  2 19 19 36 29.9880000  0  8 28 18 14 29 31 22 19 27
  19876050.910   -15298226.330 5  -1985271.159 5
  16919928.652   -37626986.053 7 -25014186.399 8
  20522930.449     5551504.883 5   4372471.197 3
  17399734.637   -18852907.939 7 -14618304.918 8
  19561989.340   -11436439.152 5  -8810918.353 5
  21087159.238     3488119.869 3   2772954.962 2
  17856051.832   -31026656.165 7 -23966006.099 8
  20417135.785    -5087498.042 5  -3873054.102 5
 95  2 19 19 36 59.9880000  0  8 28 18 14 29 31 22 19 27
  19863762.934   -15362793.545 5  -2035583.248 6
  16907165.223   -37694068.446 7 -25066458.394 8
  20535570.871     5617931.437 5   4424232.000 2
  17397522.043   -18864528.525 7 -14627359.955 8
  19539576.316   -11554228.128 6  -8902701.895 5
  21098997.652     3550327.582 3   2821428.387 1
  17841697.121   -31102079.104 7 -24024777.225 8
  20395378.066    -5201848.335 5  -3962158.204 5
 95  2 19 19 37 29.9880000  0  8 28 18 14 29 31 22 19 27
  19851567.129   -15426888.918 5  -2085527.680 6
  16894477.426   -37760745.386 7 -25118414.461 8
  20548213.277     5684358.103 4   4475992.876 2
  17395392.606   -18875733.720 7 -14636091.311 8
  19517213.559   -11671743.468 5  -8994272.215 5
  21110838.332     3612572.946 4   2869931.115 3
  17827378.582   -31177333.113 7 -24083416.718 8
  20373622.004    -5316176.693 5  -4051245.204 5
 95  2 19 19 37 59.9880000  0  8 28 18 14 29 31 22 19 27
  19839459.082   -15490503.221 5  -2135097.255 5
  16881869.465   -37827007.429 7 -25170047.234 8
  20560851.988     5750791.946 5   4527759.342 2
  17393337.606   -18886525.077 7 -14644500.194 8
  19494902.199   -11788980.380 5  -9085625.577 5
  21122693.715     3674882.051 3   2918483.544 1
  17813094.020   -31252391.438 7 -24141903.725 8
  20351875.426    -5430458.643 5  -4140296.066 5
 95  2 19 19 38 29.9880000  0  8 28 18 14 29 31 22 19 27
  19827453.004   -15553625.539 5  -2184283.432 6
  16869341.387   -37892840.978 7 -25221346.117 8
  20573495.520     5817234.124 4   4579532.324 2
  17391362.496   -18896897.609 7 -14652582.715 8
  19472648.676   -11905936.857 6  -9176760.406 5
  21134570.043     3737283.416 3   2967107.857 1
  17798849.996   -31327227.326 7 -24200217.401 8
  20330140.567    -5544663.037 5  -4229286.477 3
 95  2 19 19 38 59.9880000  0  8 28 18 14 29 31 22 19 27
  19815530.676   -15616251.846 5  -2233083.143 6
  16856901.121   -37958224.012 7 -25272293.939 8
  20586134.316     5883676.065 3   4631305.114 2
  17389470.051   -18906847.093 7 -14660335.589 8
  19450446.465   -12022614.207 6  -9267677.741 5
  21146469.879     3799776.148 4   3015803.392 1
  17784651.871   -31401846.362 7 -24258362.099 8
  20308425.613    -5658786.400 5  -4318213.707 5
 95  2 19 19 39 29.9880000  0  8 28 18 14 29 31 22 19 27
  19803709.191   -15678371.853 5  -2281488.335 6
  16844545.395   -38023149.848 7 -25322885.509 8
  20598780.887     5950140.618 3   4683095.534 3
  17387661.348   -18916357.356 7 -14667746.211 8
  19428291.442   -12139009.104 6  -9358374.968 5
  21158368.348     3862349.551 4
  17770489.621   -31476265.715 7 -24316351.210 8
  20286729.465    -5772807.685 5  -4407061.460 5
 95  2 19 19 39 59.9880000  0  8 28 18 14 29 31 22 19 27
  19791983.590   -15739997.871 5  -2329508.592 6
  16832269.949   -38087636.024 7 -25373134.485 8
  20611434.113     6016623.237 3   4734900.007 3
  17385931.910   -18925439.989 7 -14674823.620 8
  19406199.598   -12255127.313 6  -9448856.603 5
  21170290.067     3924972.169 3
  17756366.067   -31550517.953 7 -24374210.081 8
  20265048.559    -5886743.649 5  -4495842.712 5
 95  2 19 19 40 29.9880000  0  8 28 18 14 29 31 22 19 27
  19780353.145   -15801120.147 6  -2377136.319 6
  16820085.785   -38151686.635 7 -25423044.065 8
  20624092.191     6083115.973 4   4786712.350 3
  17384288.379   -18934077.574 7 -14681554.235 8
  19384157.942   -12370948.637 6  -9539106.897 5
  21182216.082     3987633.797 3
  17742261.942   -31624618.017 7 -24431950.392 8
  20243375.645    -6000604.462 5  -4584565.421 5
 95  2 19 19 40 59.9880000  0  8 28 18 14 29 31 22 19 27
  19768816.434   -15861752.681 5  -2424382.409 6
  16807971.293   -38215330.564 7 -25472636.744 8
  20636745.621     6149610.866 4   4838526.369 4
  17382725.887   -18942287.084 7 -14687951.288 8
  19362173.254   -12486474.646 6  -9629127.071 5
  21194135.879     4050297.410 2
  17728187.410   -31698594.581 7 -24489594.456 8
  20221718.699    -6114425.397 5  -4673257.068 5
 95  2 19 19 41 29.9880000  0  8 28 18 14 29 31 22 19 27
  19757377.777   -15921878.483 5  -2471233.660 6
  16795936.535   -38278567.469 7 -25521912.264 8
  20649403.215     6216133.893 5   4890362.335 4
  17381245.809   -18950064.858 7 -14694011.918 8
  19340250.621   -12601680.011 6  -9718897.401 5
  21206056.934     4112976.843 1
  17714138.715   -31772421.549 7 -24547121.967 8
  20200068.684    -6228205.365 5  -4761916.747 5
 95  2 19 19 41 59.9880000  0  7 28 18 14 29 31 19 27
  19746029.074   -15981512.334 5  -2517701.586 6
  16783978.348   -38341409.996 7 -25570880.475 8
  20662060.676     6282657.506 4   4942198.766 3
  17379841.434   -18957444.003 7 -14699761.928 8
  19318385.770   -12716577.826 6  -9808428.087 5
  17700116.106   -31846103.964 7 -24604536.832 8
  20178419.645    -6341965.582 5  -4850561.048 5
 95  2 19 19 42 29.9880000  0  7 28 18 14 29 31 19 27
  19734771.168   -16040642.481 6  -2563776.997 6
  16772099.488   -38403843.660 7 -25619530.092 8
  20674724.785     6349189.226 4   4994041.491 5
  17378512.223   -18964428.634 7 -14705204.529 8
  19296580.004   -12831160.330 6  -9897713.077 5
  17686128.449   -31919609.346 7 -24661813.754 8
  20156779.895    -6455675.576 5  -4939166.213 4
 95  2 19 19 42 59.9880000  0  7 28 18 14 29 31 19 27
  19723615.770   -16099265.215 5  -2609457.022 6
  16760299.863   -38465863.144 7 -25667856.965 8
  20687388.746     6415750.686 5   5045907.408 5
  17377259.426   -18971017.860 7 -14710339.018 8
  19274835.660   -12945429.625 6  -9986754.010 5
  17672172.137   -31992927.908 7 -24718945.099 8
  20135155.348    -6569322.673 5  -5027722.395 3
 95  2 19 19 43 29.9880000  0  7 28 18 14 29 31 19 27
  19712553.738   -16157378.334 5  -2654739.930 6
  16748574.254   -38527454.582 7 -25715850.296 8
  20700064.106     6482328.004 5   5097785.653 2
  17376083.582   -18977202.392 7 -14715158.157 8
  19253152.074   -13059396.567 6 -10075559.344 5
  17658262.692   -32066059.281 7 -24775930.579 8
  20113548.520    -6682884.781 5  -5116212.334 5
 95  2 19 19 43 59.9880000  0  7 28 18 14 29 31 19 27
  19701599.707   -16214970.183 5  -2699616.666 6
  16736943.059   -38588595.103 7 -25763492.266 8
  20712732.676     6548919.463 4   5149674.936 4
  17374987.785   -18982954.928 7 -14719640.688 8
  19231520.254   -13173055.694 6
  17644381.285   -32138996.133 7 -24832764.495 8
  20091955.137    -6796339.039 5
 95  2 19 19 44 29.9880000  0  7 28 18 14 29 31 19 27
  19690739.856   -16272050.931 5  -2744095.151 6
  16725394.442   -38649287.914 7 -25810785.363 8
  20725405.387     6615515.962 4   5201568.129 2
  17373972.731   -18988283.874 7 -14723793.147 8
  19209952.574   -13286406.422 6
  17630532.051   -32211756.238 7 -24889460.687 8
  20070382.621    -6909701.276 5
 95  2 19 19 44 59.9880000  0  7 28 18 14 29 31 19 27
  19679974.582   -16328615.857 5  -2788171.681 6
  16713934.559   -38709517.615 7 -25857717.603 8
  20738078.801     6682116.968 3   5253464.847 2
  17373041.137   -18993175.310 7 -14727604.687 8
  19188443.941   -13399447.172 6 -10340533.641 6
  17616718.262   -32284358.748 7 -24946034.076 8
  20048828.457    -7022987.626 5  -5381227.505 5
 95  2 19 19 45 29.9880000  0  7 28 18 14 29 31 19 27
  19669308.684   -16384660.872 5  -2831843.066 5
  16702559.191   -38769267.495 7 -25904275.954 8
  20750750.051     6748705.998 4   5305352.233 3
  17372196.527   -18997632.541 7 -14731077.878 8
  19166987.371   -13512173.948 6 -10428372.627 5
  17602934.738   -32356800.130 7 -25002481.914 8
  20027286.231    -7136199.129 5  -5469444.228 5
 95  2 19 19 45 59.9880000  0  7 28 18 14 29 31 19 27
  19658740.566   -16440188.923 5  -2875111.644 6
  16691282.035   -38828539.631 7 -25950462.026 8
  20763420.746     6815294.954 3   5357239.555 2
  17371423.762   -19001672.000 7 -14734225.532 8
  19145604.676   -13624558.330 6 -10515944.800 6
  17589176.606   -32429085.450 7 -25058808.133 8
  20005750.887    -7249351.565 5  -5557614.947 5
 95  2 19 19 46 29.9880000  0  7 28 18 14 29 31 19 27
  19648274.723   -16495200.294 5  -2917977.615 6
  16680091.699   -38887333.884 7 -25996275.736 8
  20776085.012     6881874.587 3   5409119.601 2
  17370734.715   -19005304.319 7 -14737055.948 8
  19124286.652   -13736581.693 6 -10603235.676 5
  17575453.207   -32501214.594 7 -25115012.666 8
  19984228.301    -7362456.108 5  -5645748.337 4
 95  2 19 19 46 59.9880000  0  7 28 18 14 29 31 19 27
  19637901.676   -16549690.231 5  -2960437.266 6
  16668998.254   -38945647.714 7 -26041715.086 8
  20788761.613     6948429.767 3   5460980.580 1
  17370124.231   -19008519.587 7 -14739561.377 8
  19103041.496   -13848240.949 6 -10690242.831 5
  17561759.871   -32573177.583 7 -25171087.720 8
  19962715.043    -7475510.858 5  -5733842.937 5
 95  2 19 19 47 29.9880000  0  7 28 18 14 29 31 19 27
  19627636.871   -16603646.519 5  -3002481.108 6
  16657990.871   -39003481.598 7 -26086780.453 8
  20801423.231     7014966.663 3   5512827.266 1
  17369592.887   -19011301.100 7 -14741728.828 8
  19081865.676   -13959505.503 6 -10776942.407 5
  17548101.090   -32644950.167 7 -25227014.413 8
  19941216.465    -7588487.488 5  -5821876.632 5
 95  2 19 19 47 59.9880000  0  7 28 18 14 29 31 19 27
  19617470.941   -16657064.548 5  -3044105.527 6
  16647075.715   -39060840.643 7 -26131475.827 8
  20814082.543     7081489.392 3   5564663.001 1
  17369148.887   -19013634.837 7 -14743547.355 8
  19060770.090   -14070363.558 6 -10863325.243 5
  17534481.207   -32716531.755 7 -25282792.276 8
  19919733.121    -7701380.736 5  -5909845.371 5
 95  2 19 19 48 29.9880000  0  7 28 18 14 29 31 19 27
  19607405.902   -16709950.180 5  -3085315.075 6
  16636251.652   -39117735.285 7 -26175809.313 8
  20826730.645     7147976.806 3   5616471.170 2
  17368791.285   -19015509.308 7 -14745008.012 8
  19039749.348   -14180843.405 6 -10949413.365 5
  17520889.262   -32787929.462 7 -25338426.856 8
  19898262.785    -7814201.095 5  -5997757.316 5
 95  2 19 19 48 59.9880000  0  7 28 18 14 29 31 19 27
  19597447.191   -16762301.469 5  -3126108.277 6
  16625506.817   -39174177.931 7 -26219790.602 8
  20839375.387     7214452.041 3   5668269.868 1
  17368523.012   -19016922.051 7 -14746108.880 8
  19018791.809   -14290959.690 6 -11035218.196 5
  17507338.887   -32859150.880 7 -25393924.066 8
  19876811.926    -7926936.555 5  -6085603.097 5
 95  2 19 19 49 29.9880000  0  7 28 18 14 29 31 19 27
  19587583.895   -16814123.950 5  -3166489.418 6
  16614851.215   -39230182.482 7 -26263430.520 7
  20852026.785     7280919.679 3   5720062.619 1
  17368341.020   -19017879.060 7 -14746854.628 8
  18997903.277   -14400725.113 6 -11120749.620 5
  17493819.207   -32930203.974 7 -25449290.112 8
  19855372.410    -8039595.663 5  -6173389.416 5
 95  2 19 19 49 59.9880000  0  7 28 18 14 29 31 19 27
  19577820.871   -16865414.555 5  -3206456.108 6
  16604280.645   -39285744.151 7 -26306725.338 7
  20864676.512     7347382.317 4   5771851.498 2
  17368245.043   -19018383.160 7
  18977084.035   -14510150.139 6 -11206015.806 6
  17480334.090   -33001075.781 7 -25504514.907 8
  19833945.543    -8152185.834 5  -6261122.008 5
 95  2 19 19 50 29.9880000  0  7 28 18 14 29 31 19 27
  19568164.168   -16916164.551 5  -3246001.580 6
  16593792.004   -39340854.347 7 -26349668.362 7
  20877324.731     7413848.533 3   5823643.166 1
  17368235.731   -19018437.590 7
  18956326.067   -14619230.735 6 -11291013.597 5
  17466885.496   -33071749.155 7 -25559585.070 8
  19812537.793    -8264701.045 5  -6348796.177 5
 95  2 19 19 50 59.9880000  0  7 28 18 14 29 31 19 27
  19558608.082   -16966394.751 5  -3285141.952 6
  16583384.777   -39395534.379 7 -26392276.181 8
  20889967.262     7480281.610 3   5875409.024 2
  17368303.324   -19018073.978 7
  18935628.402   -14727980.024 6 -11375753.228 5
  17453471.981   -33142232.707 7 -25614507.316 8
  19791137.340    -8377150.911 5  -6436419.429 5
 95  2 19 19 51 29.9880000  0  7 28 18 14 29 31 19 27
  19549150.692   -17016095.572 5  -3323869.875 6
  16573070.262   -39449753.721 7 -26434525.028 8
  20902595.902     7546659.567 3   5927131.893 1
  17368454.301   -19017282.732 7 -14746390.109 8
  18915004.074   -14836377.367 6 -11460218.615 5
  17440095.731   -33212507.009 7 -25669266.520 8
  19769751.949    -8489524.331 5  -6523983.107 5
 95  2 19 19 51 59.9880000  0  7 28 18 14 29 31 19 27
  19539792.559   -17065265.400 5  -3362184.012 6
  16562842.691   -39503494.831 7 -26476401.233 8
  20915218.770     7612986.969 3   5978815.339 1
  17368688.856   -19016072.895 7 -14745447.415 8
  18894446.668   -14944401.040 6 -11544392.845 6
  17426763.160   -33282578.659 7 -25723867.811 8
  19748385.613    -8601812.321 5  -6611480.202 5
 95  2 19 19 52 29.9880000  0  7 28 18 14 29 31 19 27
  19530536.246   -17113904.595 5  -3400084.684 6
  16552706.559   -39556746.478 7 -26517896.026 8
  20927829.027     7679253.781 3   6030451.594 2
  17368994.145   -19014454.468 7 -14744186.339 8
  18873964.215   -15052030.518 6 -11628259.910 5
  17413463.356   -33352476.023 7 -25778333.295 8
  19727035.801    -8714012.063 5  -6698908.562 5
 95  2 19 19 52 59.9880000  0  7 28 18 14 29 31 19 27
  19521386.129   -17162016.419 6  -3437574.425 6
  16542668.246   -39609500.849 7 -26559003.343 7
  20940431.262     7745452.508 4   6082034.797 1
  17369377.809   -19012432.035 7 -14742610.452 8
  18853559.074   -15159253.952 6 -11711810.584 6
  17400193.324   -33422211.306 7 -25832672.478 8
  19705694.410    -8826129.655 5  -6786272.904 5
 95  2 19 19 53 29.9880000  0  7 28 18 14 29 31 19 27
  19512331.059   -17209598.961 5  -3474651.726 6
  16532728.902   -39661748.532 7 -26599715.831 8
  20953013.676     7811606.612 3   6133583.243 3
  17369839.582   -19010009.559 7 -14740722.842 8
  18833237.262   -15266071.707 6 -11795045.150 6
  17386946.965   -33491801.141 7 -25886898.324 8
  19684381.043    -8938181.066 5  -6873585.685 5
 95  2 19 19 53 59.9880000  0  7 28 18 14 29 31 19 27
  19503375.098   -17256647.250 5  -3511312.726 6
  16522878.848   -39713502.470 7 -26640043.596 7
  20965588.926     7877725.133 3   6185103.942 3
  17370377.027   -19007189.788 7 -14738525.663 8
  18812982.723   -15372489.869 6 -11877968.342 6
  17373733.817   -33561249.829 7 -25941014.186 8
  19663063.293    -9050177.010 5  -6960855.244 5
 95  2 19 19 54 29.9870000  0  7 28 18 14 29 31 19 27
  19494519.976   -17303157.220 5  -3547554.269 6
  16513126.132   -39764768.244 7 -26679990.956 7
  20978162.468     7943791.392 3   6236583.906 2
  17370989.421   -19003964.191 7 -14736012.240 8
  18792808.687   -15478519.183 6 -11960588.539 6
  17360545.898   -33630540.343 7 -25995006.793 8
  19641765.234    -9162123.818 5  -7048086.488 5
 95  2 19 19 54 59.9870000  0  7 28 18 14 29 31 19 27
  19485769.390   -17349145.956 5  -3583389.660 6
  16503458.437   -39815574.992 7 -26719580.647 7
  20990737.343     8009795.437 2   6288015.392 2
  17371680.913   -19000337.131 7 -14733185.999 8
  18772695.710   -15584203.195 6 -12042939.669 6
  17347390.655   -33699675.256 7 -26048878.157 8
  19620465.273    -9274045.048 5  -7135297.843 5
 95  2 19 19 55 29.9870000  0  7 28 18 14 29 31 19 27
  19477125.976   -17394603.943 5  -3618811.476 6
  16493872.921   -39865934.419 7 -26758821.770 7
  21003281.562     8075736.939 3   6339398.144 3
  17372450.335   -18996295.554 7 -14730036.760 8
  18752649.640   -15689545.051 6 -12125024.182 6
  17334263.101   -33768646.989 7 -26102622.365 8
  19599172.905    -9385921.592 5  -7222474.357 5
 95  2 19 19 55 59.9870000  0  7 28 18 14 29 31 19 27
  19468570.538   -17439522.746 5  -3653813.149 6
  16484373.335   -39915848.818 7 -26797716.113 8
  21015817.101     8141604.574 3   6390723.315 2
  17373302.390   -18991819.176 7 -14726548.700 8
  18732674.069   -15794518.601 6 -12206821.695 6
  17321177.866   -33837431.654 7 -26156220.803 8
  19577900.702    -9497729.992 5  -7309597.773 5
 95  2 19 19 56 29.9870000  0  7 28 18 14 29 31 19 27
  19460131.023   -17483890.752 5  -3688385.639 6
  16474964.530   -39965295.893 7 -26836246.309 7
  21028342.687     8207409.869 3   6441999.934 1
  17374240.288   -18986880.857 7 -14722700.696 8
  18712773.132   -15899096.893 6 -12288311.222 6
  17308128.468   -33906007.164 7 -26209656.261 8
  19556638.241    -9609444.247 5  -7396647.853 5
 95  2 19 19 56 59.9870000  0  7 28 18 14 29 31 19 27
  19451794.296   -17527705.902 5  -3722527.323 6
  16465646.343   -40014267.391 7 -26874405.920 7
  21040856.202     8273154.324 3   6493229.145 3
  17375268.116   -18981484.249 7 -14718495.575 8
  18692950.718   -16003262.029 6 -12369478.823 6
  17295119.046   -33974380.129 7 -26262933.887 8
  19535401.030    -9721049.511 5  -7483612.980 5
 95  2 19 19 57 29.9870000  0  6 28 18 29 31 19 27
  19443562.851   -17570966.023 5  -3756236.516 6
  16456420.944   -40062753.760 7 -26912187.523 7
  17376382.491   -18975635.332 7 -14713938.014 8
  18673208.999   -16106995.844 6 -12450310.305 6
  17282141.882   -34042560.781 7 -26316061.669 8
  19514181.444    -9832555.513 5  -7570500.777 5
 95  2 19 19 57 59.9870000  0  6 28 18 29 31 19 27
  19435433.382   -17613667.429 5  -3789510.330 6
  16447290.733   -40110735.931 7 -26949576.231 7
  17377582.382   -18969334.333 7 -14709028.171 8
  18653554.327   -16210286.687 6 -12530796.614 6
  17269203.866   -34110545.115 7 -26369036.470 8
  19492984.585    -9943960.539 5  -7657309.888 5
 95  2 19 19 58 29.9870000  0  6 28 18 29 31 19 27
  19427414.718   -17655810.418 5  -3822349.039 6
  16438255.538   -40158208.812 7 -26986568.101 7
  17378862.218   -18962593.807 7 -14703775.851 8
  18633981.843   -16313144.811 6 -12610945.732 6
  17256302.640   -34178352.824 7 -26421873.650 8
  19471799.523   -10055274.104 5  -7744047.713 5
 95  2 19 19 58 59.9870000  0  6 28 18 29 31 19 27
  19419501.632   -17697401.326 5  -3854757.539 6
  16429314.663   -40205190.751 7 -27023177.417 7
  17380223.851   -18955443.582 7 -14698204.280 8
  18614487.233   -16415580.747 6 -12690765.871 6
  17243430.179   -34246008.159 7 -26474592.091 8
  19450633.015   -10166520.076 5  -7830732.872 5
 95  2 19 19 59 29.9870000  0  6 28 18 29 31 19 27
  19411692.702   -17738444.234 5  -3886739.009 6
  16420460.773   -40251700.574 7 -27059418.853 7
  17381663.359   -18947881.715 7 -14692311.956 8
  18595072.984   -16517608.910 6 -12770268.289 6
  17230583.101   -34313512.469 7 -26527192.853 8
  19429471.601   -10277711.659 5  -7917375.664 5
 95  2 19 19 59 59.9870000  0  6 28 18 29 31 19 27
  19403985.898   -17778938.521 5  -3918292.995 6
  16411705.187   -40297733.916 7 -27095289.013 7
  17383182.077   -18939902.117 7 -14686094.120 8
  18575737.577   -16619223.608 6 -12849448.523 6
  17217768.499   -34380851.954 7 -26579665.178 8
  19408328.109   -10388837.738 5  -8003967.385 5
 95  2 19 20  0 29.9870000  0  6 28 18 29 31 19 27
  19396387.835   -17818867.435 5  -3949406.433 6
  16403040.632   -40343264.041 7 -27130767.033 8
  17384779.819   -18931492.034 7 -14679540.835 8
  18556485.030   -16720396.966 6 -12928284.844 6
  17204990.155   -34448004.639 7 -26631991.952 8
  19387195.413   -10499890.956 5  -8090502.349 5
 95  2 19 20  0 59.9870000  0  6 28 18 29 31 19 27
  19388895.835   -17858231.018 5  -3980079.352 6
  16394472.585   -40388276.783 7 -27165841.918 7
  17386464.749   -18922644.608 6 -14672646.783 8
  18537315.952   -16821119.918 6 -13006770.218 6
  17192251.374   -34514958.436 7 -26684163.749 8
  19366075.046   -10610864.856 5  -8176975.502 5
 95  2 19 20  1 29.9870000  0  6 28 18 29 31 19 27
  19381508.577   -17897039.870 5  -4010320.003 6
  16386009.780   -40432765.811 7 -27200508.707 7
  17388235.694   -18913345.609 7 -14665400.847 8
  18518238.038   -16921394.444 6 -13084906.159 6
  17179545.929   -34581710.623 7 -26736178.441 8
  19344972.491   -10721752.104 5  -8263381.144 5
 95  2 19 20  1 59.9870000  0  7 28 18 29 31  2 19 27
  19374232.038   -17935290.022 5  -4040125.303 6
  16377644.655   -40476707.952 7 -27234749.350 7
  17390090.140   -18903593.331 7 -14657801.709 8
  18499242.116   -17021205.781 6 -13162681.185 6
  20779196.155          -0.45312
  17166883.726   -34648261.682 7 -26788036.410 8
  19323891.312   -10832545.494 6  -8349713.640 5
 95  2 19 20  2 29.9870000  0  7 28 18 29 31  2 19 27
  19367057.304   -17972999.316 5  -4069509.157 6
  16369380.960   -40520132.790 7 -27268586.905 7
  17392025.296   -18893410.954 7 -14649867.426 8
  18480331.609   -17120576.755 6 -13240113.064 6
  20753589.499     -134591.432 2
  17154255.038   -34714634.480 7 -26839755.478 8
  19302823.468   -10943256.600 6  -8435982.022 5
 95  2 19 20  2 59.9870000  0  7 28 18 29 31  2 19 27
  19359985.812   -18010134.142 5  -4098445.370 6
  16361217.694   -40563035.958 7 -27302017.959 7
  17394053.312   -18882757.205 7 -14641565.847 8
  18461512.171   -17219476.832 6 -13317178.015 6
  20728015.538     -268992.200 2
  17141663.976   -34780803.234 7 -26891315.544 8
  19281778.562   -11053847.701 5  -8522156.891 5
 95  2 19 20  3 29.9870000  0  7 28 18 29 31  2 19 27
  19353027.405   -18046695.585 5  -4126934.784 6
  16353151.726   -40605431.073 7 -27335053.128 7
  17396168.358   -18871644.351 7 -14632906.515 8
  18442778.851   -17317910.455 6 -13393879.493 6
  20702467.898     -403203.197 2        -0.27111
  17129104.280   -34846775.712 7 -26942722.673 8
  19260753.632   -11164337.783 5  -8608253.021 5
 95  2 19 20  3 59.9870000  0  7 28 18 29 31  2 19 27
  19346189.007   -18082682.774 5  -4154976.760 6
  16345177.273   -40647328.124 7 -27367700.195 7
  17398370.460   -18860093.746 7 -14623906.079 8
  18424137.523   -17415870.684 6 -13470212.093 6
  20676966.866     -537236.207 1   -104441.508 1
  17116589.788   -34912565.404 7 -26993987.367 8
  19239748.163   -11274735.178 6  -8694276.956 5
 95  2 19 20  4 29.9870000  0  7 28 18 29 31  2 19 27
  19339443.835   -18118118.546 5  -4182589.037 6
  16337293.202   -40688762.313 7 -27399986.597 7
  17400648.312   -18848127.055 7 -14614581.432 8
  18405586.538   -17513372.343 6 -13546187.361 6
  20651485.265     -671119.912 1   -208766.351 2
  17104098.054   -34978192.696 7 -27045125.513 8
  19218750.632   -11385067.364 5  -8780250.061 5
 95  2 19 20  4 59.9870000  0  7 28 18 29 31  2 19 27
  19332803.437   -18152996.271 5  -4209766.473 6
  16329502.429   -40729712.735 7 -27431896.044 7
  17403002.577   -18835732.257 7 -14604923.191 8
  18387119.812   -17610400.237 6 -13621793.475 6
  20626033.843     -804855.119 1   -312975.545 1
  17091641.124   -35043657.420 7 -27096136.985 8
  19197766.069   -11495343.178 5  -8866179.224 5
 95  2 19 20  5 29.9870000  0  7 28 18 29 31  2 19 27
  19326276.085   -18187326.656 5  -4236517.413 6
  16321804.843   -40770160.300 7 -27463413.641 7
  17405440.655   -18822924.794 7 -14594943.392 8
  18368744.780   -17706966.871 6 -13697040.156 6
  20600616.429     -938459.038 3   -417082.372 1
  17079214.124   -35108965.548 7 -27147026.430 8
  19176793.132   -11605563.370 6  -8952065.063 5
 95  2 19 20  5 59.9870000  0  7 28 18 29 31  2 19 27
  19319840.663   -18221112.855 5  -4262844.331 6
  16314199.491   -40810106.532 7 -27494540.595 7
  17407958.765   -18809704.023 7 -14584641.525 8
  18350460.030   -17803070.608 6 -13771926.134 6
  20575212.640    -1071927.514 3   -521083.700 1
  17066817.163   -35174115.045 7 -27197792.274 8
  19155830.835   -11715716.777 6  -9037898.860 5
 95  2 19 20  6 29.9870000  0  7 28 18 29 31  2 19 27
  19313518.327   -18254349.703 5  -4288743.173 6
  16306699.937   -40849539.745 7 -27525267.795 7
  17410553.702   -18796062.118 7 -14574011.513 8
  18332257.851   -17898722.001 6 -13846459.653 6
  20549852.640    -1205222.506 3   -624949.829 1
  17054451.694   -35239082.744 7 -27248416.449 8
  19134881.234   -11825803.808 6  -9123680.912 6
 95  2 19 20  6 59.9870000  0  7 28 18 29 31  2 19 27
  19307297.116   -18287036.518 5  -4314213.420 6
  16299295.648   -40888451.984 7 -27555589.034 7
  17413227.804   -18782012.280 7 -14563063.627 8
  18314135.030   -17993933.623 6 -13920650.486 6
  20524524.788    -1338326.633 3   -728667.244 2
  17042123.226   -35303867.157 7 -27298897.815 8
  19113946.944   -11935822.507 5  -9209409.746 5
 95  2 19 20  7 29.9870000  0  7 28 18 29 31  2 19 27
  19301182.937   -18319168.061 5  -4339250.986 5
  16291990.577   -40926839.422 7 -27585501.339 7
  17415977.358   -18767566.084 7 -14551806.894 8
  18296104.601   -18088702.340 6 -13994496.204 6
  20499238.077    -1471212.820 3   -832214.823 2
  17029832.046   -35368458.732 7 -27349228.914 8
  19093025.148   -12045758.421 5  -9295074.068 6
 95  2 19 20  7 59.9870000  0  7 28 18 29 31  2 19 27
  19295174.101   -18350728.517 5  -4363843.567 5
  16284784.882   -40964705.397 7 -27615007.304 7
  17418803.241   -18752710.568 7 -14540231.205 8
  18278157.265   -18183011.393 6 -14067983.738 6
  20473999.976    -1603839.537 4   -935560.186 2
  17017582.413   -35432841.638 7 -27399397.417 8
  19072119.812   -12155614.290 5  -9380676.005 5
 95  2 19 20  8 29.9870000  0  7 28 18 29 31  2 19 27
  19289274.859   -18381734.246 5  -4388003.857 6
  16277673.030   -41002066.273 7 -27644119.691 7
  17421705.960   -18737456.642 6 -14528345.072 8
  18260298.116   -18276868.555 6 -14141119.152 6
  20448802.257    -1736233.297 3  -1038724.105 1
  17005368.523   -35497028.034 7 -27449412.796 8
  19051228.429   -12265397.492 5  -9466221.334 6
 95  2 19 20  8 59.9870000  0  7 28 18 29 31  2 19 27
  19283478.905   -18412186.499 5  -4411732.907 6
  16270658.999   -41038929.841 7 -27672844.558 7
  17424687.335   -18721795.398 6 -14516141.543 8
  18242527.390   -18370255.464 6 -14213888.137 6
  20423651.319    -1868423.870 3  -1141729.627 4
  16993187.335   -35561036.322 7 -27499289.385 8
  19030352.202   -12375097.165 6  -9551701.570 6
 95  2 19 20  9 29.9870000  0  7 28 18 29 31  2 19 27
  19277785.648   -18442110.920 5  -4435050.629 6
  16263733.413   -41075337.152 7 -27701213.906 7
  17427740.601   -18705740.855 7 -14503631.548 8
  18224842.718   -18463184.188 6 -14286300.084 6
  20398529.109    -2000450.668 4  -1244607.583 3
  16981035.140   -35624883.544 7 -27549040.475 8
  19009489.718   -12484744.731 6  -9637141.197 6
 95  2 19 20  9 59.9870000  0  7 28 18 29 31  2 19 27
  19272196.155   -18471509.763 5  -4457958.842 6
  16256887.444   -41111299.046 7 -27729236.174 7
  17430874.124   -18689279.259 6 -14490804.364 8
  18207244.062   -18555650.357 6 -14358351.608 6
  20373435.382    -2132340.004 4  -1347378.422 4
  16968917.148   -35688571.950 7 -27598667.821 8
  18988633.866   -12594338.146 6  -9722538.617 5
 95  2 19 20 10 29.9870000  0  7 28 18 29 31  2 19 27
  19266701.054   -18500366.513 5  -4480444.629 6
  16250134.616   -41146784.348 7 -27756887.075 7
  17434087.773   -18672388.059 6 -14477642.432 8
  18189745.038   -18647623.314 6 -14430018.809 6
  20348356.085    -2264103.635 5  -1450051.280 4
  16956829.710   -35752087.395 7 -27648160.373 8
  18967795.273   -12703844.681 6  -9807868.359 6
 95  2 19 20 10 59.9870000  0  7 28 18 29 31  2 19 27
  19261311.546   -18528685.914 5  -4502511.697 6
  16243473.679   -41181791.828 7 -27784165.641 7
  17437383.257   -18655081.315 7 -14464156.696 8
  18172332.398   -18739117.953 6 -14501313.296 6
  20323302.812    -2395748.089 4  -1552631.271 2
  16944778.007   -35815438.166 7 -27697524.613 8
  18946971.983   -12813275.648 6  -9893139.206 6
 95  2 19 20 11 29.9870000  0  7 28 18 29 31  2 19 27
  19256029.741   -18556476.884 6  -4524167.008 6
  16236903.460   -41216312.017 7 -27811064.509 7
  17440749.882   -18637377.293 6 -14450361.395 8
  18155009.812   -18830148.027 6 -14572245.778 6
  20298274.694    -2527274.043 3  -1655118.941 5
  16932752.515   -35878632.492 7 -27746766.941 8
  18926157.890   -12922646.054 5  -9978362.872 6
 95  2 19 20 11 59.9870000  0  7 28 18 29 31  2 19 27
  19250835.257   -18583731.693 5  -4545404.544 6
  16230435.702   -41250313.966 7 -27837559.546 7
  17444194.108   -18619271.075 6 -14436252.688 7
  18137777.632   -18920709.945 6 -14642813.458 6
  20273264.913    -2658662.425 3  -1757499.446 3
  16920752.218   -35941675.524 7 -27795891.394 8
  18905363.796   -13031935.146 6 -10063523.182 6
 95  2 19 20 12 29.9860000  0  7 28 18 29 31  2 19 27
  19245757.330   -18610459.637 5  -4566231.551 6
  16224061.971   -41283800.204 7 -27863652.732 7
  17447717.635   -18600783.695 7 -14421846.979 7
  18120632.830   -19010813.718 6 -14713024.130 6
  20248296.432    -2789900.130 3  -1859762.502 3
  16908783.018   -36004580.883 7 -27844908.551 8
  18884575.682   -13141159.862 6 -10148633.327 6
 95  2 19 20 12 59.9860000  0  7 28 18 29 31  2 19 27
  19240771.432   -18636638.490 5  -4586630.689 6
  16217787.705   -41316751.246 7 -27889328.880 7
  17451308.940   -18581896.152 6 -14407129.458 8
  18103575.463   -19100444.250 6 -14782866.047 6
  20223361.947    -2920947.962 2  -1961877.679 2
  16896847.315   -36067327.835 7 -27893802.284 8
  18863802.736   -13250320.347 6 -10233693.401 6
 95  2 19 20 13 29.9860000  0  7 28 18 29 31  2 19 27
  19235888.619   -18662284.370 5  -4606614.529 5
  16211620.221   -41349186.941 7 -27914603.456 7
  17454977.190   -18562612.902 6 -14392103.587 7
  18086606.940   -19189604.205 6 -14852341.275 6
  20198451.197    -3051801.643 3  -2063841.515 2
  16884929.455   -36129930.792 7 -27942583.800 8
  18843039.268   -13359432.575 6 -10318715.887 6
 95  2 19 20 13 59.9860000  0  7 28 18 29 31  2 19 27
  19231114.096   -18687398.626 5  -4626184.101 5
  16205541.924   -41381124.117 7 -27939489.591 7
  17458723.549   -18542929.413 6 -14376765.848 7
  18069734.150   -19278288.337 6 -14921445.730 6
  20173604.432    -3182458.644 3  -2165652.126 3
  16873045.979   -36192374.757 7 -27991241.434 8
  18822287.182   -13468498.499 6 -10403702.294 6
 95  2 19 20 14 29.9860000  0  7 28 18 29 31  2 19 27
  19226436.486   -18711969.646 5  -4645330.376 6
  16199561.236   -41412560.483 7 -27963985.470 7
  17462545.322   -18522836.580 6 -14361109.134 7
  18052950.018   -19366471.674 6 -14990159.957 6
  20148771.525    -3312912.002 3  -2267303.984 3
  16861196.736   -36254639.633 7 -28039759.515 8
  18801541.565   -13577514.876 6 -10488650.071 6
 95  2 19 20 14 59.9860000  0  7 28 18 29 31  2 19 27
  19221862.502   -18736011.907 5  -4664064.647 6
  16193669.088   -41443515.182 7 -27988106.026 7
  17466447.768   -18502348.642 6 -14345144.556 7
  18036265.690   -19454166.584 6 -15058493.583 6
  20123974.674    -3443184.018 3  -2368814.631 2
  16849383.783   -36316723.678 7 -28088136.687 8
  18780800.705   -13686494.314 6 -10573569.082 6
 95  2 19 20 15 29.9860000  0  7 28 18 29 31  2 19 27
  19217383.643   -18759531.482 5  -4682391.628 6
  16187869.533   -41473996.493 7 -28011857.717 7
  17470417.119   -18481472.797 6 -14328877.709 7
  18019669.080   -19541376.625 6 -15126449.389 6
  20099227.650    -3573284.529 3  -2470191.568 2
  16837604.815   -36378638.543 7 -28136382.032 8
  18760073.822   -13795433.446 6 -10658456.680 6
 95  2 19 20 15 59.9860000  0  7 28 18 29 31  2 19 27
  19213013.025   -18782514.809 5  -4700300.724 6
  16182161.822   -41503987.341 7 -28035227.224 7
  17474458.315   -18460226.901 6 -14312322.510 7
  18003168.236   -19628085.166 6 -15194014.429 6
  20074504.565    -3703207.388 3  -2571430.114 3
  16825854.057   -36440379.500 7 -28184491.858 8
  18739351.736   -13904324.299 6 -10743306.665 6
 95  2 19 20 16 29.9860000  0  7 28 18 29 31  2 19 27
  19208740.283   -18804958.424 5  -4717789.309 6
  16176550.416   -41533478.932 7 -28058207.703 7
  17478574.025   -18438616.962 6 -14295483.639 7
  17986764.799   -19714291.381 6 -15261188.043 6
  20049814.799    -3832939.605 3  -2672520.121 3
  16814132.885   -36501965.187 7 -28232480.691 8
  18718636.143   -14013164.791 6 -10828117.398 6
 95  2 19 20 16 59.9860000  0  7 28 18 29 31  2 19 27
  19204569.885   -18826866.107 5  -4734860.241 6
  16171032.971   -41562468.818 7 -28080797.236 7
  17482753.674   -18416648.222 6 -14278365.192 7
  17970451.315   -19800015.647 6 -15327986.118 6
  20025160.197    -3962471.859 3  -2773454.315 2
  16802442.650   -36563411.920 7 -28280361.255 8
  18697937.502   -14121958.850 6 -10912891.960 6
 95  2 19 20 17 29.9860000  0  7 28 18 29 31  2 19 27
  19200501.135   -18848262.766 5  -4751532.982 6
  16165604.822   -41590980.514 7 -28103014.159 7
  17487000.963   -18394341.673 6 -14260983.504 7
  17954228.135   -19885282.642 6 -15394427.882 6
  20000546.627    -4091820.141 3  -2874245.091 2
  16790768.268   -36624762.432 7 -28328166.835 9
  18677240.565   -14230721.942 6 -10997642.390 6
 95  2 19 20 17 59.9860000  0  7 28 18 29 31  2 19 27
  19196530.104   -18869127.181 6  -4767790.972 5
  16160278.080   -41618996.534 7 -28124844.842 7
  17491311.408   -18371674.678 6 -14243320.958 7
  17938089.002   -19970077.670 6 -15460501.878 6
  19975976.924    -4220964.739 3  -2974877.176 1
  16779118.143   -36685980.897 7 -28375869.528 9
  18656551.611   -14339429.442 6 -11082349.505 6
 95  2 19 20 18 29.9860000  0  7 28 18 29 31  2 19 27
  19192660.721   -18889456.782 5  -4783632.226 6
  16155040.065   -41646517.498 7 -28146289.771 7
  17495701.057   -18348615.186 6 -14225352.557 7
  17922040.244   -20054404.377 6 -15526210.959 6
  19951445.369    -4349900.633 4  -3075346.633 2
  16767497.315   -36747047.419 7 -28423453.830 9
  18635877.986   -14448064.450 6 -11167000.133 6
 95  2 19 20 18 59.9860000  0  7 28 18 29 31  2 19 27
  19188896.268   -18909256.901 5  -4799060.898 6
  16149895.455   -41673547.487 7 -28167352.121 8
  17500164.182   -18325154.976 6 -14207071.908 7
  17906084.119   -20138252.965 6 -15591547.473 6
  19926941.807    -4478643.927 4  -3175666.026 4
  16755908.908   -36807950.178 7 -28470910.513 9
  18615223.010   -14556624.217 6 -11251592.119 6
 95  2 19 20 19 29.9860000  0  7 28 18 29 31  2 19 27
  19185225.315   -18928533.330 5  -4814081.511 6
  16144844.525   -41700094.398 7 -28188038.039 7
  17504704.682   -18301293.210 6 -14188478.369 7
  17890223.846   -20221607.917 6 -15656499.351 6
  19902471.346    -4607218.122 4  -3275853.637 2
  16744348.213   -36868683.234 7 -28518234.965 9
  18594574.260   -14665114.638 6 -11336130.073 6
 95  2 19 20 19 59.9860000  0  7 28 18 29 31  2 19 27
  19181656.205   -18947279.772 5  -4828689.135 6
  16139885.815   -41726145.804 7 -28208337.856 7
  17509326.127   -18277025.209 6 -14169568.289 7
  17874459.861   -20304455.281 6 -15721055.705 7
  19878039.416    -4735623.489 4  -3375909.697 2
  16732829.494   -36929232.906 7 -28565416.526 8
  18573945.010   -14773539.606 6 -11420617.031 6
 95  2 19 20 20 29.9860000  0  7 28 18 29 31  2 19 27
  19178191.182   -18965489.502 6  -4842878.541 5
  16135028.400   -41751678.357 7 -28228233.380 7
  17514020.877   -18252339.152 6 -14150332.440 7
  17858795.049   -20386774.424 6 -15785200.461 6
  19853635.799    -4863854.466 4  -3475829.854 4
  16721335.025   -36989609.660 7 -28612463.358 8
  18553324.775   -14881898.470 6 -11505052.478 6
 95  2 19 20 20 59.9860000  0  7 28 18 29 31  2 19 27
  19174833.283   -18983163.161 5  -4856650.231 5
  16130266.846   -41776694.149 7 -28247726.221 7
  17518796.916   -18227245.927 6 -14130779.327 7
  17843232.244   -20468558.741 6 -15848928.468 6
  19829269.408    -4991918.021 5  -3575619.547 3
  16709877.111   -37049830.688 7 -28659388.837 8
  18532714.869   -14990204.095 6 -11589446.424 6
 95  2 19 20 21 29.9860000  0  7 28 18 29 31  2 19 27
  19171565.322   -19000306.256 5  -4870008.508 6
  16125604.596   -41801205.295 7 -28266825.829 7
  17523644.994   -18201769.218 6 -14110927.400 7
  17827767.307   -20549822.740 6 -15912251.051 6
  19804927.072    -5119817.992 5  -3675281.784 5
  16698445.541   -37109905.439 7 -28706200.343 8
  18512112.377   -15098464.224 6 -11673804.941 6
 95  2 19 20 21 59.9860000  0  7 28 18 29 31  2 19 27
  19168405.971   -19016912.423 5  -4882948.426 5
  16121034.838   -41825214.815 7 -28285534.565 7
  17528562.713   -18175917.130 6 -14090782.951 7
  17812405.674   -20630558.995 6 -15975162.396 6
  19780624.002    -5247534.793 4  -3774801.299 4
  16687043.682   -37169830.726 7 -28752895.371 8
  18491525.861   -15206664.749 6 -11758116.989 6
 95  2 19 20 22 29.9860000  0  7 28 18 29 31  2 19 27
  19165347.002   -19032979.585 5  -4895468.307 6
  16116563.252   -41848717.457 7 -28303848.326 7
  17533555.705   -18149684.381 6 -14070341.895 7
  17797140.744   -20710757.091 6 -16037654.397 6
  19756359.869    -5375061.454 5  -3874172.680 4
  16675669.619   -37229601.586 7 -28799470.083 8
  18470947.010   -15314792.061 6 -11842371.994 6
 95  2 19 20 22 59.9860000  0  7 28 18 29 31  2 19 27
  19162393.518   -19048517.367 6  -4907575.688 5
  16112179.807   -41871738.119 7 -28321786.523 7
  17538616.065   -18123093.356 6 -14049621.667 7
  17781980.846   -20790428.344 6 -16099735.878 6
  19732123.947    -5502406.177 5  -3973402.291 5
  16664328.346   -37289210.053 7 -28845918.249 9
  18450384.143   -15422849.830 6 -11926572.805 6
 95  2 19 20 23 29.9860000  0  7 28 18 29 31  2 19 27
  19159542.041   -19063511.173 5  -4919259.209 6
  16107897.088   -41894246.317 7 -28339325.396 8
  17543745.760   -18096132.190 6 -14028613.013 7
  17766923.400   -20869554.043 6 -16161392.251 7
  19707932.736    -5629530.909 5  -4072460.445 3
  16653021.791   -37348623.916 7 -28892214.776 9
  18429837.424   -15530822.989 6 -12010707.687 6
 95  2 19 20 23 59.9860000  0  7 28 18 29 31  2 19 27
  19156790.182   -19077974.570 5  -4930529.422 6
  16103712.244   -41916238.717 7 -28356462.345 7
  17548945.900   -18068796.618 6 -14007312.612 7
  17751969.549   -20948150.458 6 -16222636.201 6
  19683783.025    -5756442.021 5  -4171352.191 4
  16641747.744   -37407851.236 7 -28938365.938 9
  18409302.705   -15638730.701 6 -12094791.566 6
 95  2 19 20 24 29.9860000  0  7 28 18 29 31  2 19 27
  19154134.213   -19091918.774 5  -4941395.071 6
  16099625.393   -41937714.702 7 -28373196.898 7
  17554222.182   -18041095.483 6 -13985727.364 7
  17737112.713   -21026236.694 6 -16283482.601 7
  19659672.916    -5883148.152 5  -4270084.184 5
  16630512.369   -37466896.478 7 -28984375.220 9
  18388772.143   -15746591.598 6 -12178838.986 6
 95  2 19 20 24 59.9860000  0  7 28 18 29 31  2 19 27
  19151576.244   -19105341.787 5  -4951854.610 5
  16095636.369   -41958684.266 7 -28389536.827 7
  17559558.354   -18013037.504 6 -13963864.065 7
  17722343.666   -21103814.281 6 -16343932.658 7
  19635602.963    -6009651.322 5  -4368658.018 5
  16619312.299   -37525758.733 7 -29030241.918 9
  18368262.213   -15854411.927 6 -12262854.787 6
 95  2 19 20 25 29.9860000  0  7 28 18 29 31  2 19 27
  19149125.830   -19118233.826 5  -4961900.347 6
  16091743.291   -41979133.287 7 -28405471.151 7
  17564968.697   -17984606.361 6 -13941709.975 7
  17707682.174   -21180870.225 6 -16403976.247 7
  19611565.955    -6135945.612 5  -4467069.101 4
  16608149.424   -37584437.364 7 -29075965.535 9
  18347753.604   -15962178.903 6 -12346829.007 6
 95  2 19 20 25 59.9860000  0  7 28 18 29 31  2 19 27
  19146773.932   -19130605.712 5  -4971540.839 6
  16087946.440   -41999090.145 7 -28421021.958 7
  17570449.018   -17955814.091 6 -13919274.495 7
  17693122.072   -21257408.241 6 -16463616.254 7
  19587563.065    -6262064.999 5  -4565343.896 4
  16597007.096   -37642964.031 7 -29121570.732 9
  18327255.885   -16069889.664 6 -12430759.424 6
 95  2 19 20 26 29.9860000  0  7 28 18 29 31  2 19 27
  19144514.893   -19142461.216 5  -4980778.915 5
  16084241.525   -42018568.009 7 -28436199.525 7
  17575992.307   -17926679.490 6 -13896572.260 7
  17678652.666   -21333416.312 6 -16522843.313 7
  19563602.549    -6388010.757 5  -4663483.420 5
  16585896.565   -37701352.982 7 -29167068.618 9
  18306767.908   -16177548.141 6 -12514649.106 6
 95  2 19 20 26 59.9860000  0  8 28 18 16 29 31  2 19 27
  19142354.338   -19153801.123 5  -4989615.229 6
  16080625.541   -42037565.195 7 -28451002.554 7
  20573188.190     -102730.789 1
  17581603.174   -17897201.509 6 -13873602.463 7
  17664289.986   -21408890.551 6 -16581654.406 6
  19539661.518    -6513783.390 5  -4761488.029 5
  16574813.572   -37759608.572 7 -29212462.583 8
  18286292.979   -16285153.626 6 -12598497.490 6
 95  2 19 20 27 29.9860000  0  7 28 18 29 31  2 19 27
  19140298.346   -19164616.229 5  -4998042.590 6
  16077106.846   -42056057.990 7 -28465412.539 8
  17587282.674   -17867361.733 6 -13850350.733 7
  17650031.768   -21483815.647 6 -16640037.586 7
  19515769.049    -6639346.279 5  -4859329.196 5
  16563755.338   -37817719.533 7 -29257743.855 8
  18265828.252   -16392693.577 6 -12682294.820 6
 95  2 19 20 27 59.9860000  0  8 28 18 16 29 31  2 19 27
  19138342.760   -19174898.985 5  -5006055.144 6
  16073688.150   -42074029.378 7 -28479416.230 8
  20534348.182          -0.20612
  17593028.471   -17837153.377 6 -13826811.806 7
  17635881.424   -21558182.720 6 -16697985.951 7
  19491921.815    -6764673.829 5  -4956986.991 5
  16552725.002   -37875670.724 7 -29302900.628 9
  18245375.440   -16500170.221 6 -12766042.804 6
 95  2 19 20 28 29.9860000  0  8 28 18 16 29 31  2 19 27
  19136483.650   -19184661.215 5  -5013662.102 6
  16070366.799   -42091486.235 7 -28493019.004 7
  20515054.361     -101370.431 3        -0.23212
  17598846.408   -17806586.528 6 -13802993.549 7
  17621831.924   -21632013.466 6 -16755516.386 6
  19468121.400    -6889754.717 5  -5054452.594 5
  16541732.736   -37933450.090 7 -29347923.511 9
  18224933.994   -16607595.560 6 -12849750.814 6
 95  2 19 20 28 59.9860000  0  8 28 18 16 29 31  2 19 27
  19134724.096   -19193911.728 5  -5020870.311 6
  16067140.432   -42108428.564 7 -28506220.842 7
  20495840.010     -202321.675 3    -78663.533 4
  17604730.174   -17775662.497 6 -13778896.955 7
  17607885.627   -21705314.047 6 -16812633.715 7
  19444360.666    -7014600.072 5  -5151734.646 4
  16530769.768   -37991057.747 7 -29392812.593 9
  18204502.150   -16714957.952 6 -12933409.765 6
 95  2 19 20 29 29.9860000  0  8 28 18 16 29 31  2 19 27
  19133063.869   -19202635.598 5  -5027668.176 6
  16064016.502   -42124850.504 7 -28519017.182 7
  20476720.158     -302842.198 3   -156991.202 3
  17610686.400   -17744360.758 6 -13754506.046 7
  17594037.963   -21778066.819 6 -16869324.175 7
  19420648.385    -7139204.100 5  -5248828.647 5
  16519841.596   -38048482.216 7 -29437558.919 9
  18184089.713   -16822233.345 6 -13017000.939 6
 95  2 19 20 29 59.9860000  0  8 28 18 16 29 31  2 19 27
  19131501.291   -19210837.030 5  -5034058.917 6
  16060988.424   -42140764.493 7 -28531417.705 8
  20457673.385     -402935.587 4   -234986.050 2
  17616713.518   -17712686.890 6 -13729825.173 7
  17580297.229   -21850281.803 6 -16925595.572 7
  19396977.971    -7263600.490 5  -5345760.858 5
  16508948.729   -38105729.205 7 -29482166.960 8
  18163693.315   -16929415.074 6 -13100519.108 6
 95  2 19 20 30 29.9850000  0  8 28 18 16 29 31  2 19 27
  19130040.458   -19218517.643 5  -5040043.857 6
  16058053.419   -42156180.973 7 -28543430.567 7
  20438709.872     -502599.614 4   -312646.309 4
  17622813.005   -17680644.772 6 -13704857.328 7
  17566662.958   -21921950.072 6 -16981440.958 7
  19373344.825    -7387803.606 5  -5442542.477 5
  16498085.482   -38162808.648 7 -29526644.433 8
  18143316.669   -17036493.386 6 -13183956.718 6
 95  2 19 20 30 59.9850000  0  8 28 18 16 29 31  2 19 27
  19128675.849   -19225672.888 5  -5045619.411 6
  16055213.396   -42171098.498 7 -28555054.640 7
  20419817.888     -601819.717 3   -389960.658 4
  17628982.708   -17648223.824 6 -13679594.313 6
  17553130.099   -21993057.626 6 -17036849.423 7
  19349741.872    -7511836.536 5  -5539191.484 5
  16487254.825   -38219733.208 7 -29571001.234 8
  18122960.442   -17143483.984 6 -13267325.977 6
 95  2 19 20 31 29.9850000  0  8 28 18 16 29 31  2 19 27
  19127419.325   -19232306.896 5  -5050788.843 6
  16052467.513   -42185542.129 7 -28566309.439 7
  20401028.747     -700590.808 3   -466925.139 2
  17635220.013   -17615429.934 6 -13654040.688 6
  17539704.732   -22063610.752 6 -17091825.866 7
  19326174.380    -7635693.390 5  -5635703.249 5
  16476448.263   -38276507.869 7 -29615241.226 8
  18102609.200   -17250403.570 6 -13350639.890 6
 95  2 19 20 31 59.9850000  0  8 28 18 16 29 31  2 19 27
  19126259.099   -19238417.522 5  -5055550.419 6
  16049809.896   -42199499.057 7 -28577184.988 8
  20382319.560     -798909.803 4   -543537.370 2
  17641530.982   -17582268.460 6 -13628200.632 7
  17526384.411   -22133594.816 6 -17146358.875 7
  19302642.646    -7759350.358 5  -5732059.286 4
  16465678.989   -38333116.620 7 -29659351.941 8
  18082277.286   -17357263.105 6 -13433907.011 6
 95  2 19 20 32 29.9850000  0  8 28 18 16 29 31  2 19 27
  19125193.489   -19244006.081 5  -5059905.206 6
  16047247.396   -42212958.632 7 -28587672.994 8
  20363695.013     -896778.828 4   -619798.962 2
  17647910.513   -17548748.658 6 -13602081.363 7
  17513181.052   -22202992.228 6 -17200434.755 7
  19279152.013    -7882785.159 5  -5828242.193 5
  16454938.161   -38389553.310 7 -29703328.584 9
  18061951.677   -17464074.150 6 -13517136.368 6
 95  2 19 20 32 59.9850000  0  8 28 18 16 29 31  2 19 27
  19124229.786   -19249074.373 5  -5063854.579 6
  16044780.067   -42225922.890 7 -28597775.040 7
  20345157.333     -994193.781 4   -695706.696 2
  17654357.216   -17514872.017 6 -13575684.040 7
  17500084.255   -22271815.050 6 -17254062.908 7
  19255704.294    -8005989.021 5  -5924245.157 5
  16444233.646   -38445801.193 7 -29747158.107 8
  18041636.036   -17570835.729 6 -13600327.155 6
 95  2 19 20 33 29.9850000  0  8 28 18 16 29 31  2 19 27
  19123366.771   -19253612.470 5  -5067390.802 5
  16042412.075   -42238374.920 7 -28607477.946 8
  20326706.161    -1091148.639 3   -771255.932 1
  17660871.271   -17480638.388 6 -13549008.537 7
  17487095.653   -22340061.006 6 -17307241.552 7
  19232311.521    -8128935.338 5  -6020047.433 5
  16433570.771   -38501837.537 7 -29790822.785 8
  18021333.528   -17677523.528 6 -13683460.463 6
 95  2 19 20 33 59.9850000  0  8 28 18 16 29 31  2 19 27
  19122603.450   -19257632.250 5  -5070523.139 5
  16040139.653   -42250312.582 7 -28616780.046 8
  20308347.958    -1187648.088 3   -846450.326 1
  17667453.685   -17446056.979 6 -13522062.043 6
  17474220.083   -22407743.954 6 -17359981.495 7
  19208960.185    -8251650.072 5  -6115669.232 5
  16422945.599   -38557674.395 7 -29834332.031 9
  18001044.528   -17784139.107 6 -13766537.489 6
 95  2 19 20 34 29.9850000  0  8 28 18 16 29 31  2 19 27
  19121936.763   -19261118.481 5  -5073239.722 5
  16037967.802   -42261729.542 7 -28625676.397 8
  20290079.052    -1283671.944 4
  17674104.380   -17411102.693 6 -13494825.001 6
  17461441.099   -22474868.291 6 -17412286.157 7
  19185653.661    -8374136.440 5  -6211113.113 5
  16412358.888   -38613309.427 7 -29877684.008 9
  17980777.200   -17890657.935 6 -13849539.133 6
 95  2 19 20 34 59.9850000  0  8 28 18 16 29 31  2 19 27
  19121367.896   -19264102.262 5  -5075564.787 6
  16035887.028   -42272667.863 7 -28634199.783 7
  20271884.528    -1379248.986 3
  17680821.388   -17375799.914 6 -13467316.404 7
  17448767.185   -22541476.778 6 -17464188.854 7
  19162380.802    -8496426.698 5  -6306404.154 5
  16401802.521   -38668783.170 7 -29920910.301 9
  17960519.411   -17997103.351 6 -13932483.564 6
 95  2 19 20 35 29.9850000  0  8 28 18 16 29 31  2 19 27
  19120899.638   -19266571.463 5  -5077488.873 6
  16033902.747   -42283097.062 7 -28642326.458 8
  20253784.919    -1474376.307 3
  17687611.497   -17340139.629 6 -13439529.230 6
  17436193.021   -22607545.980 6 -17515671.336 7
  19139155.091    -8618494.140 5  -6401521.565 5
  16391277.114   -38724102.223 7 -29964016.061 8
  17940278.177   -18103468.763 6 -14015365.667 6
 95  2 19 20 35 59.9850000  0  8 28 18 16 29 31  2 19 27
  19120529.294   -19268527.072 5  -5079012.761 6
  16032015.927   -42293007.981 7 -28650049.276 8
  20235759.263    -1569050.097 3        -0.27511
  17694462.661   -17304115.408 6 -13411458.471 6
  17423728.513   -22673061.707 6 -17566722.544 7
  19115967.318    -8740335.664 5  -6496462.955 5
  16380779.153   -38779268.711 7 -30007002.937 8
  17920053.911   -18209764.310 6 -14098193.316 6
 95  2 19 20 36 29.9850000  0  8 28 18 16 29 31  2 19 27
  19120251.575   -19269977.298 5  -5080142.830 6
  16030227.857   -42302402.367 7 -28657369.590 8
  20217839.911    -1663271.683 3    -73419.770 1
  17701380.802   -17267752.462 6 -13383123.774 6
  17411367.388   -22738012.488 6 -17617333.536 7
  19092826.919    -8861930.833 5  -6591212.362 5
  16370310.341   -38834279.447 7 -30049868.448 8
  17899834.450   -18316010.245 6 -14180982.322 6
 95  2 19 20 36 59.9850000  0  8 28 18 16 29 31  2 19 27
  19120075.872   -19270903.513 5  -5080864.591 6
  16028544.380   -42311255.975 7 -28664268.527 7
  20199994.739    -1757010.812 3   -146463.214 1
  17708370.763   -17231050.867 6 -13354525.188 6
  17399124.802   -22802357.353 6 -17667472.381 7
  19069735.364    -8983256.938 5  -6685752.131 5
  16359873.380   -38889105.309 7 -30092589.902 8
  17879631.067   -18422185.521 6 -14263716.257 6
 95  2 19 20 37 29.9850000  0  8 28 18 16 29 31  2 19 27
  19119996.200   -19271320.535 5
  16026963.482   -42319574.392 7 -28670750.433 8
  20182249.692    -1850276.161 3
  17715413.958   -17194025.915 6 -13325674.656 6
  17386991.935   -22866109.192 6 -17717149.135 7
  19046698.052    -9104347.321 5  -6780108.197 5
  16349479.021   -38943747.812 7 -30135168.477 8
  17859435.771   -18528302.038 6 -14346404.407 6
 95  2 19 20 37 59.9850000  0  8 28 18 16 29 31  2 19 27
  19120013.052   -19271225.936 5
  16025477.505   -42327367.746 7 -28676823.201 8
  20164597.974    -1943061.368 4
  17722519.599   -17156672.533 6 -13296568.175 6
  17374973.528   -22929264.176 6 -17766360.813 7
  19023696.771    -9225216.254 5  -6874291.722 5
  16339119.919   -38998194.070 7 -30177594.137 8
  17839258.013   -18634337.057 6 -14429029.054 6
 95  2 19 20 38 29.9850000  0  8 28 18 16 29 31  2 19 27
  19120121.458   -19270642.531 5  -5080661.318 5
  16024089.958   -42334670.325 7 -28682513.543 8
  20147016.786    -2035400.091 3
  17729688.239   -17119019.183 6 -13267227.971 6
  17363067.552   -22991852.184 6 -17815130.686 7
  19000729.911    -9345892.831 5  -6968325.365 5
  16328787.575   -39052470.869 7 -30219887.749 8
  17819094.802   -18740294.890 6 -14511593.563 6
 95  2 19 20 38 59.9850000  0  8 28 18 16 29 31  2 19 27
  19120334.833   -19269542.582 5  -5079804.248 5
  16022797.677   -42341451.310 7 -28687797.449 8
  20129536.263    -2127269.299 3
  17736917.630   -17081015.839 6 -13237615.043 6
  17351268.974   -23053850.716 6 -17863441.237 7
  18977806.075    -9466363.688 5  -7062198.735 5
  16318494.677   -39106557.666 7 -30262033.294 8
  17798954.364   -18846130.419 6 -14594062.763 6
 95  2 19 20 39 29.9850000  0  8 28 18 16 29 31  2 19 27
  19120642.333   -19267928.292 5  -5078546.379 5
  16021604.271   -42347720.930 7 -28692682.889 8
  20112146.286    -2218677.123 3
  17744218.958   -17042652.458 6 -13207721.561 6
  17339582.575   -23115254.359 6 -17911288.226 7
  18954926.857    -9586615.425 5  -7155901.296 5
  16308239.317   -39160457.454 7 -30304033.136 8
  17778837.552   -18951845.870 6 -14676438.392 6
 95  2 19 20 39 59.9850000  0  8 28 18 16 29 31  2 19 27
  19121047.567   -19265808.082 5  -5076894.332 5
  16020507.333   -42353490.717 7 -28697178.858 8
  20094838.997    -2309627.770 3        -0.39311
  17751585.661   -17003940.063 6 -13177556.118 6
  17328011.685   -23176052.545 6 -17958663.441 7
  18932083.950    -9706636.387 5  -7249424.072 5
  16298018.036   -39214178.331 7 -30345893.549 8
  17758741.403   -19057461.605 6 -14758736.324 6
 95  2 19 20 40 29.9850000  0  8 28 18 16 29 31  2 19 27
  19121552.286   -19263175.703 5  -5074843.176 5
  16019506.521   -42358755.713 7 -28701281.471 8
  20077624.380    -2400089.050 3    -70489.743 1
  17759020.708   -16964870.112 6 -13147112.072 6
  17316561.544   -23236230.473 6 -18005555.339 7
  18909290.755    -9826413.203 5  -7342756.603 5
  16287829.380   -39267713.586 7 -30387609.332 8
  17738661.036   -19162990.034 6 -14840966.228 6
 95  2 19 20 40 59.9850000  0  8 28 18 16 29 31  2 19 27
  19122141.950   -19260041.497 5  -5072400.987 6
  16018598.919   -42363524.930 7 -28704997.767 8
  20060508.661    -2490048.692 3   -140588.146 1
  17766521.247   -16925449.626 6 -13116394.875 6
  17305227.474   -23295798.264 6 -18051971.804 7
  18886544.810    -9945944.729 5  -7435898.002 5
  16277675.732   -39321071.381 7 -30429186.830 8
  17718591.028   -19268456.875 6 -14923148.141 6
 95  2 19 20 41 29.9850000  0  8 28 18 16 29 31  2 19 27
  19122835.958   -19256405.753 5  -5069568.033 5
  16017783.942   -42367801.879 7 -28708330.477 8
  20043483.263    -2579511.904 3   -210299.728 1
  17774087.599   -16885694.784 6 -13085417.147 6
  17294003.247   -23354764.285 6 -18097919.362 7
  18863849.911   -10065226.343 6  -7528844.648 5
  16267557.732   -39374254.958 7 -30470628.579 8
  17698530.919   -19373869.990 6 -15005288.191 6
 95  2 19 20 41 59.9850000  0  8 28 18 16 29 31  2 19 27
  19123619.325   -19252260.246 5  -5066337.815 5
  16017069.419   -42371563.621 7 -28711261.737 8
  20026549.239    -2668467.385 3   -279615.664 1
  17781717.302   -16845597.998 6 -13054172.958 6
  17282895.419   -23413146.335 6 -18143411.867 7
  18841197.802   -10184250.197 5  -7621590.459 5
  16257468.661   -39427258.970 7 -30511930.407 8
  17678483.122   -19479207.376 6 -15087369.216 6
 95  2 19 20 42 29.9850000  0  8 28 18 16 29 31  2 19 27
  19124504.607   -19247621.806 5  -5062723.502 5
  16016447.294   -42374830.581 7 -28713807.439 8
  20009725.568    -2756934.763 3   -348551.263 1
  17789408.185   -16805179.857 6 -13022678.368 6
  17271886.482   -23470978.877 6 -18188476.176 7
  18818592.427   -10303031.355 5  -7714147.160 5
  16247413.388   -39480105.070 7 -30553109.186 8
  17658454.778   -19584461.030 6 -15169385.008 6
 95  2 19 20 42 59.9850000  0  8 28 18 16 29 31  2 19 27
  19125479.747   -19242481.582 5  -5058718.167 5
  16015921.607   -42377593.972 7 -28715960.752 8
  19992971.685    -2844931.880 3   -417120.432 1
  17797163.013   -16764439.416 6 -12990932.636 6
  17260989.403   -23528259.192 6 -18233110.191 7
  18796038.075   -10421561.488 5  -7806508.258 5
  16237388.661   -39532780.181 7 -30594154.721 8
  17638445.864   -19689606.856 6 -15251316.778 6
 95  2 19 20 43 29.9850000  0  8 28 18 16 29 31  2 19 27
  19126556.419   -19236846.817 5  -5054327.508 5
  16015491.810   -42379857.483 7 -28717724.557 8
  19976318.888    -2932466.062 3   -485328.839 2
  17804971.989   -16723386.100 6 -12958943.107 6
  17250194.911   -23584990.254 6 -18277316.212 7
  18773529.903   -10539850.487 6  -7898681.435 5
  16227398.622   -39585279.215 7 -30635063.054 8
  17618462.083   -19794629.479 6 -15333152.528 7
 95  2 19 20 43 59.9850000  0  8 28 18 16 29 31  2 19 27
  19127729.216   -19230700.026 5  -5049537.852 5
  16015157.091   -42381610.350 7 -28719090.451 8
  19959756.536    -3019505.421 2   -553151.654 2
  17812848.286   -16681995.333 6 -12926690.618 6
  17239506.372   -23641141.704 6 -18321070.584 7
  18751066.161   -10657877.570 5  -7990650.522 5
  16217449.607   -39637568.016 7 -30675807.567 8
  17598504.528   -19899499.345 6 -15414869.262 6
 95  2 19 20 44 29.9850000  0  8 28 18 16 29 31  2 19 27
  19128993.411   -19224047.356 5  -5044353.986 5
  16014915.052   -42382863.275 7 -28720066.773 8
  19943277.224    -3106042.435 1   -620583.032 2
  17820791.122   -16640270.389 6 -12894177.748 6
  17228939.192   -23696683.812 6 -18364350.148 7
  18728655.388   -10775649.685 5  -8082420.940 5
  16207540.536   -39689640.203 7 -30716383.294 8
  17578572.880   -20004241.744 6 -15496486.676 7
 95  2 19 20 44 59.9850000  0  8 28 18 16 29 31  2 19 27
  19130353.857   -19216890.859 5  -5038777.557 4
  16014775.286   -42383605.284 7 -28720644.987 8
  19926919.817    -3192064.089 2   -687612.854 2
  17828791.466   -16598206.272 6 -12861400.584 6
  17218489.216   -23751607.352 6 -18407147.707 7
  18706294.724   -10893169.258 5  -8173994.574 5
  16197672.919   -39741486.191 7 -30756782.756 8
  17558661.677   -20108881.959 6 -15578024.452 6
 95  2 19 20 45 29.9850000  0  8 28 18 16 29 31  2 19 27
  19131807.630   -19209245.870 5  -5032820.449 5
  16014731.474   -42383844.929 7
  19910640.544    -3277574.566 3   -754244.320 1
  17836862.216   -16555802.831 6 -12828359.014 6
  17208149.325   -23805923.124 6 -18449471.681 7
  18683979.021   -11010446.944 6  -8265379.709 6
  16187851.388   -39793115.421 7 -30797013.319 8
  17538762.778   -20213444.748 6 -15659501.907 7
 95  2 19 20 45 59.9850000  0  8 28 18 16 29 31  2 19 27
  19133359.325   -19201093.220 5  -5026467.780 4
  16014786.833   -42383558.567 7
  19894471.927    -3362570.503 3   -820474.908 2
  17845000.653   -16513033.384 6 -12795032.247 6
  17197939.513   -23859601.364 6 -18491298.873 7
  18661709.692   -11127459.250 5  -8356558.062 6
  16178064.442   -39844526.477 7 -30837073.889 8
  17518881.575   -20317935.469 6 -15740923.204 7
 95  2 19 20 46 29.9850000  0  8 28 18 16 29 31  2 19 27
  19135012.880   -19192438.263 5  -5019723.686 5
  16014943.325   -42382747.259 7 -28719976.465 8
  19878394.786    -3447063.011 2   -886313.181 3
  17853207.614   -16469907.678 6 -12761427.873 6
  17187840.974   -23912647.136 6 -18532633.230 7
  18639492.732   -11244209.116 5  -8447531.916 5
  16168321.747   -39895727.091 7 -30876970.468 8
  17499005.591   -20422370.248 6 -15822300.914 7
 95  2 19 20 46 59.9850000  0  8 28 18 16 29 31  2 19 27
  19136747.802   -19183286.849 5  -5012592.764 2
  16015195.052   -42381416.572 7 -28718939.593 8
  19862400.888    -3531076.087 3   -951777.871 2
  17861483.083   -16426440.167 6 -12727557.172 6
  17177861.630   -23965092.486 6 -18573499.730 7
  18617324.442   -11360702.952 6  -8538306.254 6
  16158616.161   -39946734.054 7 -30916716.156 8
  17479145.630   -20526738.546 6 -15903626.827 7
 95  2 19 20 47 29.9850000  0  8 28 18 16 29 31  2 19 27
  19138588.200   -19173636.296 5  -5005072.885 4
  16015543.325   -42379566.726 7 -28717498.173 8
  19846512.239    -3614622.949 3  -1016879.227 1
  17869816.864   -16382637.238 6 -12693425.082 6
  17167999.692   -24016931.097 6 -18613893.438 7
  18595205.942   -11476936.331 5  -8628877.652 6
  16148946.911   -39997547.634 7 -30956311.160 8
  17459299.185   -20631024.930 6 -15984888.917 7
 95  2 19 20 47 59.9850000  0  8 28 18 16 29 31  2 19 27
  19140515.208   -19163496.011 5  -4997171.417 2
  16015995.427   -42377211.527 7 -28715662.977 8
  19830701.927    -3697700.265 3  -1081614.791 1
  17878209.357   -16338531.864 6 -12659057.338 6
  17158246.036   -24068158.406 6 -18653810.824 7
  18573134.982   -11592921.471 6  -8719255.602 5
  16139309.450   -40048185.190 7 -30995768.997 8
  17439469.567   -20735229.945 6 -16066087.591 7
 95  2 19 20 48 29.9840000  0  8 28 18 16 29 31  2 19 27
  19142537.141   -19152861.750 4  -4988885.012 4
  16016535.914   -42374349.533 7 -28713432.877 8
  19814979.430    -3780278.883 3  -1145961.714 2
  17886657.266   -16294136.998 6 -12624464.004 6
  17148618.109   -24118771.289 6
  18551111.734   -11708664.444 6  -8809444.868 6
  16129712.984   -40098624.118 7
  17419660.258   -20839331.864 6 -16147205.940 7
 95  2 19 20 48 59.9840000  0  8 28 18 16 29 31  2 19 27
  19144650.953   -19141742.922 4  -4980221.065 4
  16017178.859   -42370978.503 7 -28710806.120 8
  19799362.016    -3862359.108 3  -1209920.297 3
  17895156.727   -16249465.705 6 -12589655.287 6
  17139102.102   -24168780.085 6 -18732217.319 7
  18529126.797   -11824182.049 6  -8899458.500 5
  16120148.524   -40148882.255 7 -31074234.236 8
  17399869.102   -20943333.966 6 -16228246.508 7
 95  2 19 20 49 29.9840000  0  8 28 18 16 29 31  2 19 27
  19146859.774   -19130142.233 4  -4971181.636 4
  16017914.938   -42367107.404 7 -28707789.703 8
  19783844.547    -3943922.752 4  -1273476.393 3
  17903713.859   -16204512.631 6 -12554627.001 6
  17129704.984   -24218161.050 6 -18770695.984 7
  18507189.961   -11939469.595 6  -8989292.882 6
  16110621.617   -40198948.489 7 -31113246.888 8
  17380097.242   -21047231.584 6 -16309205.662 7
 95  2 19 20 49 59.9840000  0  8 28 18 16 29 31  2 19 27
  19149159.867   -19118043.266 4  -4961753.926 3
  16018750.625   -42362726.974 7 -28704376.400 8
  19768427.102    -4024939.626 4  -1336606.377 2
  17912321.899   -16159249.313 6 -12519356.955 6
  17120430.063   -24266907.184 6 -18808679.970 7
  18485296.484   -12054507.357 6  -9078932.603 6
  16101131.453   -40248813.226 7 -31152102.525 8
  17360354.172   -21150995.755 6 -16390060.826 7
 95  2 19 20 50 29.9840000  0  8 28 18 16 29 31  2 19 27
  19151556.602   -19105467.107 4  -4951954.363 4
  16019676.883   -42357848.203 7 -28700574.777 8
  19753109.094    -4105441.865 4  -1399335.361 2
  17920996.609   -16113676.606 6 -12483845.833 6
  17111265.828   -24315063.111 6 -18846204.064 7
  18463455.391   -12169302.985 6  -9168383.645 6
  16091679.180   -40298489.274 7 -31190811.130 8
  17340631.430   -21254637.923 6 -16470820.917 7
 95  2 19 20 50 59.9840000  0  8 28 18 16 29 31  2 19 27
  19154042.281   -19092411.123 5  -4941780.917 5
  16020699.000   -42352480.727 7 -28696392.348 8
  19737884.594    -4185438.384 4  -1461670.259 2
  17929729.789   -16067774.695 6 -12448078.193 6
  17102216.094   -24362625.373 6 -18883265.567 7
  18441659.367   -12283830.948 6  -9257626.123 6
  16082261.578   -40347977.153 7 -31229373.119 8
  17320930.899   -21358149.508 6 -16551479.260 7
 95  2 19 20 51 29.9840000  0  8 28 18 16 29 31  2 19 27
  19156614.391   -19078879.855 4  -4931237.122 4
  16021809.461   -42346644.922 7 -28691844.989 8
  19722751.852    -4264946.836 5  -1523624.862 2
  17938532.453   -16021537.097 6 -12412048.972 6
  17093274.859   -24409604.058 6 -18919872.320 7
  18419914.383   -12398097.435 6  -9346664.858 6
  16072881.266   -40397282.113 7 -31267792.563 8
  17301255.281   -21461545.929 6 -16632047.868 7
 95  2 19 20 51 59.9840000  0  8 28 18 16 29 31  2 19 27
  19159290.203   -19064871.627 5  -4920321.691 4
  16023014.508   -42340318.418 7 -28686915.264 8
  19707716.820    -4343964.516 4  -1585197.061 2
  17947391.211   -15974977.506 6 -12375768.837 6
  17084446.344   -24455998.644 6 -18956023.936 7
  18398222.016   -12512099.321 6  -9435497.407 5
  16063531.133   -40446412.758 7 -31306076.174 8
  17281603.406   -21564827.627 6 -16712527.069 7
 95  2 19 20 52 29.9840000  0  8 28 18 16 29 31  2 19 27
  19162040.375   -19050401.701 4  -4909046.477 5
  16024311.352   -42333513.771 7 -28681612.970 8
  19692773.305    -4422501.455 4  -1646394.629 2
  17956312.992   -15928115.411 6 -12339252.983 6
  17075726.219   -24501805.856 6 -18991717.866 7
  18376576.594   -12625848.810 6  -9524133.282 5
  16054215.508   -40495374.913 7 -31344228.495 8
  17261966.250   -21668029.095 6 -16792943.763 7
 95  2 19 20 52 59.9840000  0  8 28 18 16 29 31  2 19 27
  19164883.867   -19035444.513 4  -4897391.603 5
  16025700.766   -42326208.104 7 -28675920.266 8
  19677925.633    -4500521.031 4  -1707189.070 4
  17965285.719   -15880932.406 6 -12302487.081 5
  17067136.000   -24546976.688 6 -19026915.907 7
  18354979.875   -12739323.460 6  -9612555.006 6
  16044934.414   -40544136.985 7 -31382224.904 8
  17242343.922   -21771137.679 6 -16873288.071 7
 95  2 19 20 53 29.9840000  0  8 28 18 16 29 31  2 19 27
  19167817.586   -19020017.408 4  -4885370.533 5
  16027185.094   -42318400.812 7 -28669836.683 8
  19663175.445    -4578027.048 4  -1767583.307 4
  17974328.094   -15833446.607 6 -12265485.225 6
  17058653.906   -24591518.970 6 -19061624.179 7
  18333436.383   -12852545.910 6  -9700780.221 5
  16035690.906   -40592712.586 7 -31420076.012 8
  17222734.938   -21874175.574 6 -16953577.292 7
 95  2 19 20 53 59.9840000  0  8 28 18 16 29 31  2 19 27
  19170841.258   -19004121.226 5  -4872983.959 4
  16028768.477   -42310081.664 7 -28663354.268 8
  19648527.563    -4655002.791 4  -1827564.353 4
  17983417.570   -15785644.494 5 -12228236.897 6
  17050300.484   -24635424.381 6 -19095836.181 7
  18311943.344   -12965503.100 6  -9788798.714 6
  16026487.141   -40641081.255 7 -31457765.877 8
  17203146.539   -21977131.044 6 -17033802.288 7
 95  2 19 20 54 29.9840000  0  8 28 18 16 29 31  2 19 27
  19173958.914   -18987758.075 4  -4860233.502 5
  16030445.000   -42301270.301 7 -28656488.290 8
  19633983.172    -4731444.225 5  -1887129.082 4
  17992578.266   -15737513.726 6 -12190732.475 5
  17042064.438   -24678696.906 6 -19129555.022 7
  18290494.797   -13078196.557 5  -9876611.724 6
  16017327.469   -40689224.645 7 -31495280.197 8
  17183566.758   -22080011.224 6 -17113968.627 7
 95  2 19 20 54 59.9840000  0  8 28 18 16 29 31  2 19 27
  19177154.727   -18970938.073 4  -4847127.089 5
  16032215.242   -42291966.942 7 -28649238.943 8
  19619536.078    -4807361.049 5  -1946284.985 5
  18001795.156   -15689074.052 5 -12152987.336 6
  17033954.594   -24721340.654 6 -19162783.917 7
  18269096.172   -13190631.397 5  -9964223.214 6
  16008206.141   -40737140.025 7 -31532616.848 8
  17164003.492   -22182814.102 6 -17194074.724 7
 95  2 19 20 55 29.9840000  0  8 28 18 16 29 31  2 19 27
  19180444.852   -18953663.437 5  -4833666.389 5
  16034080.656   -42282175.829 7 -28641609.535 8
  19605190.117    -4882759.429 5  -2005036.900 5
  18011074.922   -15640330.246 6 -12115005.218 5
  17025954.867   -24763362.371 6 -19195528.102 7
  18247752.625   -13302813.503 6 -10051637.776 6
  15999132.141   -40784832.442 7 -31569779.765 8
  17144460.867   -22285527.380 6 -17274110.993 7
 95  2 19 20 55 59.9840000  0  8 28 18 16 29 31  2 19 27
  19183820.164   -18935936.718 5  -4819853.436 5
  16036032.649   -42271907.482 7 -28633608.252 8
  19590935.555    -4957648.778 5  -2063392.189 5
  18020399.859   -15591307.124 5 -12076805.463 6
  17018074.641   -24804773.986 6 -19227796.894 7
  18226450.008   -13414748.229 6 -10138859.571 6
  15990099.414   -40832304.652 7 -31606771.087 8
  17124932.602   -22388144.209 6 -17354072.114 7
 95  2 19 20 56 29.9840000  0  8 28 18 16 29 31  2 19 27
  19187276.305   -18917760.917 5  -4805690.514 5
  16038077.172   -42261167.002 7 -28625239.072 8
  19576780.945    -5032043.010 5  -2121361.694 5
  18029778.961   -15542039.879 5 -12038415.468 5
  17010310.391   -24845579.282 6 -19259593.219 7
  18205195.461   -13526442.720 6 -10225894.173 6
  15981103.344   -40879570.369 7 -31643601.505 8
  17105422.086   -22490668.667 6 -17433961.266 7
 95  2 19 20 56 59.9840000  0  8 28 18 16 29 31  2 19 27
  19190817.922   -18899136.689 5  -4791178.180 5
  16040209.344   -42249954.086 7 -28616501.753 8
  19562718.070    -5105952.930 5  -2178953.812 5
  18039194.414   -15492535.357 5 -11999840.599 5
  17002660.422   -24885789.009 6 -19290925.474 7
  18183988.727   -13637890.755 6 -10312736.749 6
  15972147.547   -40926640.181 7 -31680279.277 8
  17085934.828   -22593078.148 6 -17513760.830 7
 95  2 19 20 57 29.9840000  0  8 28 18 16 29 31  2 19 27
  19194450.664   -18880055.866 5  -4776310.058 6
  16042432.586   -42238274.212 7 -28607400.578 8
  19548750.617    -5179367.889 5  -2236160.244 4
  18048666.766   -15442783.084 5 -11961072.667 5
  16995120.625   -24925417.027 6 -19321804.450 7
  18162830.188   -13749091.462 6 -10399386.604 6
  15963224.281   -40973515.372 7 -31716805.397 8
  17066472.149   -22695348.911 7 -17593452.282 7
 95  2 19 20 57 59.9840000  0  8 28 18 16 29 31  2 19 27
  19198175.094   -18860503.757 5  -4761074.710 5
  16044748.852   -42226109.239 7 -28597921.401 8
  19534871.766    -5252270.281 4  -2292967.265 4
  18058181.852   -15392764.052 5 -11922096.867 5
  16987693.977   -24964441.736 6 -19352213.309 7
  18141721.867   -13860016.418 6 -10485821.555 6
  15954347.141   -41020173.836 7 -31753162.639 8
  17047039.516   -22797460.766 6 -17673019.934 7
 95  2 19 20 58 29.9840000  0  8 28 18 16 29 31  2 19 27
  19201978.367   -18840515.032 5  -4745499.118 5
  16047150.938   -42213481.020 7 -28588081.252 8
  19521086.899    -5324692.890 4  -2349400.433 3
  18067751.609   -15342487.435 6 -11882920.358 5
  16980377.375   -25002882.780 6 -19382167.366 7
  18120660.977   -13970690.723 6 -10572061.220 6
  15945502.485   -41066646.848 7 -31789375.371 8
  17027631.844   -22899451.803 6 -17752493.428 7
 95  2 19 20 58 59.9840000  0  8 28 18 16 29 31  2 19 27
  19205867.227   -18820078.604 5  -4729574.668 5
  16049643.594   -42200372.078 7 -28577866.517 8
  19507402.805    -5396619.364 5  -2405446.978 2
  18077374.945   -15291929.664 5 -11843524.778 5
  16973174.195   -25040725.744 6 -19411655.387 7
  18099650.617   -14081106.539 6 -10658099.463 6
  15936699.703   -41112924.657 7 -31825436.002 8
  17008248.672   -23001307.801 6 -17831861.691 7
 95  2 19 20 59 29.9840000  0  8 28 18 16 29 31  2 19 27
  19209839.852   -18799193.188 5  -4713300.370 5
  16052233.524   -42186768.991 7 -28567266.728 8
  19493808.211    -5468045.939 4  -2461104.009 2
  18087050.961   -15241077.289 6 -11803899.626 6
  16966092.180   -25077951.540 6 -19440662.498 7
  18078684.024   -14191261.846 6 -10743934.714 6
  15927930.516   -41159003.278 7 -31861341.411 8
  16988888.109   -23103053.062 6 -17911143.680 7
 95  2 19 20 59 59.9840000  0  8 28 18 16 29 31  2 19 27
  19213896.109   -18777868.143 5  -4696683.475 4
  16054919.047   -42172660.790 7 -28556273.349 8
  19480316.844    -5538975.690 4  -2516373.931 3
  18096784.539   -15189928.786 6 -11764043.739 5
  16959127.469   -25114554.195 6 -19469184.043 7
  18057777.727   -14301155.240 6 -10829565.853 6
  15919197.953   -41204889.131 7 -31897096.619 8
  16969543.961   -23204709.285 6 -17990356.274 7
 95  2 19 21  0 29.9840000  0  8 28 18 16 29 31  2 19 27
  19218044.274   -18756102.061 5  -4679722.904 5
  16057699.867   -42158049.988 7 -28544888.332 8
  19466907.328    -5609392.750 3  -2571244.327 2
  18106571.109   -15138483.602 5 -11723956.663 5
  16952278.914   -25150542.500 6 -19497226.876 7
  18036910.781   -14410797.590 6 -10915001.393 6
  15910502.899   -41250583.550 7 -31932702.644 8
  16950212.234   -23306287.547 6 -18069508.140 7
 95  2 19 21  0 59.9840000  0  8 28 18 16 29 31  2 19 27
  19222260.328   -18733906.708 5  -4662427.855 5
  16060569.516   -42142964.325 7 -28533133.298 8
  19453612.570    -5679294.535 3  -2625713.164 4
  18116416.016   -15086758.870 5 -11683651.757 5
  16945544.602   -25185936.931 6 -19524806.949 7
  18016089.570   -14520194.383 6 -11000245.592 6
  15901842.984   -41296086.427 7 -31968159.433 8
  16930897.938   -23407788.429 6 -18148599.706 7
 95  2 19 21  1 29.9840000  0  8 28 18 16 29 31  2 19 27
  19226570.797   -18711276.977 4  -4644794.313 4
  16063529.617   -42127404.777 7 -28521008.996 8
  19440413.078    -5748659.293 4  -2679763.577 3
  18126316.758   -15034741.764 6 -11643119.033 5
  16938923.024   -25220732.000 6 -19551919.990 7
  17995326.008   -14629328.920 6 -11085285.439 6
  15893221.258   -41341389.403 7 -32003460.451 8
  16911599.320   -23509203.750 6 -18227624.600 7
 95  2 19 21  1 59.9840000  0  8 28 18 16 29 31  2 19 27
  19230962.438   -18688219.173 3  -4626827.192 3
  16066579.453   -42111392.079 7 -28508531.592 8
  19427321.094    -5817480.089 4  -2733390.157 2
  18136262.508   -14982453.943 5 -11602375.358 5
  16932416.484   -25254931.392 6 -19578568.869 7
  17974604.977   -14738212.979 6 -11170130.086 6
  15884638.758   -41386495.861 7 -32038608.320 8
  16892321.031   -23610515.791 6 -18306569.009 7
 95  2 19 21  2 29.9840000  0  8 28 18 16 29 31  2 19 27
  19235425.149   -18664733.685 3  -4608526.819 2
  16069707.258   -42094949.191 7 -28495718.977 8
  19414318.711    -5885759.572 4  -2786594.871 4
  18146263.359   -14929911.584 5 -11561433.332 5
  16926020.727   -25288524.199 6 -19604745.083 7
  17953934.524   -14846842.845 6 -11254776.664 6
  15876094.289   -41431403.764 7 -32073601.503 8
  16873061.789   -23711713.435 6 -18385424.278 7
 95  2 19 21  2 59.9840000  0  8 28 18 16 29 31  2 19 27
  19239976.852   -18640809.870 2  -4589884.904 2
  16072922.164   -42078054.651 7 -28482554.424 8
  19401431.703    -5953495.842 4  -2839376.346 3
  18156309.602   -14877111.079 5 -11520290.174 5
  16919752.477   -25321480.646 6 -19630425.431 7
  17933316.086   -14955191.245 6 -11339203.947 6
  15867586.508   -41476097.814 7 -32108428.036 8
  16853834.078   -23812770.212 6 -18464169.781 7
 95  2 19 21  3 29.9840000  0  8 28 18 16 29 31  2 19 27
  19244614.734   -18616446.627 3  -4570900.624 1
  16076225.336   -42060694.891 7 -28469027.360 8
  19388642.016    -6020701.078 5  -2891744.014 2
  18166405.781   -14824064.575 5 -11478955.327 5
  16913603.469   -25353790.115 6 -19655601.639 7
  17912748.141   -15063271.279 6 -11423422.090 6
  15859121.734   -41520588.023 7 -32143095.726 8
  16834628.344   -23913687.799 6 -18542806.833 7
 95  2 19 21  3 59.9840000  0  8 28 18 16 29 31  2 19 27
  19249326.024   -18591674.966 3
  16079610.406   -42042902.051 7 -28455162.838 8
  19375946.242    -6087424.703 4  -2943736.381 5
  18176539.719   -14770817.170 5 -11437463.926 5
  16907575.055   -25385474.692 6 -19680290.917 7
  17892225.656   -15171113.554 6 -11507454.980 6
  15850692.172   -41564889.844 7 -32177616.628 8
  16815446.094   -24014494.828 6 -18621357.722 7
 95  2 19 21  4 29.9840000  0  8 28 18 16 29 31  2 19 27
  19254128.953   -18566466.503 3
  16083088.500   -42024632.144 7 -28440926.559 8
  19363341.664    -6153648.930 4  -2995339.628 3
  18186712.109   -14717337.953 5 -11395791.890 5
  16901666.211   -25416515.340 6 -19704478.427 7
  17871761.406   -15278675.359 6 -11591269.310 6
  15842305.781   -41608961.092 7 -32211957.851 8
  16796287.852   -24115169.945 6 -18699805.830 7
 95  2 19 21  4 59.9840000  0  8 28 18 16 29 31  2 19 27
  19259004.102   -18540836.324 3        -0.16011
  16086657.328   -42005885.277 7 -28426318.637 8
  19350833.734    -6219386.237 4  -3046563.477 2
  18196934.492   -14663629.263 5 -11353941.063 5
  16895875.524   -25446936.768 6 -19728183.444 7
  17851338.156   -15385981.837 6 -11674884.680 6
  15833962.195   -41652812.372 7 -32246127.669 8
  16777151.195   -24215736.334 6 -18778169.204 7
 95  2 19 21  5 29.9840000  0  8 28 18 16 29 31  2 19 27
  19263966.570   -18514774.759 3     20307.482 2
  16090315.922   -41986658.015 7 -28411336.379 8
  19338423.031    -6284623.566 4  -3097397.696 2
  18207202.672   -14609670.649 5 -11311895.467 5
  16890205.492   -25476734.639 6 -19751402.567 7
  17830968.578   -15493024.681 6 -11758294.653 6
  15825661.375   -41696435.874 7 -32280119.999 8
  16758033.703   -24316189.533 7 -18856444.385 7
 95  2 19 21  5 59.9840000  0  8 28 18 16 29 31  2 19 27
  19269007.703   -18488272.555 3     40958.528 1
  16094065.594   -41966943.404 7 -28395974.363 8
  19326103.203    -6349340.675 3  -3147826.555 2
  18217524.516   -14555433.992 5 -11269633.226 5
  16884653.656   -25505903.548 6 -19774131.574 7
  17810655.203   -15599775.785 6 -11841477.264 6
  15817407.969   -41739810.944 7 -32313918.742 8
  16738944.031   -24416516.596 6 -18934621.266 7
 95  2 19 21  6 29.9830000  0  8 28 18 16 29 31  2 19 27
  19274129.683   -18461343.029 3     61942.519 1
  16097907.167   -41946744.948 7 -28380235.332 8
  19313891.753    -6413531.680 3  -3197845.450 3
  18227897.058   -14500912.664 5 -11227149.175 5
  16879223.769   -25534461.065 6 -19796384.187 7
  17790390.808   -15706254.660 6 -11924447.757 6
  15809192.370   -41782966.454 7 -32347546.402 8
  16719873.323   -24516724.773 7 -19012705.519 8
 95  2 19 21  6 59.9830000  0  8 28 18 16 29 31  2 19 27
  19279335.448   -18433995.183 4     83252.512 2
  16101843.019   -41926076.713 7 -28364130.237 8
  19301768.347    -6477208.783 3  -3247463.937 3
  18238327.058   -14446104.451 5 -11184441.562 5
  16873902.792   -25562413.556 6 -19818165.337 7
  17770179.073   -15812482.279 6 -12007222.479 6
  15801017.081   -41825929.714 7 -32381024.256 8
  16700827.401   -24616812.401 7 -19090695.835 8
 95  2 19 21  7 29.9830000  0  8 28 18 16 29 31  2 19 27
  19284618.503   -18406237.866 5    104881.563 1
  16105861.370   -41904950.693 7 -28347668.417 8
  19289749.159    -6540386.783 3  -3296693.473 3
  18248808.605   -14391021.642 5 -11141519.978 5
  16868697.776   -25589769.496 6 -19839481.638 7
  17750018.722   -15918436.977 6 -12089784.527 6
  15792879.042   -41868698.371 7 -32414350.467 8
  16681809.948   -24716763.741 7 -19168579.958 8
 95  2 19 21  7 59.9830000  0  8 28 18 16 29 31  2 19 27
  19289978.112   -18378064.298 4    126834.938 2
  16109972.987   -41883353.846 7 -28330839.722 8
  19277828.800    -6603053.869 4  -3345524.913 3
  18259346.691   -14335660.386 5 -11098381.433 5
  16863604.839   -25616527.393 6 -19860331.939 7
  17729905.425   -16024111.751 6 -12172128.440 6
  15784779.120   -41911254.323 7 -32447510.939 8
  16662818.972   -24816560.299 7 -19246343.461 8
 95  2 19 21  8 29.9830000  0  8 28 18 16 29 31  2 19 27
  19295417.519   -18349476.127 5    149111.363 2
  16114170.995   -41861279.808 7 -28313639.197 8
  19265994.808    -6665202.247 4  -3393952.198 2
  18269931.339   -14280036.945 5 -11055038.583 5
  16858628.206   -25642679.950 6 -19880710.543 7
  17709850.823   -16129508.042 6 -12254255.360 6
  15776725.066   -41953589.779 7 -32480499.597 8
  16643857.628   -24916198.247 7 -19323983.379 8
 95  2 19 21  8 59.9830000  0  8 28 18 16 29 31  2 19 27
  19300934.198   -18320466.581 4    171716.175 2
  16118462.784   -41838734.821 7 -28296071.696 8
  19254277.159    -6726819.719 4  -3441965.751 3
  18280565.011   -14224169.638 5 -11011505.699 5
  16853766.839   -25668211.746 6 -19900605.437 7
  17689851.636   -16234597.257 6 -12336143.002 6
  15768714.941   -41995683.685 7 -32513300.029 8
  16624930.730   -25015671.609 7 -19401495.046 8
 95  2 19 21  9 29.9830000  0  8 28 18 16 29 31  2 19 27
  19306540.323   -18291040.197 4    194645.783 1
  16122839.698   -41815732.893 7 -28278148.137 8
  19242650.566    -6787886.930 4  -3489550.511 4
  18291238.503   -14168066.372 5 -10967788.964 5
  16849028.284   -25693118.148 6 -19920013.012 7
  17669909.191   -16339391.189 6 -12417800.569 6
  15760751.761   -42037533.321 7 -32545910.134 8
  16606024.816   -25115011.003 7 -19478902.326 8
 95  2 19 21  9 59.9830000  0  8 28 18 16 29 31  2 19 27
  19312219.050   -18261209.552 3    217890.380 2
  16127301.237   -41792286.953 7 -28259878.597 8
  19231144.019    -6848390.623 5  -3536696.238 2
  18301956.870   -14111729.674 5 -10923890.314 5
  16844409.441   -25717395.193 6 -19938930.180 7
  17650019.847   -16443931.202 6 -12499260.267 6
  15752831.058   -42079158.541 7 -32578345.359 8
  16587141.628   -25214243.075 7 -19556225.981 8
 95  2 19 21 10 29.9830000  0  8 28 18 16 29 31  2 19 27
  19317974.316   -18230973.967 5    241450.553 3
  16131843.933   -41768409.981 7 -28241273.185 8
  19219732.683    -6908331.423 4  -3583403.310 3
  18312719.323   -14055160.901 5 -10879810.856 5
  16839911.511   -25741033.190 6 -19957349.383 7
  17630169.284   -16548222.493 6 -12580526.128 6
  15744948.667   -42120567.191 7 -32610611.829 8
  16568278.480   -25313376.126 7 -19633472.472 8
 95  2 19 21 10 59.9830000  0  8 28 18 16 29 31  2 19 27
  19323805.284   -18200334.639 5    265325.328 4
  16136467.542   -41744112.644 7 -28222340.220 8
  19208429.370    -6967724.433 4  -3629683.525 4
  18323530.144   -13998357.439 5 -10835548.505 5
  16835535.589   -25764037.329 6 -19975274.669 7
  17610370.058   -16652273.800 6 -12661605.017 6
  15737108.597   -42161767.452 7 -32642715.909 8
  16549431.175   -25412406.616 7 -19710639.052 8
 95  2 19 21 11 29.9830000  0  8 28 18 16 29 31  2 19 27
  19329707.847   -18169296.875 5    289510.583 5
  16141176.362   -41719369.720 7 -28203060.044 8
  19197228.198    -7026587.938 4  -3675551.171 2
  18334390.394   -13941305.697 5 -10791092.695 5
  16831276.698   -25786422.390 6 -19992717.553 7
  17590618.120   -16756090.022 6 -12742500.713 6
  15729309.269   -42202752.007 7 -32674651.922 8
  16530605.316   -25511326.295 7 -19787719.280 8
 95  2 19 21 11 59.9830000  0  8 28 18 16 29 31  2 19 27
  19335691.769   -18137859.091 5    314007.491 4
  16145973.417   -41694163.667 7 -28183418.991 8
  19186126.870    -7084938.294 3  -3721018.972 2
  18345286.292   -13884013.721 5 -10746449.694 5
  16827130.472   -25808198.843 6 -20009686.207 7
  17570906.855   -16859649.783 6 -12823196.582 6
  15721555.933   -42243508.115 7 -32706409.911 8
  16511809.941   -25610112.268 7 -19864695.321 8
 95  2 19 21 12 29.9830000  0  8 28 18 16 29 31  2 19 27
  19341740.902   -18106039.108 4    338802.256 5
  16150858.159   -41668506.251 7 -28163426.224 8
  19175114.566    -7142813.382 3  -3766116.372 2
  18356228.339   -13826524.954 5 -10701653.346 5
  16823097.003   -25829392.433 6 -20026200.685 7
  17551251.612   -16962943.066 6 -12903684.797 6
  15713841.011   -42284041.619 7 -32737994.450 8
  16493038.206   -25708765.968 7 -19941568.298 8
 95  2 19 21 12 59.9830000  0  8 28 18 16 29 31  2 19 27
  19347876.011   -18073825.062 5    363904.116 5
  16155830.526   -41642372.679 7 -28143062.426 8
  19164195.886    -7200191.646 3  -3810826.706 1
  18367215.651   -13768823.201 5 -10656691.043 5
  16819177.261   -25849992.083 6 -20042252.350 7
  17531653.081   -17065934.211 6 -12983937.577 6
  15706174.081   -42324332.726 7 -32769390.104 8
  16474290.737   -25807271.670 7 -20018325.955 8
 95  2 19 21 13 29.9830000  0  8 28 18 16 29 31  2 19 27
  19354080.776   -18041225.371 5    389306.428 4
  16160890.542   -41615781.118 7 -28122341.768 8
  19153370.839    -7257071.940 4  -3855149.014 1
  18378234.456   -13710909.605 5 -10611563.697 4
  16815372.198   -25869998.427 6 -20057841.698 7
  17512115.581   -17168622.041 6 -13063954.013 6
  15698551.378   -42364391.295 7 -32800604.556 8
  16455568.737   -25905648.255 7 -20094982.995 8
 95  2 19 21 13 59.9830000  0  8 28 18 16 29 31  2 19 27
  19360349.698   -18008238.964 4    415010.107 4
  16166030.776   -41588765.854 7 -28101290.938 8
  19142648.847    -7313435.271 5  -3899068.513 2
  18389286.401   -13652796.473 5 -10566280.815 5
  16811680.730   -25889391.520 6 -20072953.192 7
  17492627.378   -17271016.398 6 -13143741.780 6
  15690969.214   -42404225.182 7 -32831643.931 8
  16436878.230   -26003887.769 7 -20171533.234 8
 95  2 19 21 14 29.9830000  0  8 28 18 16 29 31  2 19 27
  19366709.011   -17974863.988 3    441016.549 5
  16171250.050   -41561330.050 7 -28079912.419 8
  19132020.933    -7369267.703 4  -3942574.260 3
  18400388.026   -13594469.525 5 -10520831.348 5
  16808108.628   -25908156.278 6 -20087575.066 7
  17473198.245   -17373117.449 6 -13223300.962 6
  15683437.237   -42443836.312 7 -32862509.727 8
  16418210.370   -26101983.762 7 -20247971.625 8
 95  2 19 21 14 59.9830000  0  8 28 18 16 29 31  2 19 27
  19373127.870   -17941092.668 2    467331.898 4
  16176553.823   -41533471.165 7 -28058204.226 8
  19121500.276    -7424539.080 4  -3985642.830 1
  18411534.191   -13535899.811 5 -10475192.698 4
  16804657.878   -25926278.880 6 -20101696.556 7
  17453824.191   -17474925.546 6 -13302631.904 6
  15675939.566   -42483220.431 7 -32893198.638 8
  16399571.878   -26199933.200 7 -20324295.823 8
 95  2 19 21 15 29.9830000  0  8 28 18 16 29 31  2 19 27
  19379621.753   -17906944.532 1    493940.820 4
  16181931.628   -41505203.793 7 -28036177.732 8
  19111089.933    -7479271.813 3  -4028291.739 3
  18422729.886   -13477108.642 5 -10429381.503 5
  16801328.698   -25943777.905 6 -20115332.149 7
  17434500.964   -17576479.675 6 -13381764.930 6
  15668485.956   -42522396.665 7 -32923725.556 8
  16380957.144   -26297744.782 7 -20400512.610 8
 95  2 19 21 15 59.9830000  0  8 28 18 16 29 31  2 19 27
  19386203.870   -17872420.235 3    520842.860 5
  16187394.683   -41476508.417 7 -28013817.732 8
  19100777.409    -7533469.335 4  -4070523.536 3
  18433951.519   -13418096.736 5 -10383398.302 5
  16798117.495   -25960666.794 6 -20128492.306 7
  17415220.870   -17677776.268 6 -13460697.295 6
  15661070.378   -42561354.365 7 -32954082.194 8
  16362371.933   -26395405.053 7 -20476611.480 8
 95  2 19 21 16 29.9830000  0  8 28 18 16 29 31  2 19 27
  19392847.644   -17837526.257 3    548032.953 5
  16192934.495   -41447381.920 7 -27991121.784 8
  19090553.151    -7587149.554 3  -4112352.261 2
  18445224.112   -13358859.212 5 -10337239.291 4
  16795016.019   -25976960.908 6 -20141189.010 7
  17395997.737   -17778809.066 6 -13539424.110 6
  15653697.097   -42600098.582 7 -32984272.478 8
  16343813.245   -26492935.731 7 -20552609.375 8
 95  2 19 21 16 59.9830000  0  8 28 18 16 29 31  2 19 27
  19399547.175   -17802257.154 3    575515.332 2
  16198560.386   -41417820.909 7 -27968087.273 8
  19080436.745    -7640317.024 3  -4153781.399 2
  18456538.120   -13299399.024 5 -10290906.777 4
  16792028.058   -25992663.676 6 -20153424.922 7
  17376822.870   -17879579.820 6 -13617946.714 6
  15646367.441   -42638617.791 7 -33014287.430 8
  16325278.612   -26590329.919 7 -20628500.912 8
 95  2 19 21 17 29.9830000  0  8 28 18 16 29 31  2 19 27
  19406330.909   -17766605.954 3    603295.487 2
  16204270.550   -41387814.430 7 -27944705.637 8
  19070421.120    -7692982.081 3  -4194819.105 4
  18467895.612   -13239716.637 5 -10244401.113 4
  16789154.284   -26007768.154 6 -20165194.634 7
  17357699.933   -17980073.602 6 -13696253.519 6
  15639083.589   -42676893.059 7 -33044112.303 8
  16306776.105   -26687564.061 7 -20704267.734 8
 95  2 19 21 17 59.9830000  0  8 28 18 16 29 31  2 19 27
  19413187.816   -17730582.263 3    631365.832 1
  16210060.300   -41357385.050 7 -27920994.465 8
  19060490.667    -7745145.735 4  -4235466.096 2
  18479299.667   -13179825.296 5 -10197732.633 3
  16786391.042   -26022276.577 6 -20176499.882 7
  17338628.691   -18080289.053 6 -13774343.437 7
  15631849.816   -42714916.754 7 -33073741.149 8
  16288303.941   -26784642.280 7 -20779913.061 8
 95  2 19 21 18 29.9830000  0  8 28 18 16 29 31  2 19 27
  19420114.612   -17694191.980 3    659721.855 1
  16215932.331   -41326536.045 7 -27896956.312 8
  19050662.339    -7796803.161 4  -4275718.601 1
  18490729.651   -13119738.644 5 -10150911.980 4
  16783749.386   -26036182.871 6 -20187335.943 7
  17319608.519   -18180240.511 6 -13852227.637 6
  15624657.776   -42752697.568 7 -33103180.735 8
  16269856.972   -26881573.834 7 -20855444.094 8
 95  2 19 21 18 59.9830000  0  8 28 18 16 29 31  2 19 27
  19427109.105   -17657430.740 3
  16221884.081   -41295254.900 7 -27872581.435 8
  19040927.386    -7847942.151 4  -4315567.179 1
  18502199.300   -13059457.504 5 -10103939.768 4
  16781215.995   -26049483.091 6 -20197699.739 7
  17300637.503   -18279927.861 6 -13929906.050 7
  15617516.722   -42790229.861 7 -33132426.667 8
  16251442.066   -26978343.910 7 -20930849.307 8
 95  2 19 21 19 29.9830000  0  8 28 18 16 29 31  2 19 27
  19434174.362   -17620311.201 4        -0.26011
  16227917.675   -41263549.080 7 -27847875.638 8
  19031298.495    -7898570.546 3  -4355017.857 1
  18513707.878   -12998986.497 5 -10056819.612 4
  16778796.042   -26062187.331 6 -20207599.137 7
  17281717.206   -18379355.830 6 -14007382.340 6
  15610419.941   -42827525.726 7 -33161488.369 8
  16233053.550   -27074968.698 7 -21006141.313 8
 95  2 19 21 19 59.9830000  0  8 28 18 16 29 31  2 19 27
  19441304.151   -17582826.967 3     29208.180 1
  16234033.394   -41231410.128 7 -27822832.336 8
  19021764.245    -7948671.405 5  -4394057.505 2
  18525252.941   -12938325.673 5 -10009551.524 4
  16776498.058   -26074290.895 6 -20217030.485 7
  17262845.706   -18478523.500 6 -14084655.815 7
  15603366.097   -42864582.963 7 -33190364.133 8
  16214695.237   -27171456.794 7 -21081326.806 8
 95  2 19 21 20 29.9830000  0  8 28 18 16 29 31  2 19 27
  19448512.206   -17544978.735 4     58700.333 2
  16240234.019   -41198828.808 7 -27797444.332 8
  19012321.300    -7998246.295 3  -4432687.228 1
  18536831.987   -12877473.669 5  -9962134.485 4
  16774304.300   -26085796.925 6 -20225996.207 7
  17244026.847   -18577420.162 6 -14161718.100 6
  15596359.230   -42901416.931 7 -33219065.916 8
  16196361.620   -27267808.057 7 -21156405.675 8
 95  2 19 21 20 59.9830000  0  8 28 18 16 29 31  2 19 27
  19455782.730   -17506777.947 4     88467.157 1
  16246514.737   -41165821.226 7 -27771724.180 8
  19002991.198    -8047304.111 3  -4470914.089 3
  18548446.362   -12816429.201 4  -9914567.494 4
  16772230.042   -26096715.504 6 -20234504.197 7
  17225260.847   -18676043.782 6 -14238567.627 7
  15589392.230   -42938024.082 7 -33247590.960 8
  16178052.464   -27364012.598 7 -21231370.206 8
 95  2 19 21 21 29.9830000  0  8 28 18 16 29 31  2 19 27
  19463113.011   -17468228.005 3    118506.060 1
  16252874.558   -41132396.485 7 -27745678.957 7
  18993760.980    -8095845.066 3  -4508738.162 2
  18560102.698   -12755188.948 5  -9866847.927 4
  16770264.323   -26107035.240 6 -20242545.534 7
  17206543.675   -18774391.305 6 -14315202.013 7
  15582471.886   -42974386.498 7 -33275925.299 8
  16159776.878   -27460055.229 7 -21306208.583 8
 95  2 19 21 21 59.9830000  0  8 28 18 16 29 31  2 19 27
  19470516.089   -17429323.663 3    148821.152 2
  16259315.620   -41098555.986 7 -27719309.771 7
  18984616.761    -8143859.424 3  -4546151.957 2
  18571791.136   -12693748.613 5  -9818972.458 5
  16768417.784   -26116740.436 6 -20250108.018 7
  17187885.058   -18872452.104 6 -14391612.962 7
  15575603.761   -43010490.400 7 -33304058.201 8
  16141535.620   -27555909.150 7 -21380899.905 8
 95  2 19 21 22 29.9830000  0  8 28 18 16 29 31  2 19 27
  19477988.269   -17390068.180 3    179409.789 4
  16265831.612   -41064309.659 7 -27692624.346 7
  18975582.480    -8191351.762 4  -4583158.916 4
  18583524.050   -12632091.189 5  -9770927.816 4
  16766682.862   -26125838.894 6 -20257197.724 7
  17169278.558   -18970220.714 6 -14467796.252 6
  15568782.972   -43046329.478 7 -33331984.751 8
  16123332.683   -27651570.250 7 -21455440.986 8
 95  2 19 21 22 59.9830000  0  8 28 18 16 29 31  2 19 27
  19485523.175   -17350475.482 3    210261.228 1
  16272418.855   -41029680.716 7 -27665640.795 7
  18966637.081    -8238349.019 5  -4619780.130 2
  18595295.581   -12570236.288 5  -9722729.295 5
  16765070.425   -26134337.320 6 -20263819.863 7
  17150724.097   -19067718.919 6 -14543768.817 7
  15562013.151   -43081903.360 7 -33359704.655 8
  16105163.339   -27747045.001 7 -21529836.858 8
 95  2 19 21 23 29.9830000  0  8 28 18 16 29 31  2 19 27
  19493128.878   -17310550.864 3    241371.320 4
  16279083.112   -40994669.555 7 -27638359.398 7
  18957789.753    -8284860.704 4  -4656022.977 2
  18607097.644   -12508219.875 5  -9674404.929 3
  16763565.167   -26142246.113 6 -20269982.560 7
  17132220.581   -19164953.707 6 -14619536.127 7
  15555292.519   -43117228.953 7 -33387231.078 8
  16087024.198   -27842355.480 7 -21604104.729 8
 95  2 19 21 23 59.9830000  0  8 28 18 16 29 31  2 19 27
  19500781.456   -17270289.744 3    272743.585 2
  16285820.269   -40959262.567 7 -27610769.579 7
  18949032.909    -8330876.991 4  -4691879.817 2
  18618933.136   -12446046.664 5  -9625958.374 4
  16762168.862   -26149576.847 6 -20275694.810 7
  17113774.167   -19261914.142 6 -14695089.666 7
  15548612.331   -43152327.068 7 -33414580.254 8
  16068918.261   -27937518.900 7 -21678258.008 8
 95  2 19 21 24 29.9830000  0  8 28 18 16 29 31  2 19 27
  19508498.667   -17229703.736 3    304369.025 3
  16292633.245   -40923464.288 6 -27582874.850 7
  18940370.339    -8376394.662 3  -4727348.070 2
  18630782.620   -12383732.078 5  -9577401.666 4
  16760883.784   -26156345.964 6 -20280969.426 7
  17095370.214   -19358617.412 6 -14770442.799 7
  15541968.300   -43187228.281 7 -33441775.994 8
  16050832.097   -28032556.224 7 -21752313.024 8
 95  2 19 21 24 59.9820000  0  8 28 18 16 29 31  2 19 27
  19516294.959   -17188786.485 3    336252.592 3
  16299523.897   -40887262.799 7 -27554665.933 7
  18931806.967    -8421396.467 3  -4762414.417 2
  18642669.279   -12321283.204 5  -9528740.323 4
  16759701.920   -26162536.953 6 -20285793.555 7
  17077019.100   -19455053.573 6 -14845587.812 7
  15535368.420   -43221932.885 7 -33468818.534 9
  16032774.959   -28127445.143 7 -21826252.410 8
 95  2 19 21 25 29.9820000  0  8 28 18 16 29 31  2 19 27
  19524145.029   -17147541.275 3    368391.668 2
  16306488.178   -40850650.578 6 -27526136.963 7
  18923339.420    -8465877.587 3  -4797075.022 2
  18654587.295   -12258682.522 5  -9479960.660 3
  16758628.053   -26168175.350 6 -20290187.098 7
  17058718.928   -19551229.325 6 -14920529.893 7
  15528796.209   -43256460.875 7 -33495723.448 8
  16014744.389   -28222205.430 7 -21900091.560 8
 95  2 19 21 25 59.9820000  0  7 18 16 29 31  2 19 27
  16313531.490   -40813648.483 6 -27497304.199 7
  18914980.061    -8509841.032 4  -4831332.229 3
  18666531.811   -12195901.793 5  -9431040.704 4
  16757662.662   -26173251.115 6 -20294142.231 7
  17040463.443   -19647148.914 6 -14995272.385 7
  15522263.029   -43290801.966 7 -33522482.725 8
  15996739.170   -28316824.535 7 -21973820.696 8
 95  2 19 21 26 29.9820000  0  7 18 16 29 31  2 19 27
  16320645.381   -40776261.358 6 -27468171.402 7
  18906707.068    -8553295.416 3  -4865192.737 2
  18678513.092   -12132939.375 5  -9381979.203 3
  16756806.506   -26177745.186 6 -20297644.077 7
  17022259.412   -19742808.145 6 -15069811.992 7
  15515767.561   -43324929.135 7 -33549075.313 8
  15978765.514   -28411283.337 7 -22047424.930 8
 95  2 19 21 26 59.9820000  0  7 18 16 29 31  2 19 27
  16327833.068   -40738499.277 7 -27438746.444 7
  18898531.522    -8596270.445 4  -4898679.756 2
  18690527.920   -12069804.114 5  -9332782.968 1
  16756065.818   -26181661.218 6 -20300695.529 7
  17004109.045   -19838203.970 6 -15144146.358 7
  15509316.834   -43358821.823 7 -33575485.203 8
  15960815.873   -28505588.951 7 -22120909.784 8
 95  2 19 21 27 29.9820000  0  7 18 16 29 31  2 19 27
  16335090.358   -40700362.830 6 -27409029.772 7
  18890442.717    -8638771.975 4  -4931797.806 5
  18702573.459   -12006500.980 5  -9283455.973 2
  16755425.858   -26184992.866 6 -20303291.605 7
  16986009.006   -19933335.063 6 -15218274.415 7
  15502911.733   -43392469.985 7 -33601704.537 9
  15942897.850   -28599746.658 7 -22194279.385 9
 95  2 19 21 27 59.9820000  0  7 18 16 29 31  2 19 27
  16342413.748   -40661864.475 6 -27379031.089 7
  18882442.709    -8680801.671 4  -4964548.170 3
  18714649.178   -11943055.661 4  -9234018.165 3
  16754908.162   -26187724.342 6 -20305420.013 7
  16967947.787   -20028206.115 6 -15292199.872 7
  15496562.529   -43425857.447 7 -33627720.727 8
  15925011.904   -28693761.017 7 -22267537.284 9
 95  2 19 21 28 29.9820000  0  7 18 16 29 31  2 19 27
  16349821.311   -40622949.756 6 -27348707.969 7
  18874546.428    -8722314.000 3  -4996895.451 2
  18726746.600   -11879450.867 4  -9184456.114 3
  16754505.717   -26189837.943 6 -20307066.968 7
  16949956.459   -20122775.871 6 -15365890.549 7
  15490261.787   -43458953.043 7 -33653509.490 8
  15907153.428   -28787590.788 7 -22340651.348 9
 95  2 19 21 28 59.9820000  0  7 18 16 29 31  2 19 27
  16357301.475   -40583619.632 6 -27318061.147 7
  18866743.561    -8763316.843 4  -5028845.700 3
  18738882.600   -11815689.794 4  -9134772.248 2
  16754220.983   -26191355.383 6 -20308249.378 7
  16932011.131   -20217069.152 6 -15439365.780 7
  15484015.147   -43491775.772 7 -33679085.638 8
  15889336.014   -28881233.095 7 -22413619.344 9
 95  2 19 21 29 29.9820000  0  7 18 16 29 31  2 19 27
  16364863.022   -40543889.442 6 -27287102.596 7
  18859036.178    -8803810.846 4  -5060399.408 2
  18751042.990   -11751793.369 4  -9084982.929 1
  16754035.373   -26192306.510 6 -20308990.519 7
  16914115.287   -20311112.091 6 -15512645.947 7
  15477818.076   -43524356.704 7 -33704473.371 8
  15871549.240   -28974693.105 7 -22486445.286 9
 95  2 19 21 29 59.9820000  0  7 18 16 29 31  2 19 27
  16372503.201   -40503746.701 6 -27255822.581 7
  18851429.795    -8843773.482 5  -5091539.134 2
  18763229.037   -11687751.920 4  -9035080.602 3
  16753962.334   -26192687.655 6
  16896271.576   -20404894.462 6 -15585723.067 7
  15471667.193   -43556677.365 7 -33729658.294 8
  15853801.889   -29067946.690 7 -22559110.372 9
 95  2 19 21 30 29.9820000  0  7 18 16 29 31  2 19 27
  16380216.553   -40463209.816 6 -27224235.428 7
  18843922.311    -8883222.258 4  -5122278.438 2
  18775438.342   -11623569.131 3  -8985068.129 2
  16753993.498   -26192520.535 6
  16878471.475   -20498430.985 6 -15658608.634 7
  15465562.459   -43588763.083 7 -33754660.138 8
  15836097.545   -29160995.958 7 -22631616.253 9
 95  2 19 21 30 59.9820000  0  7 18 16 29 31  2 19 27
  16387996.397   -40422322.915 7 -27192375.552 7
  18836505.194    -8922183.157 4  -5152637.594 3
  18787676.936   -11559263.036 3  -8934959.604 2
  16754131.147   -26191823.542 6 -20308614.170 7
  16860713.170   -20591736.364 6 -15731314.084 7
  15459496.076   -43620626.375 7 -33779488.685 8
  15818425.998   -29253878.099 7 -22703991.909 9
 95  2 19 21 31 29.9820000  0  7 18 16 29 31  2 19 27
  16395840.725   -40381102.555 6 -27160255.825 7
  18829189.303    -8960651.298 4  -5182612.773 4
  18799939.272   -11494833.021 4  -8884754.509 3
  16754362.545   -26190597.020 6 -20307658.429 7
  16843007.029   -20684791.866 6 -15803824.812 7
  15453479.279   -43652258.358 7 -33804136.967 8
  15800774.600   -29346622.874 7 -22776260.530 9
 95  2 19 21 31 59.9820000  0  7 18 16 29 31  2 19 27
  16403747.850   -40339568.328 7 -27127891.538 7
  18821960.514    -8998636.505 4  -5212211.595 2
  18812228.717   -11430266.911 5  -8834443.342 2
  16754692.701   -26188836.536 6 -20306286.617 7
  16825350.154   -20777588.126 6
  15447502.139   -43683654.298 7 -33828601.318 8
  15783148.897   -29439241.931 7
 95  2 19 21 32 29.9820000  0  7 18 16 29 31  2 19 27
  16411710.397   -40297709.809 6 -27095274.549 7
  18814823.873    -9036148.720 3  -5241441.889 2
  18824544.553   -11365541.803 5  -8784008.334 2
  16755134.334   -26186530.600 6 -20304489.780 7
  16807742.865   -20870107.773 6
  15441573.904   -43714816.461 7 -33852883.534 9
  15765549.514   -29531723.552 7
 95  2 19 21 32 59.9820000  0  7 18 16 29 31  2 19 27
  16419738.475   -40255516.785 6 -27062396.917 7
  18807775.858    -9073186.024 3  -5270302.082 2
  18836896.654   -11300661.130 5  -8733452.080 3
  16755680.967   -26183677.932 6 -20302266.921 7
  16790190.014   -20962351.359 6
  15435687.936   -43745744.016 7 -33876982.902 8
  15747978.623   -29624068.699 7
 95  2 19 21 33 29.9820000  0  7 18 16 29 31  2 19 27
  16427840.162   -40212951.388 6 -27029229.111 7
  18800818.490    -9109722.219 3  -5298771.788 2
  18849274.115   -11235602.374 5  -8682757.042 2
  16756335.483   -26180231.255 6 -20299581.192 6
  16772689.764   -21054295.960 6 -16091749.918 7
  15429851.600   -43776415.432 7 -33900882.725 8
  15730443.311   -29716225.609 7 -23064262.536 9
 95  2 19 21 33 59.9820000  0  7 18 16 29 31  2 19 27
  16436006.858   -40170040.163 6 -26995791.826 7
  18793959.787    -9145797.117 5  -5326882.089 2
  18861675.358   -11170415.743 4  -8631962.361 3
  16757097.975   -26176216.153 6 -20296452.530 7
  16755243.975   -21145991.082 6 -16163200.626 7
  15424058.326   -43806864.648 7 -33924609.343 8
  15712940.397   -29808192.364 7 -23135924.921 9
 95  2 19 21 34 29.9820000  0  7 18 16 29 31  2 19 27
  16444246.701   -40126746.846 6 -26962056.817 7
  18787185.342    -9181379.917 5  -5354608.929 1
  18874102.279   -11105109.111 4  -8581074.191 2
  16757979.045   -26171610.188 6 -20292863.452 7
  16737841.654   -21237424.128 6 -16234447.125 7
  15418308.608   -43837066.142 7 -33948142.999 8
  15695480.154   -29899953.590 7 -23207427.135 9
 95  2 19 21 34 59.9820000  0  7 18 16 29 31  2 19 27
  16452551.920   -40083095.428 6 -26928042.772 7
  18780508.584    -9216476.473 4  -5381956.923 2
  18886554.240   -11039712.956 5  -8530116.279 4
  16758960.701   -26166436.767 6 -20288832.223 6
  16720492.147   -21328606.496 6 -16305498.282 7
  15412609.701   -43867022.605 7 -33971485.660 8
  15678050.397   -29991538.209 7 -23278791.753 9
 95  2 19 21 35 29.9820000  0  7 18 16 29 31  2 19 27
  16460923.834   -40039101.044 6 -26893761.479 7
  18773918.147    -9251105.085 4  -5408940.301 4
  18899006.545   -10974242.849 5  -8479100.724 3
  16760049.811   -26160719.450 6 -20284377.148 6
  16703184.514   -21419547.087 6 -16376361.051 7
  15406953.100   -43896736.732 7 -33994639.528 8
  15660654.865   -30082956.612 7 -23350026.849 9
 95  2 19 21 35 59.9820000  0  7 18 16 29 31  2 19 27
  16469367.022   -39994732.336 6 -26859188.504 7
  18767424.459    -9285246.390 4  -5435543.873 4
  18911486.537   -10908672.484 4  -8428007.049 2
  16761241.108   -26154455.310 6 -20279496.010 7
  16685929.568   -21510223.601 6 -16447018.034 7
  15401352.404   -43926175.388 7 -34017578.728 9
  15643290.818   -30174198.439 7 -23421124.347 9
 95  2 19 21 36 29.9820000  0  7 18 16 29 31  2 19 27
  16477874.467   -39950010.286 6 -26824340.196 7
  18761017.959    -9318910.006 4  -5461775.264 4
  18923976.522   -10842992.769 3  -8376828.172 3
  16762530.412   -26147665.228 6 -20274205.041 6
  16668727.850   -21600635.049 6 -16517468.467 7
  15395802.108   -43955355.922 7 -34040316.794 9
  15625954.834   -30265296.721 7 -23492109.993 9
 95  2 19 21 36 59.9820000  0  7 18 16 29 31  2 19 27
  16486452.506   -39904940.092 6 -26789220.603 7
  18754701.592    -9352092.730 4  -5487631.901 1
  18936505.475   -10777170.915 4  -8325538.530 1
  16763926.358   -26140341.393 6 -20268498.147 7
  16651571.608          -0.59616
  15390299.436   -43984272.964 7 -34062849.530 8
  15608654.240   -30356222.499 7 -23562961.219 9
 95  2 19 21 37 29.9820000  0  7 18 16 29 31  2 19 27
  16495096.201   -39859523.822 6 -26753831.334 7
  18748475.873    -9384793.241 4  -5513112.866 4
  18949058.436   -10711203.587 3  -8274135.565 2
  16765424.912   -26132472.492 6 -20262366.540 6
  16634473.592      -89868.246 6        -0.18217
  15384846.451   -44012924.189 7 -34085175.147 9
  15591385.326   -30446960.263 7 -23633665.948 9
 95  2 19 21 37 59.9820000  0  7 18 16 29 31  2 19 27
  16503797.936   -39813785.723 6 -26718191.301 6
  18742344.545    -9417009.572 5  -5538216.472 2
  18961643.654   -10645109.538 3  -8222633.823 1
  16767025.373   -26124056.343 6 -20255808.508 6
  16617420.115     -179476.886 6    -69825.045 7
  15379440.764   -44041330.053 7 -34107309.571 8
  15574156.514   -30537515.315 7 -23704228.299 9
 95  2 19 21 38 29.9820000  0  7 18 16 29 31  2 19 27
  16512560.983   -39767741.515 6 -26682312.738 6
  18736306.850    -9448739.983 5  -5562941.448 3
  18974238.365   -10578905.625 3  -8171046.467 1
  16768732.162   -26115091.767 6 -20248823.140 6
  16600417.264     -268819.905 6   -139442.929 7
  15374079.311   -44069496.805 7 -34129257.677 9
  15556960.967   -30627879.513 7 -23774641.940 9
 95  2 19 21 38 59.9820000  0  7 18 16 29 31  2 19 27
  16521382.154   -39721374.638 6 -26646182.735 6
  18730363.592    -9479980.038 4  -5587284.373 2
  18986855.490   -10512613.439 3  -8119390.381 1
  16770542.108   -26105567.257 6 -20241401.460 6
  16583470.647     -357890.837 6   -208848.804 7
  15368767.826   -44097404.054 7 -34151003.575 8
  15539805.170   -30718011.049 7 -23844874.282 9
 95  2 19 21 39 29.9820000  0  7 18 16 29 31  2 19 27
  16530273.904   -39674666.857 6 -26609787.095 7
  18724516.467    -9510722.269 4  -5611239.368 3
  18999482.803   -10446253.366 3  -8067681.338 1
  16772461.959   -26095477.368 6 -20233539.211 7
  16566571.881     -446691.876 6   -278044.365 7
  15363510.076   -44125042.530 7 -34172540.035 8
  15522698.662   -30807913.186 7 -23914927.874 9
 95  2 19 21 39 59.9820000  0  7 18 16 29 31  2 19 27
  16539225.959   -39627620.172 6 -26573127.380 7
  18718755.451    -9540988.429 4  -5634823.414 2
  19012118.014   -10379848.606 4  -8015937.442 1
  16774484.967   -26084852.407 6 -20225260.036 6
  16549719.061     -535243.244 6   -347045.376 7
  15358296.647   -44152435.541 7 -34193885.230 8
  15505631.014   -30897609.602 7 -23984821.162 9
 95  2 19 21 40 29.9820000  0  7 18 16 29 31  2 19 27
  16548245.178   -39580216.102 6 -26536189.178 7
  18713084.584    -9570788.190 4  -5658044.001 4
  19024763.170   -10313375.424 3  -7964140.291 1
  16776609.092   -26073693.693 6 -20216564.938 7
  16532916.108     -623545.410 7   -415852.196 7
  15353135.873   -44179558.802 7 -34215020.234 8
  15488603.311   -30987095.807 7 -24054550.657 9
 95  2 19 21 40 59.9820000  0  7 18 16 29 31  2 19 27
  16557335.842   -39532451.508 6 -26498970.047 6
  18707505.217    -9600112.806 5  -5680894.337 4
  19037433.022   -10246809.746 4  -7912271.069 1
  16778834.068   -26061995.670 6 -20207449.612 6
  16516160.670     -711602.489 6   -484468.050 7
  15348027.318   -44206403.874 7 -34235938.454 9
  15471610.522   -31076384.121 7 -24124125.942 9
 95  2 19 21 41 29.9820000  0  7 18 16 29 31  2 19 27
  16566486.787   -39484354.160 6 -26461491.636 6
  18702009.428    -9628986.716 5  -5703393.478 3
  19050117.569   -10180144.498 4  -7860324.229 1
  16781156.029   -26049785.948 6 -20197935.547 6
  16499445.022     -799445.910 6   -552917.407 7
  15342966.381   -44233005.315 7 -34256666.845 8
  15454649.037   -31165514.344 7 -24193578.038 9
 95  2 19 21 41 59.9820000  0  7 18 16 29 31  2 19 27
  16575704.498   -39435922.246 6 -26423752.510 7
  18696598.865    -9657407.684 5  -5725539.680 3
  19062838.733   -10113341.705 4  -7808270.215 1
  16783581.045   -26037057.442 6 -20188017.236 6
  16482775.475     -887049.511 6   -621179.912 7
  15337952.154   -44259348.126 7 -34277193.701 8
  15437720.342   -31254478.019 7 -24262900.360 9
 95  2 19 21 42 29.9820000  0  7 18 16 29 31  2 19 27
  16584978.006   -39387185.094 6 -26385775.541 6
  18691275.693    -9685368.239 4  -5747327.181 4
  19075580.084   -10046394.684 4  -7756103.868 2
  16786098.803   -26023810.413 6 -20177694.885 6
  16466150.600     -974413.076 7   -689255.371 7
  15332990.045   -44285428.470 7 -34297516.039 9
  15420824.506   -31343263.071 7 -24332083.488 9
 95  2 19 21 42 59.9810000  0  7 18 16 29 31  2 19 27
  16594310.595   -39338138.630 6 -26347557.556 6
  18686053.337    -9712840.706 5  -5768734.274 1
  19088340.462    -9979316.535 3  -7703835.297 3
  16788721.290   -26010038.456 6 -20166963.496 7
  16449575.282    -1061508.819 6   -757122.142 7
  15328075.173   -44311250.788 7 -34317637.322 8
  15403966.079   -31431858.482 7 -24401118.848 9
 95  2 19 21 43 29.9810000  0  8  7 18 16 29 31  2 19 27
  18914198.970     -151362.212 3
  16603707.103   -39288765.084 6 -26309084.694 6
  18680917.485    -9739823.943 5  -5789760.197 2
  19101126.884    -9912108.495 3  -7651465.570 2
  16791442.446   -25995748.491 6 -20155828.477 6
  16433053.173    -1148333.501 7   -824777.693 7
  15323209.439   -44336814.967 7 -34337557.458 9
  15387144.306   -31520257.995 7 -24470001.557 9
 95  2 19 21 43 59.9810000  0  8  7 18 16 29 31  2 19 27
  18885395.540     -302727.197 2        -0.20813
  16613160.954   -39239088.003 6 -26270375.317 6
  18675876.782    -9766321.044 5  -5810407.274 3
  19113929.970    -9844797.561 3  -7599015.619 2
  16794257.720   -25980952.848 6 -20144299.412 6
  16416585.501    -1234872.083 6   -892210.318 7
  15318395.595   -44362121.137 7 -34357276.547 9
  15370362.095   -31608453.183 7 -24538725.054 9
 95  2 19 21 44 29.9810000  0  8  7 18 16 29 31  2 19 27
  18856590.806     -454067.269 3   -117927.339 5
  16622672.673   -39189110.284 6 -26231431.666 7
  18670931.814    -9792317.364 5  -5830664.196 3
  19126745.181    -9777401.928 2  -7546499.681 3
  16797170.290   -25965644.281 6 -20132370.668 6
  16400175.509    -1321112.165 6   -959410.335 7
  15313626.446   -44387172.935 7 -34376797.425 9
  15353619.485   -31696424.936 7 -24607274.447 9
 95  2 19 21 44 59.9810000  0  8  7 18 16 29 31  2 19 27
  18827801.759     -605373.802 3   -235828.325 4
  16632238.892   -39138826.960 6 -26192249.899 6
  18666073.970    -9817836.682 5  -5850549.365 2
  19139583.579    -9709936.558 2  -7493929.394 2
  16800179.220   -25949831.663 6 -20120049.138 6
  16383819.423    -1407061.563 6  -1026383.870 7
  15308908.728   -44411977.625 7 -34396125.758 9
  15336920.829   -31784184.132 7 -24675658.215 9
 95  2 19 21 45 29.9810000  0  7  7 18 16 31  2 19 27
  18799022.157     -756661.797 4   -353714.853 2
  16641859.025   -39088282.529 6 -26152864.658 6
  18661292.345    -9842944.644 5  -5870114.008 1
  16803275.017   -25933544.908 6 -20107358.167 6
  16367507.548    -1492771.430 7  -1093170.741 7
  15304231.071   -44436559.825 7 -34415280.716 9
  15320262.064   -31871748.024 7 -24743889.793 9
 95  2 19 21 45 59.9810000  0  7  7 18 16 31  2 19 27
  18770234.345     -907913.060 3   -471572.785 2
  16651527.056   -39037475.950 6 -26113275.149 6
  18656597.095    -9867632.163 5  -5889351.027 1
  16806474.993   -25916747.870 6 -20094269.573 6
  16351245.384    -1578229.259 7  -1159761.225 7
  15299599.189   -44460890.297 7 -34434239.520 9
  15303639.048   -31959090.491 7 -24811948.836 9
 95  2 19 21 46 29.9810000  0  7  7 18 16 31  2 19 27
  18741465.032    -1059138.022 4   -589410.202 1
  16661246.454   -38986400.323 6 -26073475.995 6
  18651979.923    -9891916.994 5
  16809765.907   -25899442.757 6 -20080785.071 6
  16335025.767    -1663469.198 7  -1226181.912 7
  15295016.657   -44484966.155 7
  15287055.681   -32046216.518 7 -24879839.227 9
 95  2 19 21 46 59.9810000  0  7  7 18 16 31  2 19 27
  18712688.767    -1210332.339 4
  16671022.759   -38935022.908 6 -26033441.671 6
  18647439.892    -9915786.833 5
  16813161.517   -25881607.114 6 -20066887.182 6
  16318849.946    -1748481.745 7  -1292425.420 8
  15290493.728   -44508748.795 7
  15270521.478   -32133109.234 7 -24947547.810 9
 95  2 19 21 47 29.9810000  0  7  7 18 16 31  2 19 27
  18683931.165    -1361480.376 4        -0.33811
  16680861.196   -38883320.074 6 -25993153.782 6
  18642978.728    -9939207.065 5
  16816661.243   -25863215.285 6 -20052555.881 6
  16302720.923    -1833227.329 6  -1358460.910 7
  15286028.009   -44532217.138 7
  15254035.907   -32219751.495 7 -25015061.244 9
 95  2 19 21 47 59.9810000  0  7  7 18 16 31  2 19 27
  18655171.525    -1512579.179 3   -117739.500 3
  16690760.478   -38831291.090 6 -25952611.756 6
  18638609.400    -9962159.697 5
  16820265.423   -25844276.266 6 -20037798.213 7
  16286646.720    -1917687.834 6  -1424274.263 8
  15281620.126   -44555376.750 7 -34507865.337 9
  15237596.204   -32306153.409 7 -25082387.389 9
 95  2 19 21 48 29.9810000  0  7  7 18 16 31  2 19 27
  18626429.376    -1663624.518 3   -235437.018 2
  16700726.095   -38778930.188 6 -25911811.074 6
  18634330.157    -9984649.402 4
  16823969.798   -25824816.215 6 -20022634.558 6
  16270632.376    -2001859.294 7  -1489862.378 7
  15277269.360   -44578241.836 7 -34525682.290 8
  15221195.329   -32392328.613 7 -25149536.875 9
 95  2 19 21 48 59.9810000  0  7  7 18 16 31  2 19 27
  18597692.485    -1814621.713 3   -353097.046 1
  16710750.931   -38726249.293 6 -25870761.073 6
  18630132.282   -10006678.683 3        -0.02413
  16827764.634   -25804859.118 6 -20007083.570 6
  16254670.439    -2085734.707 7  -1555219.801 7
  15272969.907   -44600840.777 7 -34543291.863 8
  15204836.142   -32478295.507 7 -25216524.042 9
 95  2 19 21 49 29.9810000  0  7  7 18 16 31  2 19 27
  18568969.173    -1965566.338 3   -470716.032 2
  16720832.978   -38673268.385 6 -25829477.276 6
  18626030.985   -10028261.527 4    -16817.830 4
  16831652.306   -25784433.756 6 -19991167.720 6
  16238760.595    -2169329.863 7  -1620358.855 7
  15268715.337   -44623194.565 7 -34560710.404 8
  15188514.337   -32564074.514 7 -25283364.805 9
 95  2 19 21 49 59.9810000  0  7  7 18 16 31  2 19 27
  18540249.415    -2116460.855 3   -588296.033 1
  16730967.759   -38620005.766 6 -25787973.990 6
  18622005.790   -10049412.995 5    -33299.486 2
  16835628.470   -25763549.455 6 -19974894.258 6
  16222905.610    -2252679.012 7  -1685306.196 7
  15264505.431   -44645310.221 7 -34577943.389 8
  15172225.056   -32649663.338 7 -25350057.370 9
 95  2 19 21 50 29.9810000  0  7  7 18 16 31  2 19 27
  18511557.985    -2267300.877 3   -705833.524 2
  16741158.946   -38566457.416 6 -25746248.030 6
  18618063.735   -10070116.124 4    -49431.842 3
  16839693.360   -25742190.752 6 -19958251.141 6
  16207086.431    -2335787.907 7  -1750066.341 7
  15260345.759   -44667176.269 7 -34594981.878 8
  15155979.212   -32735047.363 7 -25416590.362 9
 95  2 19 21 50 59.9810000  0  7  7 18 16 31  2 19 27
  18482861.087    -2418098.556 3   -823338.047 3
  16751398.751   -38512652.455 6 -25704322.120 6
  18614208.915   -10090374.147 4    -65217.302 2
  16843847.079   -25720356.475 6 -19941237.438 6
  16191319.587    -2418663.302 7  -1814644.531 8
  15256231.446   -44688799.108 7 -34611830.842 8
  15139766.157   -32820224.417 7 -25482962.078 9
 95  2 19 21 51 29.9810000  0  7  7 18 16 31  2 19 27
  18454172.673    -2568830.353 3   -940791.259 4
  16761686.275   -38458583.600 6 -25662190.591 6
  18610438.376   -10110173.769 4    -80645.634 1
  16848097.290   -25698013.808 6 -19923827.591 6
  16175591.853    -2501290.779 7  -1879029.541 8
  15252168.548   -44710139.134 7 -34628459.430 8
  15123606.798   -32905161.989 7 -25549147.175 9
 95  2 19 21 51 59.9810000  0  7  7 18 16 31  2 19 27
  18425495.579    -2719529.509 4  -1058218.988 4
  16772021.814   -38404277.430 6 -25619874.144 6
  18606757.751   -10129539.959 4    -95736.204 1
  16852443.337   -25675181.636 6 -19906036.333 6
  16159916.134    -2583691.675 7  -1943237.991 7
  15248158.650   -44731214.218 7 -34644881.577 8
  15107485.720   -32989871.309 7 -25615154.409 9
 95  2 19 21 52 29.9810000  0  7  7 18 16 31  2 19 27
  18396827.517    -2870196.222 4  -1175621.441 4
  16782397.720   -38349732.111 6 -25577371.338 6
  18603153.704   -10148471.927 4
  16856879.314   -25651878.312 6 -19887877.924 6
  16144276.423    -2665845.338 7  -2007253.781 8
  15244198.071   -44752020.135 7 -34661093.967 9
  15091412.446   -33074349.629 7 -25680981.659 9
 95  2 19 21 52 59.9810000  0  7  7 18 16 31  2 19 27
  18368161.337    -3020823.250 5  -1292993.007 4
  16792827.704   -38294929.731 6 -25534668.241 6
  18599631.837   -10166983.589 3        -0.49111
  16861399.462   -25628119.002 6 -19869364.219 6
  16128696.290    -2747749.750 7  -2071075.361 8
  15240294.290   -44772544.444 7 -34677086.938 8
  15075378.946   -33158597.127 7 -25746629.041 9
 95  2 19 21 53 29.9810000  0  7  7 18 16 31  2 19 27
  18339510.860    -3171401.519 5  -1410326.543 5
  16803309.775   -38239853.258 6 -25491751.556 6
  18596185.384   -10185079.824 4    -14101.451 3
  16866005.610   -25603907.348 6 -19850498.011 6
  16113148.806    -2829419.199 7  -2134713.852 8
  15236445.439   -44792773.222 7 -34692849.619 8
  15059393.298   -33242614.518 7 -25812097.112 9
 95  2 19 21 53 59.9810000  0  7  7 18 16 31  2 19 27
  18310859.446    -3321931.759 5  -1527622.684 5
  16813841.509   -38184512.305 6 -25448628.783 6
  18592822.868   -10202764.646 4    -27881.864 2
  16870697.712   -25579259.945 6 -19831292.270 6
  16097654.876    -2910868.571 7  -2198180.851 8
  15232649.087   -44812725.730 7 -34708397.019 8
  15043443.782   -33326409.681 7 -25877392.025 9
 95  2 19 21 54 29.9810000  0  7  7 18 16 31  2 19 27
  18282226.181    -3472402.871 4  -1644872.726 3
  16824418.884   -38128908.405 6 -25405301.109 6
  18589533.165   -10220041.248 3    -41344.180 2
  16875470.595   -25554164.964 6 -19811737.764 6
  16082191.837    -2992113.107 7  -2261488.236 8
  15228904.157   -44832405.274 7 -34723731.734 8
  15027541.821   -33409986.935 7 -25942517.135 9
 95  2 19 21 54 59.9810000  0  7  7 18 16 31  2 19 27
  18253610.548    -3622795.605 5  -1762061.715 4
  16835052.142   -38073040.116 6 -25361767.436 6
  18586330.384   -10236916.546 3    -54493.775 1
  16880337.009   -25528594.194 6 -19791812.516 6
  16066771.345    -3073157.960 7  -2324640.034 8
  15225211.962   -44851798.488 7 -34738843.318 8
  15011676.618   -33493342.327 7 -26007469.369 9
 95  2 19 21 55 29.9810000  0  7  7 18 16 31  2 19 27
  18225009.415    -3773074.672 3  -1879162.104 3
  16845737.470   -38016900.487 6 -25318022.314 6
  18583195.415   -10253366.643 4    -67312.051 2
  16885299.110   -25502506.000 6 -19771484.062 6
  16051388.634    -3153972.133 7  -2387612.080 8
  15221579.517   -44870893.158 7 -34753722.279 8
  14995864.665   -33576452.414 7 -26072230.449 9
 95  2 19 21 55 59.9810000  0  7  7 18 16 31  2 19 27
  18196431.314    -3923248.410 3  -1996180.446 3
  16856466.400   -37960503.311 6 -25274076.521 6
  18580143.579   -10269390.450 3    -79798.128 1
  16890360.821   -25475902.099 6 -19750753.762 6
  16036058.751    -3234546.460 7  -2450397.229 8
  15217996.595   -44889725.119 7 -34768396.535 8
  14980092.337   -33659323.611 7 -26136805.388 9
 95  2 19 21 56 29.9810000  0  7  7 18 16 31  2 19 27
  18167869.235    -4073344.788 3  -2113138.494 3
  16867246.782   -37903868.344 6 -25229945.422 6
  18577170.478   -10285012.461 3    -91971.159 3
  16895521.993   -25448805.597 6 -19729639.615 6
  16020770.181    -3314880.201 7  -2512994.919 8
  15214458.610   -44908307.002 7 -34782875.919 8
  14964367.087   -33741973.962 7 -26201208.236 9
 95  2 19 21 56 59.9810000  0  7  7 18 16 31  2 19 27
  18139328.626    -4223369.735 4  -2230040.871 2
  16878068.618   -37847001.358 6 -25185633.528 6
  18574276.650   -10300229.602 4   -103828.671 2
  16900764.985   -25421243.183 6 -19708162.416 6
  16005536.923    -3394946.105 7  -2575383.908 8
  15210969.095   -44926642.873 7 -34797163.614 8
  14948680.165   -33824401.689 7 -26265437.600 9
 95  2 19 21 57 29.9810000  0  7  7 18 16 31  2 19 27
  18110788.806    -4373321.245 3  -2346886.063 2
  16888935.618   -37789884.581 6 -25141127.004 6
  18571459.196   -10315008.514 3   -115344.760 3
  16906098.321   -25393214.435 6 -19686321.831 6
  15990352.485    -3474728.743 7  -2637552.159 8
  15207528.821   -44944724.466 7 -34811253.169 8
  14933042.837   -33906583.517 7 -26329475.366 9
 95  2 19 21 57 59.9810000  0  6  7 18 31  2 19 27
  18082265.665    -4523219.298 3  -2463689.566 4
  16899850.837   -37732533.058 6 -25096437.555 6
  16911516.032   -25364753.693 6 -19664144.647 6
  15975220.798    -3554247.003 7  -2699514.410 8
  15204137.173   -44962546.548 7 -34825140.502 8
  14917450.626   -33988517.801 7 -26393320.246 9
 95  2 19 21 58 29.9810000  0  7  7 18 16 31  2 19 27
  18053751.767    -4673042.544 3  -2580434.828 1
  16910810.509   -37674932.861 6 -25051554.333 6
  18566085.056          -0.21412
  16917017.454   -25335855.831 6 -19641626.832 6
  15960144.150    -3633482.487 7  -2761256.318 8
  15200808.689   -44980048.975 7 -34838778.760 8
  14901907.556   -34070184.064 7 -26456956.274 9
 95  2 19 21 58 59.9810000  0  7  7 18 16 31  2 19 27
  18025256.282    -4822796.714 3  -2697126.265 2
  16921817.564   -37617095.932 6 -25006486.649 6
  18563520.220      -13495.162 4
  16922591.775   -25306535.865 6 -19618780.104 6
  15945111.642    -3712463.603 7  -2822800.006 8
  15197536.267   -44997243.469 7 -34852177.074 8
  14886420.556   -34151587.705 7 -26520387.669 9
 95  2 19 21 59 29.9810000  0  7  7 18 16 31  2 19 27
  17996775.696    -4972467.782 4  -2813752.921 1
  16932865.478   -37559023.444 6 -24961235.408 6
  18561028.360      -26584.241 4        -0.03212
  16928254.501   -25276786.801 6 -19595599.024 6
  15930130.782    -3791207.903 7  -2884159.180 8
  15194322.064   -45014129.689 7 -34865335.166 8
  14870978.439   -34232726.901 7 -26583613.001 9
 95  2 19 21 59 59.9810000  0  7  7 18 16 31  2 19 27
  17968306.978    -5122056.127 5  -2930315.129 2
  16943961.868   -37500732.227 6 -24915813.726 5
  18558604.798      -39302.722 4     -9910.589 3
  16933996.360   -25246622.485 6 -19572094.373 6
  15915186.876    -3869726.478 7  -2945342.452 8
  15191162.212   -45030734.736 7 -34878274.173 8
  14855585.275   -34313632.477 7 -26646656.283 9
 95  2 19 22  0 29.9810000  0  7  7 18 16 31  2 19 27
  17939865.314    -5271540.965 5  -3046796.686 3
  16955095.985   -37442208.954 6 -24870211.238 5
  18556256.790      -51636.464 3    -19521.286 2
  16939817.196   -25216016.937 6 -19548245.897 6
  15900295.626    -3947997.914 7  -3006333.153 8
  15188056.071   -45047062.382 7 -34890997.021 8
  14840230.165   -34394294.085 7 -26709509.470 9
 95  2 19 22  0 59.9800000  0  7  7 18 16 31  2 19 27
  17911439.152    -5420915.836 5  -3163192.518 1
  16966278.371   -37383456.775 6 -24824430.362 6
  18553983.434      -63604.766 3    -28847.292 1
  16945727.629   -25184970.423 6 -19524053.840 6
  15885440.504    -4026042.219 7  -3067146.863 8
  15184994.277   -45063147.837 7 -34903531.142 8
  14824928.902   -34474719.720 7 -26772178.776 9
 95  2 19 22  1 29.9800000  0  7  7 18 16 31  2 19 27
  17883038.559    -5570168.716 5  -3279493.289 5
  16977503.473   -37324458.678 6 -24778457.893 6
  18551775.731      -75191.543 3    -37875.962 1
  16951721.699   -25153462.950 6 -19499502.572 6
  15870637.059    -4103849.727 7  -3127776.054 8
  15181980.379   -45078989.040 7 -34915874.944 8
  14809665.879   -34554922.421 7 -26834674.370 9
 95  2 19 22  1 59.9800000  0  7  7 18 16 31  2 19 27
  17854656.574    -5719308.545 5  -3395705.996 3
  16988772.067   -37265235.240 6 -24732309.811 6
  18549642.887      -86385.981 3
  16957801.543   -25121502.547 6 -19474598.395 6
  15855872.652    -4181420.015 7  -3188220.400 8
  15179011.785   -45094586.296 7 -34928028.651 8
  14794446.981   -34634901.278 7 -26896995.539 9
 95  2 19 22  2 29.9800000  0  7  7 18 16 31  2 19 27
  17826290.215    -5868331.590 5  -3511827.691 5
  17000088.543   -37205780.491 6 -24685981.476 6
  18547589.598      -97166.017 2        -0.00311
  16963973.176   -25089084.697 6 -19449337.726 6
  15841156.442    -4258757.197 7  -3248483.111 8
  15176094.012   -45109913.968 7 -34939972.302 8
  14779276.145   -34714629.823 7 -26959121.665 9
 95  2 19 22  2 59.9800000  0  6  7 18 31  2 19 27
  17797962.723    -6017234.821 5  -3627856.004 5
  17011443.754   -37146101.643 6 -24639478.554 5
  16970226.481   -25056217.582 6 -19423727.022 6
  15826482.817    -4335870.847 7  -3308571.640 8
  15173231.582   -45124961.015 7 -34951697.274 8
  14764149.473   -34794114.644 7 -27021057.867 9
 95  2 19 22  3 29.9800000  0  6  7 18 31  2 19 27
  17769648.356    -6166015.873 5  -3743789.096 4
  17022840.652   -37086216.105 6 -24592814.566 5
  16976563.613   -25022915.627 6 -19397777.473 6
  15811853.473    -4412745.909 7  -3368474.258 8
  15170423.277   -45139715.714 7 -34963194.457 8
  14749074.535   -34873334.294 7 -27082787.449 9
 95  2 19 22  3 59.9800000  0  6  7 18 31  2 19 27
  17741358.910    -6314680.811 5  -3859631.717 4
  17034277.215   -37026117.070 6 -24545984.207 6
  16982984.645   -24989187.586 6 -19371495.928 6
  15797272.317    -4489382.887 7  -3428191.358 8
  15167673.692   -45154156.936 7 -34974447.352 8
  14734053.504   -34952267.235 7 -27144293.614 9
 95  2 19 22  4 29.9800000  0  6  7 18 31  2 19 27
  17713091.379    -6463234.534 5  -3975387.668 4
  17045752.402   -36965805.248 6 -24498988.045 5
  16989481.106   -24955049.852 6 -19344895.120 6
  15782729.918    -4565788.812 7  -3487728.409 8
  15164986.348   -45168289.621 7 -34985459.852 8
  14719086.434   -35030927.483 7 -27205587.295 9
 95  2 19 22  4 59.9800000  0  6  7 18 31  2 19 27
  17684841.043    -6611685.599 5  -4091063.613 4
  17057266.051   -36905311.803 6 -24451850.362 6
  16996051.496   -24920528.472 6 -19317995.394 6
  15768235.856    -4641957.553 7  -3547080.636 8
  15162352.285   -45182135.119 7 -34996248.550 8
  14704163.770   -35109335.087 7 -27266684.103 9
 95  2 19 22  5 29.9800000  0  6  7 18 31  2 19 27
  17656613.543    -6760004.519 4  -4206636.604 4
  17068813.590   -36844610.146 6 -24404550.437 5
  17002694.762   -24885606.566 6 -19290783.545 6
  15753792.645    -4717859.122 7  -3606224.692 8
  15159774.356   -45195674.632 7 -35006798.838 8
  14689297.348   -35187462.750 7 -27327562.787 9
 95  2 19 22  5 59.9800000  0  6  7 18 31  2 19 27
  17628414.926    -6908209.137 5  -4322120.544 4
  17080403.723   -36783713.336 6 -24357098.433 5
  17009412.777   -24850295.067 6 -19263268.127 6
  15739392.449    -4793523.838 7  -3665184.171 8
  15157253.387   -45208928.663 7 -35017126.657 8
  14674479.246   -35265345.248 7 -27388250.421 9
 95  2 19 22  6 29.9800000  0  6  7 18 31  2 19 27
  17600239.473    -7056266.818 5  -4437489.969 5
  17092032.527   -36722624.014 6 -24309496.426 5
  17016209.129   -24814573.076 6 -19235432.844 6
  15725047.293    -4868926.095 7  -3723939.140 8
  15154786.559   -45221888.484 7 -35027225.231 8
  14659708.363   -35342950.524 7 -27448722.045 9
 95  2 19 22  6 59.9800000  0  6  7 18 31  2 19 27
  17572090.270    -7204175.682 5  -4552743.453 5
  17103690.395   -36661345.168 6 -24261746.740 5
  17023084.918   -24778441.688 6 -19207278.560 6
  15710742.410    -4944080.213 7  -3782500.762 8
  15152375.121   -45234564.767 7 -35037102.867 8
  14644996.965   -35420279.761 7 -27508978.577 9
 95  2 19 22  7 29.9800000  0  6  7 18 31  2 19 27
  17543972.754    -7351944.848 5  -4667888.068 5
  17115394.652   -36599860.088 6 -24213836.343 5
  17030040.738   -24741896.591 6 -19178801.883 6
  15696486.613    -5019007.878 7  -3840885.927 8
  15150014.348   -45246953.488 7 -35046756.418 8
  14630330.582   -35497333.708 7 -27569020.602 9
 95  2 19 22  7 59.9800000  0  6  7 18 31  2 19 27
  17515877.059    -7499577.220 5  -4782926.110 5
  17127129.559   -36538171.333 6 -24165767.260 5
  17037073.731   -24704931.884 6 -19149998.229 6
  15682273.824    -5093707.906 7  -3899093.717 8
  15147715.863   -45259050.587 7 -35056182.728 8
  14615723.238   -35574104.003 7 -27628841.589 9
 95  2 19 22  8 29.9800000  0  6  7 18 31  2 19 27
  17487813.973    -7647056.440 5  -4897844.823 4
  17138906.442   -36476276.657 5 -24117537.697 5
  17044193.684   -24667536.464 6 -19120859.005 6
  15668101.817    -5168157.709 7  -3957106.511 8
  15145471.824   -45270843.656 7 -35065372.146 8
  14601173.340   -35650578.678 7 -27688432.223 9
 95  2 19 22  8 59.9800000  0  6  7 18 31  2 19 27
  17459780.949    -7794385.585 5  -5012646.617 5
  17150725.809   -36414173.928 6 -24069146.015 5
  17051384.590   -24629725.019 6 -19091395.589 6
  15653981.824    -5242370.960 7  -4014934.993 8
  15143284.317   -45282330.051 7 -35074322.599 8
  14586670.676   -35726775.442 7 -27747806.321 9
 95  2 19 22  9 29.9800000  0  7  7 18 16 31  2 19 27
  17431772.145    -7941571.591 5  -5127336.892 5
  17162579.574   -36351884.476 6 -24020608.854 5
  18526580.449          -0.95113
  17058662.113   -24591504.036 6 -19061613.048 6
  15639905.574    -5316349.708 7  -4072580.735 8
  15141158.676   -45293505.939 7 -35083031.087 8
  14572221.301   -35802690.761 7 -27806961.108 9
 95  2 19 22  9 59.9800000  0  7  7 18 16 31  2 19 27
  17403796.293    -8088598.644 5  -5241903.301 5
  17174462.098   -36289426.585 5 -23971940.430 5
  18525606.942       -5096.704 4        -0.19211
  17066010.043   -24552877.896 6 -19031514.811 6
  15625871.988    -5390084.328 7  -4130036.250 8
  15139091.238   -45304376.635 7 -35091501.764 8
  14557833.059   -35878317.399 7 -27865890.937 9
 95  2 19 22 10 29.9800000  0  7  7 18 16 31  2 19 27
  17375837.082    -8235490.817 5  -5356364.602 5
  17186377.574   -36226820.397 5 -23923156.442 5
  18524709.059       -9848.490 3     -3703.017 1
  17073433.317   -24513883.576 6 -19001129.680 6
  15611879.387    -5463604.438 7  -4187324.622 8
  15137074.277   -45314963.394 7 -35099751.197 8
  14543495.949   -35953667.837 7 -27924605.551 9
 95  2 19 22 10 59.9800000  0  7  7 18 16 31  2 19 27
  17347916.082    -8382233.987 5  -5470709.825 5
  17198325.426   -36164044.258 6 -23874240.038 5
  18523865.817      -14243.499 3     -7127.747 1
  17080924.137   -24474517.531 6 -18970454.905 6
  15597931.277    -5536906.426 7  -4244443.017 8
  15135116.551   -45325251.445 7 -35107767.863 8
  14529214.137   -36028710.730 7 -27983080.521 9
 95  2 19 22 11 29.9800000  0  7  7 18 16 31  2 19 27
  17320016.645    -8528836.158 5  -5584945.177 5
  17210304.512   -36101094.501 5 -23825188.340 5
  18523098.106      -18284.897 2    -10276.861 1
  17088487.965   -24434774.170 6 -18939486.105 5
  15584026.348    -5609979.542 7  -4301383.078 8
  15133213.059   -45335260.486 7 -35115567.122 8
  14514992.707   -36103446.321 7 -28041316.033 9
 95  2 19 22 11 59.9800000  0  7  7 18 16 31  2 19 27
  17292148.770    -8675274.226 5  -5699052.633 5
  17222317.949   -36037940.528 5 -23775977.523 5
  18522396.113      -21959.894 2
  17096121.059   -24394639.186 6 -18908212.123 5
  15570170.121    -5682807.202 7  -4358131.879 8
  15131363.207   -45344986.720 7 -35123146.025 8
  14500831.418   -36177855.505 7 -28099297.202 9
 95  2 19 22 12 29.9800000  0  7  7 18 16 31  2 19 27
  17264313.106    -8821571.656 5  -5813050.519 5
  17234375.418   -35974599.930 5 -23726621.265 4
  18521779.692      -25287.934 3
  17103834.981   -24354133.069 6 -18876648.970 5
  15556350.426    -5755423.385 7  -4414715.889 8
  15129562.637   -45354447.005 7 -35130517.664 8
  14486729.098   -36251972.608 7 -28157050.775 9
 95  2 19 22 12 59.9800000  0  7  7 18 16 31  2 19 27
  17236500.129    -8967721.197 5  -5926933.143 5
  17246465.481   -35911080.269 5 -23677125.486 5
  18521205.606      -28271.663 3
  17111612.660   -24313243.825 6 -18844787.254 5
  15542571.395    -5827830.125 7  -4471136.695 8
  15127813.356   -45363648.998 7 -35137688.056 8
  14472675.738   -36325826.081 7 -28214598.916 9
 95  2 19 22 13 29.9800000  0  7  7 18 16 31  2 19 27
  17208716.879    -9113730.741 5  -6040706.696 5
  17258581.168   -35847395.050 6 -23627500.719 5
  18520692.356      -30923.764 3
  17119465.567   -24271969.817 6 -18812625.751 5
  15528831.090    -5900031.641 7  -4527397.599 8
  15126108.106   -45372597.275 7 -35144660.746 8
  14458670.121   -36399433.743 7 -28271955.521 9
 95  2 19 22 13 59.9800000  0  7  7 18 16 31  2 19 27
  17180960.902    -9259573.057 5  -6154349.926 5
  17270731.457   -35783547.564 5 -23577749.486 5
  18520250.481      -33238.634 2
  17127389.238   -24230304.630 6 -18780159.426 6
  15515131.238    -5972020.329 7  -4583492.648 8
  15124462.981   -45381246.837 7 -35151400.664 8
  14444713.262   -36472783.003 7 -28329110.768 9
 95  2 19 22 14 29.9800000  0  7  7 18 16 31  2 19 27
  17153243.098    -9405248.732 5  -6267863.326 5
  17282907.395   -35719559.171 5 -23527888.484 5
  18519876.918      -35223.912 3
  17135395.004   -24188253.231 6 -18747392.143 5
  15501478.176    -6043784.517 7  -4639412.778 8
  15122876.918   -45389581.631 7 -35157895.316 8
  14430802.035   -36545878.922 7 -28386068.613 9
 95  2 19 22 14 59.9800000  0  7  7 18 16 31  2 19 27
  17125551.238    -9550747.111 5  -6381238.551 5
  17295109.270   -35655429.737 6 -23477917.553 5
  18519560.285      -36878.958 5
  17143473.004   -24145814.502 6 -18714323.030 5
  15487869.793    -6115305.022 7  -4695143.025 8
  15121351.379   -45397589.498 7 -35164135.219 8
  14416940.863   -36618699.365 7 -28442811.801 9
 95  2 19 22 15 29.9800000  0  7  7 18 16 31  2 19 27
  17097905.551    -9696053.382 5  -6494464.089 5
  17307343.176   -35591150.697 6 -23427830.030 5
  18519308.551      -38197.444 4        -0.00111
  17151618.754   -24102995.846 6 -18680957.889 5
  15474308.762    -6186571.533 7  -4750675.345 8
  15119895.762   -45405244.496 7 -35170100.158 8
  14403143.238   -36691205.522 7 -28499310.084 9
 95  2 19 22 15 59.9800000  0  7  7 18 16 31  2 19 27
  17070289.410    -9841158.977 5  -6607533.244 5
  17319601.871   -35526730.723 6 -23377632.730 5
  18519126.168      -39179.224 3      -765.082 1
  17159838.910   -24059821.947 6 -18647315.940 5
  15460789.918    -6257593.753 7  -4806017.312 8
  15118505.223   -45412551.001 7 -35175793.539 8
  14389409.910   -36763391.301 7 -28555558.731 9
 95  2 19 22 16 29.9800000  0  7  7 18 16 31  2 19 27
  17042713.262    -9986076.173 5  -6720455.621 5
  17331885.809   -35462169.616 5 -23327325.451 5
  18519003.652      -39841.960 3     -1281.526 1
  17168114.543   -24016305.149 5 -18613406.781 5
  15447318.137    -6328396.041 7  -4861187.902 8
  15117174.098   -45419544.506 7 -35181243.033 8
  14375735.402   -36835254.748 7 -28611556.213 9
 95  2 19 22 16 59.9800000  0  7  7 18 16 31  2 19 27
  17015174.520   -10130800.592 5  -6833227.766 5
  17344205.879   -35397448.453 5 -23276893.425 5
  18518933.199      -40188.396 3
  17176461.856   -23972454.748 5 -18579237.682 5
  15433884.402    -6398999.966 7  -4916203.921 8
  15115901.910   -45426235.927 7 -35186457.134 8
  14362118.692   -36906792.042 7 -28667299.541 9
 95  2 19 22 17 29.9800000  0  7  7 18 16 31  2 19 27
  16987669.863   -10275327.058 5  -6945845.662 5
  17356550.824   -35332563.298 5 -23226333.624 5
  18518926.402      -40218.793 3
  17184868.848   -23928272.026 5 -18544809.625 5
  15420482.324    -6469408.301 7  -4971067.532 8
  15114685.387   -45432627.179 7 -35191437.335 8
  14348571.676   -36978000.038 7 -28722786.269 9
 95  2 19 22 17 59.9800000  0  7  7 18 16 31  2 19 27
  16960206.996   -10419656.540 5  -7058310.075 5
  17368925.449   -35267514.090 5 -23175645.998 5
  18518985.535      -39924.085 3
  17193343.004   -23883744.235 5 -18510112.690 5
  15407128.848    -6539604.217 7  -5025765.633 8
  15113521.317   -45438729.543 7 -35196192.426 8
  14335078.395   -37048882.398 7 -28778019.260 9
 95  2 19 22 18 29.9800000  0  7  7 18 16 31  2 19 27
  16932774.988   -10563792.694 5  -7170623.847 5
  17381340.043   -35202300.678 5 -23124830.410 5
  18519105.004      -39291.473 2      -852.720 1
  17201886.692   -23838865.144 5 -18475142.040 5
  15393810.020    -6609574.398 7  -5080287.831 8
  15112417.410   -45444542.468 7 -35200721.978 8
  14321656.645   -37119439.879 7 -28832999.102 9
 95  2 19 22 18 59.9800000  0  7  7 18 16 31  2 19 27
  16905382.363   -10707745.008 5  -7282794.380 5
  17393772.824   -35136954.842 5 -23073911.650 5
  18519287.817      -38320.707 2       -96.339 1
  17210482.817   -23793663.354 5 -18439919.918 6
  15380540.762    -6679311.498 7  -5134628.411 8
  15111364.535   -45450067.442 7 -35205027.161 8
  14308288.559   -37189682.310 7 -28887733.450 9
 95  2 19 22 19 29.9790000  0  7  7 18 16 31  2 19 27
  16878023.694   -10851516.046 5  -7394823.653 5
  17406231.937   -35071504.650 5 -23022911.572 4
  18519540.093      -37021.117 2       916.156 1
  17219148.335   -23748142.982 5 -18404449.553 6
  15367318.109    -6748800.767 7  -5188775.874 8
  15110368.991   -45455308.251 7 -35209110.917 8
  14294981.280   -37259608.844 7 -28942221.640 9
 95  2 19 22 19 59.9790000  0  7  7 18 16 31  2 19 27
  16850702.937   -10995102.733 5  -7506709.289 5
  17418705.187   -35005934.470 5 -22971817.984 5
  18519850.913      -35381.255 3      2193.949 1
  17227875.593   -23702280.089 5 -18368712.263 6
  15354146.788    -6818025.502 7  -5242717.213 8
  15109427.976   -45460245.207 7 -35212957.900 8
  14281736.187   -37329212.266 7 -28996458.062 9
 95  2 19 22 20 29.9790000  0  6  7 18 31  2 19 27
  16823412.241   -11138511.449 5  -7618456.217 5
  17431202.944   -34940259.328 5 -22920642.635 5
  17236664.038   -23656082.466 5 -18332714.174 6
  15341016.101    -6887007.392 7  -5296469.314 8
  15108546.874   -45464881.300 7 -35216570.445 8
  14268552.249   -37398502.587 7 -29050450.506 9
 95  2 19 22 20 59.9790000  0  7  7 18 15 31  2 19 27
  16796155.577   -11281742.579 5  -7730064.804 5
  17443725.648   -34874470.867 5 -22869378.957 5
  18628697.898     -107512.374 4
  17245523.804   -23609536.131 5 -18296444.340 6
  15327934.374    -6955751.431 7  -5350036.079 8
  15107723.257   -45469206.682 7 -35219940.884 8
  14255425.335   -37467484.648 7 -29104202.749 9
 95  2 19 22 21 29.9790000  0  8  7 18 16 15 31  2 19 27
  16768937.757   -11424779.657 5  -7841522.168 5
  17456276.187   -34808534.761 5 -22818000.258 3
  18521126.382          -0.91411
  18608282.609     -214830.873 4        -0.39913
  17254455.484   -23562594.338 5 -18259866.375 6
  15314899.632    -7024256.132 7
  15106962.062   -45473207.776 7 -35223058.632 8
  14242359.288   -37536152.494 7
 95  2 19 22 21 59.9790000  0  8  7 18 16 15 31  2 19 27
  16741759.913   -11567596.453 5  -7952807.872 6
  17468849.155   -34742435.285 5 -22766494.231 3
  18521660.069        2816.358 3
  18587894.507     -321944.977 4    -83465.876 4
  17263468.999   -23515241.285 5 -18222967.938 5
  15301911.218    -7092515.350 7
  15106263.523   -45476877.684 7 -35225918.314 8
  14229353.679   -37604496.787 7
 95  2 19 22 22 29.9790000  0  8  7 18 16 15 31  2 19 27
  16714629.421   -11710185.856 5  -8063916.381 5
  17481455.296   -34676178.798 5 -22714865.859 5
  18522245.007        5920.729 1        -0.15911
  18567551.421     -428861.421 5   -166777.244 3
  17272552.194   -23467506.607 6 -18185772.119 5
  15288964.507    -7160541.575 7
  15105626.202   -45480230.447 7 -35228530.862 8
  14216407.999   -37672520.476 7
 95  2 19 22 22 59.9790000  0  8  7 18 16 15 31  2 19 27
  16687538.812   -11852531.587 5  -8174835.031 6
  17494091.694   -34609775.511 5 -22663123.114 4
  18522893.577        9320.007 1      2648.534 2
  18547239.234     -535575.432 5   -249930.979 4
  17281703.226   -23419415.843 6 -18148298.836 5
  15276062.984    -7228338.172 7
  15105048.187   -45483274.989 7 -35230903.250 8
  14203524.952   -37740223.179 7
 95  2 19 22 23 29.9790000  0  7  7 18 15 31  2 19 27
  16660496.632   -11994630.360 5  -8285561.233 6
  17506755.554   -34543251.574 5 -22611286.349 4
  18526972.187     -642094.972 5   -332933.083 3
  17290915.632   -23371003.116 6 -18110574.667 5
  15263203.194    -7295924.358 7  -5615105.791 8
  15104521.968   -45486035.698 7 -35233054.467 8
  14190704.538   -37807598.750 7 -29369226.654 9
 95  2 19 22 23 59.9790000  0  7  7 18 15 31  2 19 27
  16633503.937   -12136475.965 5  -8396090.174 6
  17519430.819   -34476613.121 5 -22559360.339 4
  18506736.734     -748412.778 5   -415778.087 3
  17300185.023   -23322303.198 6 -18072626.696 5
  15250383.468    -7363293.507 7  -5667601.208 8
  15104053.093   -45488501.163 7 -35234975.626 8
  14177945.812   -37874637.698 7 -29421464.781 9
 95  2 19 22 24 29.9790000  0  8  7 18 16 15 31  2 19 27
  16606558.827   -12278076.623 6  -8506428.239 6
  17532135.179   -34409858.975 5 -22507344.209 3
  18525182.124          -0.91611
  18486544.046     -854520.707 5   -498459.469 1
  17309501.405   -23273331.156 6 -18034466.705 5
  15237605.788    -7430460.872 7  -5719939.383 8
  15103640.382   -45490657.889 7 -35236656.205 8
  14165249.538   -37941341.571 7 -29473441.801 9
 95  2 19 22 24 59.9790000  0  8  7 18 16 15 31  2 19 27
  16579660.109   -12419435.742 6  -8616578.088 6
  17544865.601   -34342985.303 5 -22455234.926 2
  18526072.421        4636.396 3        -0.07313
  18466398.398     -960409.184 5   -580969.852 1
  17318873.710   -23224067.990 6 -17996079.884 5
  15224855.319    -7497434.404 7  -5772126.533 8
  15103293.757   -45492497.562 7 -35238089.739 8
  14152624.882   -38007707.456 7 -29525155.461 9
 95  2 19 22 25 29.9790000  0  8  7 18 16 15 31  2 19 27
  16552800.382   -12560578.055 6  -8726559.018 6
  17557607.523   -34275997.110 5 -22403036.413 2
  18527007.687        9574.255 3      3847.536 2
  18446278.241    -1066085.658 4   -663315.000 2
  17328308.374   -23174512.045 6 -17957464.916 5
  15212147.429    -7564225.586 7  -5824171.596 8
  15103002.601   -45494021.959 7 -35239277.600 8
  14140053.523   -38073748.615 7 -29576616.093 9
 95  2 19 22 25 59.9790000  0  8  7 18 16 15 31  2 19 27
  16525980.023   -12701510.836 6  -8836376.662 6
  17570375.718   -34208904.286 5 -22350756.377 4
  18528005.788       14794.906 3      7915.486 1
  18426216.007    -1171547.873 4   -745493.257 2
  17337792.132   -23124654.124 5 -17918614.637 5
  15199472.101    -7630824.909 7  -5876067.146 8
  15102775.562   -45495229.667 7 -35240218.687 8
  14127547.632   -38139488.466 7 -29627841.931 9
 95  2 19 22 26 29.9790000  0  8  7 18 16 15 31  2 19 27
  16499210.569   -12842208.050 6  -8946010.755 6
  17583163.765   -34141703.246 5 -22298392.009 4
  18529050.515       20316.166 3     12217.699 1
  18406189.741    -1276775.948 4   -827489.013 1
  17347345.796   -23074457.367 5 -17879500.329 5
  15186842.523    -7697209.197 7  -5927795.144 8
  15102604.194   -45496114.974 7 -35240908.559 8
  14115097.007   -38204903.789 7 -29678814.898 9
 95  2 19 22 26 59.9790000  0  8  7 18 16 15 31  2 19 27
  16472476.148   -12982677.895 6  -9055467.678 6
  17595963.054   -34074412.673 5 -22245957.867 3
  18530163.069       26126.906 3
  18386210.624    -1381775.609 4   -909306.868 1
  17356961.788   -23023927.567 5 -17840126.510 5
  15174254.999    -7763362.006 7  -5979342.771 8
  15102494.671   -45496691.506 7 -35241357.817 8
  14102714.530   -38269983.100 7 -29729526.035 9
 95  2 19 22 27 29.9790000  0  8  7 18 16 15 31  2 19 27
  16445789.609   -13122917.186 6  -9164744.944 6
  17608792.148   -34007045.667 5 -22193464.170 3
  18531316.890       32214.953 3        -0.13312
  18366272.093    -1486548.613 4   -990948.061 2
  17366637.069   -22973080.392 5 -17800505.412 5
  15161708.405    -7829266.061 7  -6030696.558 8
  15102446.694   -45496960.808 7
  14090398.655   -38334715.857 7 -29779967.131 9
 95  2 19 22 27 59.9790000  0  8  7 18 16 15 31  2 19 27
  16419148.523   -13262917.632 6  -9273836.118 6
  17621621.124   -33939607.549 5 -22140915.079 4
  18532519.554       38571.548 3
  18346374.562    -1591092.737 4  -1072410.880 1
  17376367.234   -22921935.060 5 -17760651.977 5
  15149218.359    -7894908.553 7  -6081846.541 8
  15102449.460   -45496924.007 7
  14078148.632   -38399083.504 7 -29830123.730 9
 95  2 19 22 28 29.9790000  0  8  7 18 16 15 31  2 19 27
  16392553.999   -13402683.473 6  -9382744.459 6
  17634476.460   -33872079.455 5 -22088295.879 3
  18533790.999       45196.537 3
  18326533.991    -1695405.459 4  -1153693.393 1
  17386157.601   -22870502.927 5 -17720575.052 5
  15136773.179    -7960305.373 7  -6132805.081 8
  15102519.538   -45496568.184 7
  14065974.616   -38463054.142 7 -29879970.974 9
 95  2 19 22 28 59.9790000  0  8  7 18 16 15 31  2 19 27
  16365999.671   -13542214.331 6  -9491469.718 6
  17647342.616   -33804443.271 5 -22035592.446 4
  18535103.444       52088.858 3
  18306728.663    -1799479.167 3  -1234789.633 1
  17395998.562   -22818780.053 5 -17680271.577 5
  15124373.476    -8025467.669 7  -6183580.866 8
  15102646.671   -45495880.147 7 -35240725.671 8
  14053876.890   -38526629.302 7 -29929510.052 9
 95  2 19 22 29 29.9790000  0  8  7 18 16 15 31  2 19 27
  16339497.890   -13681500.591 6  -9600004.388 6
  17660236.554   -33736690.190 5 -21982797.908 5
  18536465.687       59231.065 5        -0.40311
  18286967.796    -1903312.300 3  -1315698.432 2
  17405902.007   -22766761.366 5 -17639737.601 5
  15112012.280    -8090420.115 7  -6234193.146 8
  15102842.312   -45494857.217 7 -35239928.601 8
  14041852.921   -38589820.861 7 -29978750.215 9
 95  2 19 22 29 59.9790000  0  8  7 18 16 15 31  2 19 27
  16313031.874   -13820556.468 6  -9708359.536 6
  17673149.718   -33668833.118 5 -21929922.362 4
  18537862.421       66621.848 4      5758.548 1
  18267256.741    -2006908.976 3  -1396423.071 1
  17415853.562   -22714448.461 5 -17598974.353 5
  15099689.507    -8155194.416 7  -6284666.616 9
  15103103.124   -45493501.923 7 -35238872.545 8
  14029896.023   -38652644.132 7 -30027703.410 9
 95  2 19 22 30 29.9790000  0  8  7 18 16 15 31  2 19 27
  16286617.140   -13959370.149 6  -9816525.960 6
  17686081.819   -33600870.030 5 -21876964.213 4
  18539321.249       74285.038 4     11729.814 1
  18247581.468    -2110257.027 3  -1476953.870 2
  17425867.468   -22661818.517 5 -17557964.079 5
  15087396.382    -8219799.016 7  -6335007.841 8
  15103423.132   -45491805.817 7 -35237550.923 8
  14018006.030   -38715112.433 7 -30076380.000 9
 95  2 19 22 30 59.9790000  0  8  7 18 16 15 31  2 19 27
  16260250.476   -14097941.513 6  -9924503.586 6
  17699026.585   -33532838.113 5 -21823952.419 4
  18540834.390       82210.391 5     17905.343 1
  18227972.030    -2213359.725 3  -1557293.517 1
  17435943.437   -22608888.988 5 -17516720.379 5
  15075133.038    -8284226.851 7  -6385211.328 8
  15103807.991   -45489786.284 7 -35235977.279 8
  14006185.069   -38777251.092 7 -30124799.729 9
 95  2 19 22 31 29.9790000  0  8  7 18 16 15 31  2 19 27
  16233926.937   -14236247.834 6 -10032274.655 6
  17711980.679   -33464751.026 5 -21770897.601 3
  18542392.788       90406.607 3     24291.931 1
  18208396.023    -2316204.349 3  -1637432.059 2
  17446067.679   -22555675.327 5 -17475255.250 6
  15062914.046    -8348451.642 7  -6435256.614 8
  15104255.319   -45487440.364 7 -35234149.313 8
  13994423.132   -38839046.159 7 -30172951.715 9
 95  2 19 22 31 59.9790000  0  7  7 18 15 31  2 19 27
  16207658.327   -14374296.753 6 -10139845.166 6
  17724947.882   -33396633.499 5 -21717819.119 2
  18188868.491    -2418802.817 3  -1717378.821 1
  17456240.624   -22502207.384 5 -17433591.999 5
  15050731.984    -8412474.266 7  -6485144.362 9
  15104760.866   -45484787.708 7 -35232082.335 7
  13982726.976   -38900518.585 7 -30220852.307 9
